[[{"header":{"parameterUnit":"m.s-1","parameterCategory":1,"la1":30.6,"la2":29.2853,"lo1":-89.7004,"lo2":-87.6739,"dy":0.0162,"dx":0.0183,"nx":112,"ny":82,"refTime":"2025-03-09T06:00:00:Z","depth":0,"parameterNumber":2,"parameterNumberName":"U-component_of_WINDS"},"data":[0.0,0.0,0.0,0.0,0.0,0.0,0.0,0.0,0.0,0.0,0.0,0.0,0.0,0.0,0.0,0.0,0.0,0.0,0.0,0.0,0.0,0.0,0.0,0.0,0.0,0.0,0.0,0.0,0.0,0.0,0.0,0.0,0.0,0.0,0.0,0.0,0.0,0.0,0.0,0.0,0.0,0.0,0.0,0.0,0.0,0.0,0.0,0.0,0.0,0.0,0.0,0.0,0.0,0.0,0.0,0.0,0.0,0.0,0.0,0.0,0.0,0.0,0.0,0.0,0.0,0.0,0.0,0.0,0.0,0.0,0.0,0.0,0.0,0.0,0.0,0.0,0.0,0.0,0.0,0.0,0.0,0.0,0.0,0.0,0.0,0.0,0.0,0.0,0.0,0.0,-0.8039,-0.8154,-0.9032,-0.9599,-0.9599,-0.9914,-0.9185,-0.7033,0.0,0.0,0.0,0.0,0.0,0.0,0.0,0.0,0.0,0.0,0.0,0.0,0.0,0.0,0.0,0.0,0.0,0.0,0.0,0.0,0.0,0.0,0.0,0.0,0.0,0.0,0.0,0.0,0.0,0.0,0.0,0.0,0.0,0.0,0.0,0.0,0.0,0.0,0.0,0.0,0.0,0.0,0.0,0.0,0.0,0.0,0.0,0.0,0.0,0.0,0.0,0.0,0.0,0.0,0.0,0.0,0.0,0.0,0.0,0.0,0.0,0.0,0.0,0.0,0.0,0.0,0.0,0.0,0.0,0.0,0.0,0.0,0.0,0.0,0.0,0.0,0.0,0.0,0.0,0.0,0.0,0.0,0.0,0.0,0.0,0.0,0.0,0.0,0.0,0.0,0.0,0.0,0.0,0.0,0.0,0.0,0.0,0.0,0.0,0.0,0.0,0.0,0.0,0.0,-0.7671,-0.9187,-0.9489,-0.9599,-0.9599,-0.9354,-0.853,-0.6994,0.0,0.0,0.0,0.0,0.0,0.0,0.0,0.0,0.0,0.0,0.0,0.0,0.0,0.0,0.0,0.0,0.0,0.0,0.0,0.0,0.0,0.0,0.0,0.0,0.0,0.0,0.0,0.0,0.0,0.0,0.0,0.0,0.0,0.0,0.0,0.0,0.0,0.0,0.0,0.0,0.0,0.0,0.0,0.0,0.0,0.0,0.0,0.0,0.0,0.0,0.0,0.0,0.0,0.0,0.0,0.0,0.0,0.0,0.0,0.0,0.0,0.0,0.0,0.0,0.0,0.0,0.0,0.0,0.0,0.0,0.0,0.0,0.0,0.0,0.0,0.0,0.0,0.0,0.0,0.0,0.0,0.0,0.0,0.0,0.0,0.0,0.0,0.0,0.0,0.0,0.0,0.0,0.0,0.0,0.0,0.0,0.0,0.0,0.0,0.0,0.0,0.0,0.0,-0.7001,-0.7678,-0.9118,-0.9079,-0.8938,-0.8938,-0.8983,-0.8304,-0.6681,-0.6951,0.0,0.0,0.0,0.0,0.0,0.0,0.0,0.0,0.0,0.0,0.0,0.0,0.0,0.0,0.0,0.0,0.0,0.0,0.0,0.0,0.0,0.0,0.0,0.0,0.0,0.0,0.0,0.0,0.0,0.0,0.0,0.0,0.0,0.0,0.0,0.0,0.0,0.0,0.0,0.0,0.0,0.0,0.0,0.0,0.0,0.0,0.0,0.0,0.0,0.0,0.0,0.0,0.0,0.0,0.0,0.0,0.0,0.0,0.0,0.0,0.0,0.0,0.0,0.0,0.0,0.0,0.0,0.0,0.0,0.0,0.0,0.0,0.0,0.0,0.0,0.0,0.0,0.0,0.0,0.0,0.0,0.0,0.0,0.0,0.0,0.0,0.0,0.0,0.0,0.0,0.0,0.0,0.0,0.0,0.0,0.0,0.0,0.0,0.0,0.0,0.0,0.0,-0.7577,-0.7886,-0.877,-0.8578,-0.8394,-0.8394,-0.8515,-0.7946,-0.6394,-0.643,0.0,0.0,0.0,0.0,0.0,0.0,0.0,0.0,0.0,0.0,0.0,0.0,0.0,0.0,0.0,0.0,0.0,0.0,0.0,0.0,0.0,0.0,0.0,0.0,0.0,0.0,0.0,0.0,0.0,0.0,0.0,0.0,0.0,0.0,0.0,0.0,0.0,0.0,0.0,0.0,0.0,0.0,0.0,0.0,0.0,0.0,0.0,0.0,0.0,0.0,0.0,0.0,0.0,0.0,0.0,0.0,0.0,0.0,0.0,0.0,0.0,0.0,0.0,0.0,0.0,0.0,0.0,0.0,0.0,0.0,0.0,0.0,0.0,0.0,0.0,0.0,0.0,0.0,0.0,0.0,0.0,0.0,0.0,0.0,0.0,0.0,0.0,0.0,0.0,0.0,0.0,0.0,0.0,0.0,0.0,0.0,0.0,0.0,0.0,0.0,0.0,0.0,-0.7522,-0.8355,-0.8427,-0.8414,-0.8394,-0.8394,-0.7799,-0.7097,-0.6339,-0.5676,0.0,0.0,0.0,0.0,0.0,0.0,0.0,0.0,0.0,0.0,0.0,0.0,0.0,0.0,0.0,0.0,0.0,0.0,0.0,0.0,0.0,0.0,0.0,0.0,0.0,0.0,0.0,0.0,0.0,0.0,0.0,0.0,0.0,0.0,0.0,0.0,0.0,0.0,0.0,0.0,0.0,0.0,0.0,0.0,0.0,0.0,0.0,0.0,0.0,0.0,0.0,0.0,0.0,0.0,0.0,0.0,0.0,0.0,0.0,0.0,0.0,0.0,0.0,0.0,0.0,0.0,0.0,0.0,0.0,0.0,0.0,0.0,0.0,0.0,0.0,0.0,0.0,0.0,0.0,0.0,0.0,0.0,0.0,0.0,0.0,0.0,0.0,0.0,0.0,0.0,0.0,0.0,0.0,0.0,0.0,0.0,0.0,0.0,0.0,0.0,0.0,0.0,-0.7127,-0.79,0.0,-0.8394,-0.8394,-0.8394,-0.8147,-0.751,-0.6371,0.0,0.0,0.0,0.0,0.0,0.0,0.0,0.0,0.0,0.0,0.0,0.0,0.0,0.0,0.0,0.0,0.0,0.0,0.0,0.0,0.0,0.0,0.0,0.0,0.0,0.0,0.0,0.0,0.0,0.0,0.0,0.0,0.0,0.0,0.0,0.0,0.0,0.0,0.0,0.0,0.0,0.0,0.0,0.0,0.0,0.0,0.0,0.0,0.0,0.0,0.0,0.0,0.0,0.0,0.0,0.0,0.0,0.0,0.0,0.0,0.0,0.0,0.0,0.0,0.0,0.0,0.0,0.0,0.0,0.0,0.0,0.0,0.0,0.0,0.0,0.0,0.0,0.0,0.0,0.0,0.0,0.0,0.0,0.0,0.0,0.0,0.0,0.0,0.0,0.0,0.0,0.0,0.0,0.0,0.0,0.0,0.0,0.0,0.0,0.0,0.0,0.0,-0.6235,-0.7095,-0.7852,0.0,-0.8394,-0.8394,-0.8394,-0.8091,-0.7438,-0.6363,0.0,0.0,0.0,0.0,0.0,0.0,0.0,0.0,0.0,0.0,0.0,0.0,0.0,0.0,0.0,0.0,0.0,0.0,0.0,0.0,0.0,0.0,0.0,0.0,0.0,0.0,0.0,0.0,0.0,0.0,0.0,0.0,0.0,0.0,0.0,0.0,0.0,0.0,0.0,0.0,0.0,0.0,0.0,0.0,0.0,0.0,0.0,0.0,0.0,0.0,0.0,0.0,0.0,0.0,0.0,0.0,0.0,0.0,0.0,0.0,0.0,0.0,0.0,0.0,0.0,0.0,0.0,0.0,0.0,0.0,0.0,0.0,0.0,0.0,0.0,0.0,0.0,0.0,0.0,0.0,0.0,0.0,0.0,0.0,0.0,0.0,0.0,0.0,0.0,0.0,0.0,0.0,0.0,0.0,0.0,0.0,0.0,0.0,0.0,0.0,0.0,0.0,-0.6299,-0.7526,-0.8394,-0.8394,-0.8394,-0.8394,-0.8394,-0.742,-0.6665,0.0,0.0,0.0,0.0,0.0,0.0,0.0,0.0,0.0,0.0,0.0,0.0,0.0,0.0,0.0,0.0,0.0,0.0,0.0,0.0,0.0,0.0,0.0,0.0,0.0,0.0,0.0,0.0,0.0,0.0,0.0,0.0,0.0,0.0,0.0,0.0,0.0,0.0,0.0,0.0,0.0,0.0,0.0,0.0,0.0,0.0,0.0,0.0,0.0,0.0,0.0,0.0,0.0,0.0,0.0,0.0,0.0,0.0,0.0,0.0,0.0,0.0,0.0,0.0,0.0,0.0,0.0,0.0,0.0,0.0,0.0,0.0,0.0,0.0,0.0,0.0,0.0,0.0,0.0,0.0,0.0,0.0,0.0,0.0,0.0,0.0,0.0,0.0,0.0,0.0,0.0,0.0,0.0,0.0,0.0,0.0,0.0,0.0,0.0,0.0,0.0,0.0,0.0,-0.6617,-0.7677,-0.8394,-0.8394,-0.8394,-0.8394,-0.8394,-0.7857,-0.7156,-0.6347,0.0,0.0,0.0,0.0,0.0,0.0,0.0,0.0,0.0,0.0,0.0,0.0,0.0,0.0,0.0,0.0,0.0,0.0,0.0,0.0,0.0,0.0,0.0,0.0,0.0,0.0,0.0,0.0,0.0,0.0,0.0,0.0,0.0,0.0,0.0,0.0,0.0,0.0,0.0,0.0,0.0,0.0,0.0,0.0,0.0,0.0,0.0,0.0,0.0,0.0,0.0,0.0,0.0,0.0,0.0,0.0,0.0,0.0,0.0,0.0,0.0,0.0,0.0,0.0,0.0,0.0,0.0,0.0,0.0,0.0,0.0,0.0,0.0,0.0,0.0,0.0,0.0,0.0,0.0,0.0,0.0,0.0,0.0,0.0,0.0,0.0,0.0,0.0,0.0,0.0,0.0,0.0,0.0,0.0,0.0,0.0,0.0,0.0,0.0,0.0,0.0,0.0,-0.6752,-0.773,-0.8394,-0.8394,-0.8394,-0.8394,-0.8394,-0.8039,-0.737,-0.6363,0.0,0.0,0.0,0.0,0.0,0.0,0.0,0.0,0.0,0.0,0.0,0.0,0.0,0.0,0.0,0.0,0.0,0.0,0.0,0.0,0.0,0.0,0.0,0.0,0.0,0.0,0.0,0.0,0.0,0.0,0.0,0.0,0.0,0.0,0.0,0.0,0.0,0.0,0.0,0.0,0.0,0.0,0.0,0.0,0.0,0.0,0.0,0.0,0.0,0.0,0.0,0.0,0.0,0.0,0.0,0.0,0.0,0.0,0.0,0.0,0.0,0.0,0.0,0.0,0.0,0.0,0.0,0.0,0.0,0.0,0.0,0.0,0.0,0.0,0.0,0.0,0.0,0.0,0.0,0.0,0.0,0.0,0.0,0.0,0.0,0.0,0.0,0.0,0.0,0.0,0.0,0.0,0.0,0.0,0.0,0.0,0.0,0.0,0.0,0.0,0.0,0.0,-0.6808,-0.7764,-0.8394,-0.8394,-0.8394,-0.8394,-0.8394,-0.8039,-0.7386,-0.6411,0.0,0.0,0.0,0.0,0.0,0.0,0.0,0.0,0.0,0.0,0.0,0.0,0.0,0.0,0.0,0.0,0.0,0.0,0.0,0.0,0.0,0.0,0.0,0.0,0.0,0.0,0.0,0.0,0.0,0.0,0.0,0.0,0.0,0.0,0.0,0.0,0.0,0.0,0.0,0.0,0.0,0.0,0.0,0.0,0.0,0.0,0.0,0.0,0.0,0.0,0.0,0.0,0.0,0.0,0.0,0.0,0.0,0.0,0.0,0.0,-0.7453,0.0,0.0,0.0,0.0,0.0,0.0,0.0,0.0,0.0,0.0,0.0,0.0,0.0,0.0,0.0,0.0,0.0,0.0,0.0,0.0,0.0,0.0,0.0,0.0,0.0,0.0,0.0,0.0,0.0,0.0,0.0,0.0,0.0,0.0,0.0,0.0,0.0,0.0,0.0,0.0,0.0,-0.7118,-0.7908,-0.8394,-0.8394,-0.8394,-0.8394,-0.8394,-0.8039,-0.7489,-0.6745,-0.6131,0.0,0.0,0.0,0.0,0.0,0.0,0.0,0.0,0.0,0.0,0.0,0.0,0.0,0.0,0.0,0.0,0.0,0.0,0.0,0.0,0.0,0.0,0.0,0.0,0.0,0.0,0.0,0.0,0.0,0.0,0.0,0.0,0.0,0.0,0.0,0.0,0.0,0.0,0.0,0.0,0.0,0.0,0.0,0.0,0.0,0.0,0.0,0.0,0.0,0.0,0.0,0.0,0.0,0.0,0.0,0.0,0.0,0.0,0.0,0.0,-0.7785,0.0,0.0,0.0,0.0,0.0,0.0,0.0,0.0,0.0,0.0,0.0,0.0,0.0,0.0,0.0,0.0,0.0,0.0,0.0,0.0,0.0,0.0,0.0,0.0,0.0,0.0,0.0,0.0,0.0,0.0,0.0,0.0,0.0,0.0,0.0,0.0,0.0,0.0,0.0,0.0,-0.7709,-0.8314,-0.8754,-0.908,-0.8969,-0.8824,-0.8643,-0.8452,-0.7956,-0.7102,-0.657,0.0,0.0,0.0,0.0,0.0,0.0,0.0,0.0,0.0,0.0,0.0,0.0,0.0,0.0,0.0,0.0,0.0,0.0,0.0,0.0,0.0,0.0,0.0,0.0,0.0,0.0,0.0,0.0,0.0,0.0,0.0,0.0,0.0,0.0,0.0,0.0,0.0,0.0,0.0,0.0,0.0,0.0,0.0,0.0,0.0,0.0,0.0,0.0,0.0,0.0,0.0,0.0,0.0,-1.0189,-1.0747,-1.1343,-1.1842,-1.2003,-1.1758,-0.9685,-0.9127,-0.9597,0.0,0.0,0.0,0.0,0.0,0.0,0.0,0.0,0.0,0.0,0.0,0.0,0.0,0.0,0.0,0.0,0.0,0.0,0.0,0.0,0.0,0.0,0.0,0.0,0.0,-1.0409,-0.9764,0.0,0.0,0.0,0.0,0.0,0.0,0.0,0.0,0.0,0.0,0.0,0.0,-0.8314,-0.8826,-0.9272,-0.9834,-0.966,-0.935,-0.9017,-0.8937,-0.85,-0.7547,-0.7118,-0.6609,0.0,0.0,0.0,0.0,0.0,0.0,0.0,0.0,0.0,0.0,0.0,0.0,0.0,0.0,0.0,0.0,0.0,0.0,0.0,0.0,0.0,0.0,0.0,0.0,0.0,0.0,0.0,0.0,0.0,0.0,0.0,0.0,-0.6645,-0.7173,0.0,0.0,0.0,0.0,0.0,0.0,0.0,0.0,0.0,0.0,0.0,0.0,0.0,-1.0912,-1.1315,-1.199,-1.2063,-1.1558,-1.2472,-1.2954,-1.2985,-1.3135,-1.3429,-1.3794,-1.301,0.0,-1.0375,-1.0397,0.0,0.0,0.0,0.0,0.0,0.0,0.0,0.0,0.0,0.0,0.0,0.0,0.0,0.0,0.0,0.0,0.0,0.0,0.0,0.0,0.0,0.0,-1.056,-1.0494,-1.0479,-1.0285,0.0,-0.891,-0.8191,-0.7206,-0.6554,0.0,0.0,0.0,0.0,0.0,0.0,0.0,-0.8691,-0.939,-0.9795,-0.989,-0.9858,-0.9692,-0.9358,-0.9072,-0.8715,-0.8282,-0.7602,-0.7062,-0.6689,-0.6019,0.0,0.0,0.0,0.0,0.0,0.0,0.0,0.0,0.0,0.0,0.0,0.0,0.0,0.0,0.0,0.0,0.0,0.0,0.0,0.0,0.0,0.0,0.0,0.0,0.0,0.0,0.0,0.0,0.0,-0.6748,-0.7752,-0.8232,-0.8294,-0.8251,0.0,0.0,0.0,0.0,0.0,0.0,0.0,0.0,0.0,-1.1137,-1.209,-1.2797,-1.3202,-1.3484,-1.3584,-1.3469,-1.4003,-1.4323,-1.4506,-1.491,-1.5022,-1.4872,-1.4637,-1.3839,-1.2708,-1.2186,-1.1643,-1.1125,0.0,0.0,0.0,0.0,-1.1136,-1.1375,-1.2211,-1.2271,0.0,0.0,0.0,0.0,0.0,0.0,0.0,0.0,0.0,0.0,0.0,0.0,0.0,-1.2005,-1.2039,-1.1925,-1.1903,-1.1642,-1.0754,0.0,-0.782,-0.7239,-0.649,0.0,0.0,0.0,0.0,-0.8036,-0.9296,-0.9716,-1.0056,-1.0486,-1.0526,-1.0303,-0.9739,-0.9747,-0.9485,-0.8723,-0.821,-0.7745,-0.7378,-0.6713,-0.6102,0.0,0.0,0.0,0.0,0.0,0.0,0.0,0.0,0.0,0.0,0.0,0.0,0.0,0.0,0.0,0.0,0.0,0.0,0.0,0.0,0.0,0.0,0.0,0.0,0.0,0.0,0.0,0.0,-0.7876,-0.8715,-0.917,-0.9445,-0.9539,0.0,0.0,0.0,0.0,0.0,0.0,-1.1178,-1.1906,-1.2556,-1.3135,-1.3832,-1.4414,-1.4831,-1.479,-1.4802,-1.4865,-1.5157,-1.5335,-1.542,-1.6189,-1.6279,-1.5821,-1.594,-1.5712,-1.5229,-1.391,-1.3227,-1.3008,-1.2824,-1.2662,-1.2566,-1.2925,-1.3119,-1.3339,-1.4198,-1.4349,-1.4107,-1.4001,0.0,-1.2709,-1.1562,0.0,0.0,0.0,0.0,-1.1683,-1.2913,-1.2389,-1.1863,-1.3169,-1.3178,-1.2936,-1.3083,-1.3084,-1.236,0.0,-0.9292,-0.87,-0.7645,0.0,0.0,0.0,0.0,-0.8654,-0.9906,-1.012,-1.0399,-1.0939,-1.0995,-1.0722,-1.0071,-1.0199,-1.0002,-0.9147,-0.8733,-0.8389,-0.8051,-0.7381,-0.6834,-0.6408,0.0,0.0,0.0,0.0,0.0,0.0,0.0,0.0,0.0,0.0,0.0,0.0,0.0,0.0,0.0,0.0,0.0,0.0,0.0,0.0,0.0,0.0,0.0,0.0,0.0,0.0,0.0,0.0,0.0,-1.0077,-1.0919,0.0,0.0,0.0,0.0,-1.1432,-1.1908,-1.238,-1.2859,-1.3707,-1.4392,-1.4857,-1.5343,-1.5825,-1.6299,-1.6291,-1.5987,-1.5381,-1.6017,-1.5989,-1.543,-1.6474,-1.6946,-1.6936,-1.7379,-1.7564,-1.74,-1.5417,-1.4115,-1.3383,-1.3578,-1.332,-1.3039,-1.4383,-1.5119,-1.5652,-1.7022,-1.7482,-1.74,-1.6927,-1.5654,-1.4281,-1.4218,-1.3284,0.0,0.0,-1.3548,-1.3173,-1.4839,-1.4064,-1.2988,-1.3408,-1.3047,-1.2509,-1.2144,-1.207,-1.1927,0.0,-1.1047,-1.0448,-0.9448,0.0,-0.8794,-0.8794,-0.9096,-0.9588,-1.0368,-1.074,-1.0955,-1.0995,-1.0995,-1.079,-1.0324,-1.0062,-0.9857,-0.9664,-0.9156,-0.8814,-0.8666,-0.7998,-0.7428,-0.698,-0.6303,0.0,0.0,0.0,0.0,0.0,0.0,0.0,0.0,0.0,0.0,0.0,0.0,0.0,0.0,0.0,0.0,0.0,0.0,0.0,0.0,0.0,0.0,0.0,0.0,0.0,0.0,0.0,0.0,-1.182,-1.2223,0.0,-1.2615,-1.2636,-1.2816,-1.329,-1.3484,-1.3934,-1.4695,-1.5021,-1.5411,-1.5905,-1.607,-1.6236,-1.6413,-1.6663,-1.6681,-1.6435,-1.6989,-1.7122,-1.687,-1.7287,-1.7461,-1.7461,-1.7637,-1.7699,-1.7637,-1.692,-1.6437,-1.6157,-1.6241,-1.6151,-1.6046,-1.6535,-1.6818,-1.7012,-1.7523,-1.7699,-1.7678,-1.7502,-1.6835,-1.6038,-1.5861,-1.5274,-1.4716,-1.5033,-1.4569,-1.4235,-1.5325,-1.4858,-1.4224,-1.4827,-1.4461,-1.4045,-1.4372,-1.3845,-1.3272,-1.3252,-1.2524,-1.1731,-1.1133,-1.0914,-1.0746,-1.0526,-1.027,-1.0289,-1.0775,-1.0743,-1.0687,-1.0687,-1.086,-1.0852,-1.0451,-1.0532,-1.0338,-0.9734,-0.9353,-0.8993,-0.8576,-0.8131,-0.7693,-0.727,-0.681,-0.6079,0.0,0.0,0.0,0.0,0.0,0.0,0.0,0.0,0.0,0.0,0.0,0.0,0.0,0.0,0.0,0.0,0.0,0.0,0.0,0.0,0.0,0.0,0.0,0.0,0.0,0.0,-1.1902,-1.2791,-1.3318,-1.3659,-1.3814,-1.3969,-1.4273,-1.4738,-1.4769,-1.5111,-1.5877,-1.5946,-1.6136,-1.6591,-1.6601,-1.6674,-1.6839,-1.7099,-1.7244,-1.7254,-1.7554,-1.7699,-1.7709,-1.7854,-1.7957,-1.7926,-1.8112,-1.8185,-1.8185,-1.8185,-1.8185,-1.8154,-1.7823,-1.7699,-1.7719,-1.7864,-1.7957,-1.7968,-1.8133,-1.8081,-1.7957,-1.7957,-1.7616,-1.7205,-1.7018,-1.6743,-1.6461,-1.6287,-1.595,-1.5693,-1.5927,-1.5509,-1.5098,-1.5348,-1.4861,-1.4477,-1.495,-1.4435,-1.388,-1.3976,-1.3288,-1.2511,-1.2024,-1.1854,-1.1686,-1.1461,-1.1094,-1.0886,-1.0979,-1.0814,-1.0631,-1.0504,-1.0703,-1.0724,-1.0468,-1.0685,-1.0569,-0.9945,-0.9533,-0.9128,-0.8715,-0.8222,-0.782,-0.7509,-0.7052,-0.6459,-0.5702,0.0,0.0,0.0,0.0,0.0,0.0,0.0,0.0,0.0,0.0,0.0,0.0,0.0,0.0,0.0,0.0,0.0,0.0,0.0,0.0,0.0,0.0,0.0,-1.0345,-1.183,-1.2956,-1.2987,-1.42,-1.4852,-1.4417,-1.478,-1.5225,-1.568,-1.5711,-1.5908,-1.6381,-1.6423,-1.6601,-1.6996,-1.7027,-1.7254,-1.7699,-1.7719,-1.7719,-1.7719,-1.774,-1.774,-1.7761,-1.8206,-1.8445,-1.8476,-1.8922,-1.9139,-1.915,-1.915,-1.915,-1.9056,-1.8091,-1.774,-1.7792,-1.8247,-1.8434,-1.8497,-1.8942,-1.8808,-1.8434,-1.8445,-1.8143,-1.7771,-1.775,-1.775,-1.7729,-1.7667,-1.7657,-1.7481,-1.6782,-1.6188,-1.5555,-1.4887,-1.4239,-1.3749,-1.3775,-1.3708,-1.3667,-1.3692,-1.3318,-1.2814,-1.2199,-1.1786,-1.1575,-1.1632,-1.1567,0.0,-1.1093,-1.1045,-1.0875,-1.0544,-1.0512,-1.0453,-1.0316,-1.0419,-1.0445,-1.0275,-0.9659,-0.9229,-0.9097,-0.8323,-0.7851,-0.7713,-0.7037,-0.6574,-0.6319,0.0,0.0,0.0,0.0,0.0,0.0,0.0,0.0,0.0,0.0,0.0,0.0,0.0,0.0,0.0,0.0,0.0,0.0,0.0,0.0,0.0,0.0,-1.1965,-1.213,-1.3163,-1.4179,-1.4852,-1.5266,-1.5577,-1.5784,-1.5929,-1.6081,-1.6205,-1.6216,-1.6249,-1.6402,-1.6684,-1.6893,-1.7006,-1.7337,-1.7575,-1.7699,-1.804,-1.8206,-1.8206,-1.8547,-1.8735,-1.8702,-1.8859,-1.9098,-1.9419,-1.9554,-1.9782,-2.0058,-2.0058,-2.0058,-1.9965,-1.9054,-1.8735,-1.8713,-1.887,-1.8911,-1.8932,-1.9056,-1.9025,-1.8973,-1.9305,-1.9336,-1.9194,-1.8943,-1.8651,-1.8198,-1.7077,-1.6555,-1.6406,-1.6735,-1.6702,-1.6779,-1.765,-1.7307,-1.6929,-1.7464,-1.6084,-1.4925,-1.5444,-1.4416,-1.3578,-1.4088,-1.3481,-1.3253,-1.4179,-1.2925,0.0,-1.2399,-1.182,-1.1225,-1.0891,-1.0852,-1.0748,-1.0468,-1.047,-1.0308,-0.9807,-0.9478,-0.9167,-0.8825,-0.8461,-0.8193,-0.807,-0.7153,-0.6658,0.0,0.0,0.0,0.0,0.0,0.0,0.0,0.0,0.0,0.0,0.0,0.0,0.0,0.0,0.0,0.0,0.0,0.0,0.0,0.0,0.0,0.0,-1.2676,-1.3375,-1.3969,-1.4542,-1.509,-1.5628,-1.5856,-1.6112,-1.6381,-1.6413,-1.6413,-1.6413,-1.656,-1.6653,-1.6653,-1.7058,-1.7389,-1.7564,-1.7864,-1.8102,-1.8288,-1.8547,-1.8704,-1.8704,-1.917,-1.9388,-1.9399,-1.9585,-1.9789,0.0,-2.0038,-2.0182,-2.0385,-2.0385,-2.0385,0.0,0.0,0.0,0.0,0.0,-1.9634,-1.9634,-1.9634,-1.9634,-1.9686,-1.9955,-2.0038,-2.0009,-1.9828,-1.9584,-1.9242,-1.833,-1.79,-1.7757,-1.7863,-1.7776,-1.7783,-1.8301,-1.7959,-1.7584,-1.7687,-1.6533,-1.5489,-1.5584,0.0,0.0,-1.4906,-1.4078,-1.3546,-1.413,-1.3083,-1.2335,-1.2555,-1.2068,-1.1582,-1.1241,-1.1291,-1.1174,-1.0761,-1.0782,0.0,0.0,0.0,-0.9196,-0.8715,-0.8594,0.0,0.0,0.0,0.0,0.0,0.0,0.0,0.0,-0.6713,-0.6549,0.0,0.0,0.0,0.0,0.0,0.0,0.0,0.0,0.0,0.0,0.0,0.0,0.0,0.0,0.0,0.0,-1.4177,-1.4784,-1.5666,-1.579,-1.579,-1.579,-1.6153,-1.6413,-1.6413,-1.6425,-1.6485,-1.6485,-1.6841,-1.7089,-1.7089,0.0,0.0,0.0,0.0,-1.8683,-1.9098,-1.915,-1.9181,-1.9181,-1.9647,-1.9865,-1.9886,-2.0245,-2.0416,-2.0467,-2.0467,-2.0498,-2.055,-2.055,-2.055,-2.0529,-2.0426,-2.0385,-2.0385,-2.0385,-2.0385,0.0,0.0,0.0,0.0,-2.0447,-2.0467,-2.0478,-2.0529,-2.0509,-2.0467,-2.0396,-2.0319,-2.0135,-1.9466,-1.9036,-1.8601,-1.7932,-1.75,-1.7021,-1.6324,-1.6105,-1.5833,-1.5125,-1.4695,-1.4563,-1.5027,-1.3999,-1.3044,-1.288,-1.2707,-1.2509,-1.2212,-1.2105,-1.1948,-1.1582,0.0,0.0,-1.1112,-1.1169,-1.1014,-1.0496,-0.9895,-0.9328,-0.8798,-0.8767,-0.8743,-0.8743,-0.8707,-0.8692,-0.8692,-0.8752,-0.8743,-0.8737,-0.7494,-0.7253,0.0,0.0,0.0,0.0,0.0,0.0,0.0,0.0,0.0,0.0,0.0,0.0,0.0,0.0,0.0,-1.4132,-1.4978,-1.5762,-1.6199,-1.6249,-1.6249,-1.6249,-1.635,-1.6413,-1.6413,-1.6705,-1.6882,-1.6882,-1.7306,-1.7564,-1.7564,-1.8019,0.0,-1.8414,-1.8776,-1.9015,-1.9108,-1.9471,-1.9658,-1.9668,0.0,0.0,-2.0296,-2.0343,-2.0627,-2.0943,-2.0943,-2.1186,-2.1538,-2.1538,-2.1538,-2.1466,-2.071,-2.0385,-2.0385,-2.0385,-2.0385,-2.0385,-2.0385,-2.0385,-2.0447,-2.0855,-2.0943,-2.1052,-2.1424,-2.128,0.0,-2.0222,-1.9816,-1.9466,-1.9357,-1.9252,-1.9223,-1.9333,-1.9296,-1.9099,-1.8556,-1.8003,-1.7516,-1.7379,-1.6798,-1.6094,-1.5334,-1.4024,-1.3443,-1.4387,-1.3439,-1.275,-1.3168,-1.2783,-1.2321,-1.1956,-1.194,-1.1816,-1.1452,-1.109,-1.0693,-1.0211,-0.9602,-0.9237,-0.9187,-0.9121,-0.9104,-0.9104,-0.8848,-0.8692,-0.8715,-0.898,-0.9104,-0.9097,-0.8553,-0.8377,0.0,0.0,0.0,0.0,0.0,0.0,0.0,0.0,0.0,0.0,0.0,-1.2954,-1.3331,0.0,-1.5525,-1.5772,-1.6026,-1.624,-1.6394,-1.6413,-1.6413,-1.6413,-1.6413,-1.6496,-1.6684,-1.6882,-1.711,-1.7337,-1.7802,-1.8061,-1.8061,-1.8517,-1.8756,-1.8756,-1.9212,-1.945,-1.945,-1.9862,-2.0089,-2.01,-2.0555,-2.0736,-2.0772,-2.101,-2.1238,-2.1455,-2.1455,-2.159,-2.1807,-2.1807,-2.1807,-2.1756,-2.13,-2.1114,-2.1114,-2.1114,-2.1114,-2.1114,-2.1114,-2.1114,-2.1155,-2.1383,-2.1455,-2.1507,-2.1735,-2.1642,-2.1381,-2.0994,-2.0709,-2.0538,-2.0538,-2.0377,-2.0228,-2.0421,-2.0124,-1.9627,-1.9039,-1.8432,-1.7901,-1.7516,-1.7139,-1.6729,-1.6143,-1.5293,-1.4536,-1.4113,-1.3375,-1.2914,-1.3028,-1.2805,-1.2527,-1.2305,-1.236,-1.2232,-1.1794,-1.1383,-1.0977,-1.0624,-1.0321,-1.0023,-0.9714,-0.9662,-0.9563,-0.9402,-0.9394,-0.9394,-0.9394,-0.975,-0.9911,-0.9904,-0.9743,-0.9555,0.0,0.0,0.0,0.0,0.0,0.0,0.0,0.0,-1.1563,-1.2241,-1.3539,-1.4827,-1.5716,-1.6522,-1.7123,-1.7286,-1.7032,-1.6798,-1.6736,-1.662,-1.6563,-1.6563,-1.6532,-1.6653,-1.6975,-1.7172,-1.742,-1.7802,-1.8268,-1.8548,-1.8548,-1.8901,-1.9108,-1.9108,-1.9554,-1.9793,-1.9793,-2.0286,-2.0555,-2.0529,-2.1031,-2.1248,-2.1259,-2.1631,-2.1807,-2.1807,-2.1807,-2.1807,-2.1807,-2.1807,-2.1807,-2.1807,-2.1807,-2.1807,-2.1807,-2.1807,-2.1807,-2.1807,-2.1807,-2.1807,-2.1807,-2.1807,-2.1807,-2.1807,-2.1807,-2.1807,-2.1807,-2.1807,-2.1807,-2.1807,-2.1807,-2.1528,-2.1228,-2.1135,-2.0555,-1.9856,-1.9193,-1.8676,-1.8164,-1.7571,-1.7401,-1.7242,-1.6932,-1.6757,-1.5912,-1.3827,-1.3453,-1.3252,-1.2773,-1.2694,-1.267,-1.2606,-1.2718,-1.2525,-1.2019,-1.17,-1.1425,-1.105,-1.1043,-1.078,-1.0234,-1.0192,-1.0075,-0.9811,-1.006,-1.0192,-1.0192,-1.0455,-1.0587,-1.0587,-1.0682,-1.0507,-1.3559,-1.2041,-1.0879,-1.145,-1.1503,-1.1804,0.0,0.0,-1.4009,-1.5035,-1.5768,-1.6293,-1.6464,-1.7723,-1.8437,-1.7545,-1.7687,-1.7927,-1.7902,-1.7462,-1.7101,-1.7101,-1.7014,-1.6955,-1.7006,-1.7761,-1.8289,-1.8331,-1.8766,-1.9025,-1.9025,-1.9077,-1.9108,-1.9108,-1.9554,-1.9793,-1.9793,-2.0607,-2.1005,-2.1041,-2.1507,-2.1725,-2.1725,-2.1787,-2.1807,-2.1807,-2.1807,-2.1807,-2.1807,-2.1807,-2.1807,-2.1807,-2.1807,-2.1807,-2.1807,-2.1807,-2.1807,-2.1807,-2.1807,-2.1807,-2.1807,-2.1807,-2.1807,-2.1807,-2.1807,-2.1807,-2.1807,-2.1807,-2.1807,-2.1807,-2.1807,-2.1766,-2.1621,-2.1217,-2.1041,-2.0819,-2.0334,-1.9891,-1.9572,-1.9503,-1.9141,-1.8452,-1.7139,-1.741,-1.7143,-1.5247,-1.472,-1.4161,-1.3172,-1.3036,-1.2941,-1.263,-1.2612,-1.2399,-1.1874,-1.1782,-1.1509,-1.0859,-1.0836,-1.0736,-1.0564,-1.0536,-1.0542,-1.0477,-1.0514,-1.0536,-1.0536,-1.0572,-1.0587,-1.0594,-1.0916,-1.0872,-1.5048,-1.3838,-1.2958,0.0,-1.3141,-1.3457,-1.4739,-1.5022,-1.5349,-1.6468,-1.7124,-1.7595,-1.7942,-1.8796,-1.9218,0.0,-1.8513,-1.8509,-1.8147,-1.7863,-1.7727,-1.7727,-1.761,-1.7476,-1.7409,-1.8343,-1.8924,-1.883,-1.9346,-1.9518,-1.9108,-1.9357,-1.9502,-1.9502,-2.0207,-2.0545,-2.0545,-2.1197,-2.1518,-2.1518,-2.1714,-2.1807,-2.1807,-2.1807,-2.1807,-2.1807,-2.1807,-2.1952,-2.2211,-2.2211,-2.2366,-2.2604,-2.2604,-2.2604,-2.2542,-2.2004,-2.1807,-2.1807,-2.1807,-2.1807,-2.1807,-2.1807,-2.1807,-2.1807,-2.1807,-2.1807,-2.1807,-2.1807,-2.1807,-2.1807,-2.1807,-2.1807,-2.1756,-2.1559,-2.1311,-2.1062,-2.0829,-2.0472,-2.0069,-1.9844,-1.9637,-1.9206,-1.8323,-1.8452,-1.8247,-1.6998,-1.6157,-1.5241,-1.4169,-1.403,-1.3736,-1.2972,-1.2718,-1.2504,-1.2292,-1.2277,-1.2093,-1.1698,-1.16,-1.1398,-1.1019,-1.0931,-1.0814,-1.0594,-1.0806,-1.0902,-1.0902,-1.1092,-1.1188,-1.1188,-1.1327,-1.132,-1.5924,0.0,0.0,-1.4772,-1.484,-1.5171,-1.6027,-1.6334,-1.6703,-1.7662,-1.8154,-1.8569,-1.9121,-1.9547,-1.9669,-1.9265,-1.9214,-1.9063,-1.8617,-1.8573,-1.8499,-1.8371,-1.8373,-1.8364,-1.825,-1.8947,-1.9392,-1.9398,-1.9846,-1.9867,-1.9318,-1.9616,-1.9855,-1.9979,-2.071,-2.1114,-2.1114,-2.158,-2.1807,-2.1807,-2.1807,-2.1807,-2.1807,-2.1807,-2.1807,-2.1818,-2.1942,-2.219,-2.2511,-2.2635,-2.2884,-2.3184,-2.3184,-2.3184,-2.3111,-2.2439,-2.219,-2.219,-2.219,-2.219,-2.219,-2.219,-2.219,-2.219,-2.219,-2.2097,-2.1994,-2.1994,-2.1901,-2.1807,-2.1807,-2.1807,-2.1807,-2.1807,-2.1549,-2.13,-2.13,-2.0901,-2.0524,-2.0238,-1.9969,-1.962,-1.9066,-1.9047,-1.8865,-1.8104,-1.7485,-1.6533,-1.5037,-1.4569,-1.409,-1.3316,-1.2949,-1.2742,-1.2742,-1.2654,-1.2498,-1.2305,-1.2212,-1.1951,-1.1451,-1.133,-1.1159,-1.0887,-1.1114,-1.1239,-1.1239,-1.1481,-1.1591,-1.1591,-1.1591,-1.1643,0.0,0.0,-1.5576,-1.6029,-1.6484,-1.6952,-1.7432,-1.7933,-1.8445,-1.8857,-1.897,-1.9133,-1.9685,-1.9798,-1.9798,-1.9773,-1.9785,-1.9755,-1.9744,-1.9743,-1.9564,-1.902,-1.9374,-1.962,0.0,-1.946,-1.9572,-2.0031,-2.0107,-2.0018,-1.9785,-1.9793,-1.999,-2.0354,-2.0866,-2.1114,-2.1114,-2.158,-2.1807,-2.1807,-2.1807,-2.1807,-2.1807,-2.1807,-2.1807,-2.1828,-2.2283,-2.248,-2.2532,-2.2977,-2.3174,-2.3184,-2.3184,-2.3184,-2.3184,-2.3153,-2.3143,-2.3143,-2.3143,-2.3143,-2.3143,-2.3143,-2.3143,-2.3143,-2.3143,-2.2832,-2.248,-2.248,-2.2149,-2.1807,-2.1807,-2.1807,-2.1807,-2.1807,-2.1797,-2.1787,-2.1787,-2.1424,-2.1093,-2.1073,-2.0369,-1.9575,-1.8849,-1.8947,-1.8865,-1.8104,-1.8576,-1.8095,-1.5511,-1.4288,-1.361,-1.3602,-1.3267,-1.3076,-1.3076,-1.2789,-1.2498,-1.2305,-1.2305,-1.2143,-1.1787,-1.1794,-1.1694,-1.1562,-1.1569,-1.1577,-1.1577,-1.1591,-1.1591,-1.1591,-1.1591,-1.1728,-1.6179,0.0,-1.7277,-1.7208,-1.7642,-1.8226,-1.8675,-1.887,-1.8964,-1.9093,-1.9045,-1.9058,-1.9233,-1.9259,-1.9397,-1.9748,-2.0129,-2.0277,-1.986,-2.0453,-2.0581,-1.9638,-1.9992,0.0,0.0,0.0,0.0,-2.0771,-2.1057,-2.0986,-2.049,-2.0575,-2.0721,-2.0876,-2.1331,-2.1569,-2.1569,-2.1725,-2.1807,-2.1807,-2.1807,-2.1807,-2.1807,-2.1807,-2.1807,-2.1828,-2.2294,-2.2677,-2.2987,-2.3453,-2.3815,-2.4042,-2.4042,-2.4042,-2.4042,-2.4042,-2.4042,-2.4002,-2.3401,-2.3184,-2.3184,-2.3184,-2.3184,-2.3184,-2.3184,-2.308,-2.2894,-2.2584,-2.2387,-2.219,-2.189,-2.1807,-2.1807,-2.1807,-2.1807,-2.1807,-2.1807,-2.1683,-2.1487,-2.1176,-2.0866,-2.039,-1.9573,-1.9486,-1.9383,-1.8805,-1.8519,-1.8045,-1.7181,-1.5655,-1.4656,-1.4656,-1.3916,-1.3418,-1.3418,-1.3339,-1.3147,-1.2862,-1.2711,-1.2484,-1.2158,-1.1926,-1.1771,-1.174,-1.1654,-1.1591,-1.1591,-1.1591,-1.1591,-1.1599,-1.178,-1.1901,-1.7184,-1.7888,-1.8594,-1.8913,-1.9183,-1.9472,-1.9948,-1.9687,-1.9339,-1.9278,-1.9028,-1.8816,-1.878,-1.878,-1.8956,-1.9434,-2.0189,-2.0566,-2.0189,-2.1079,-2.1443,-2.0514,-2.0714,-2.1136,0.0,0.0,0.0,-2.1455,-2.1961,-2.1994,-2.1464,-2.1514,-2.1628,-2.176,-2.1793,-2.1807,-2.1807,-2.1807,-2.1807,-2.1807,-2.1807,-2.1807,-2.1807,-2.1807,-2.1807,-2.1849,-2.247,-2.2915,-2.3236,-2.3857,-2.4281,-2.4497,-2.4497,-2.4497,-2.4497,-2.4497,-2.4497,-2.4414,-2.3867,-2.367,-2.367,-2.367,-2.367,-2.367,-2.367,-2.3557,-2.337,-2.308,-2.2873,-2.2677,-2.2377,-2.218,-2.2056,-2.2056,-2.1921,-2.1807,-2.1807,-2.1807,-2.1714,-2.1424,-2.1228,-2.0928,-2.0348,-2.0145,-1.9876,-1.9419,-1.8965,-1.8496,-1.8056,-1.6735,-1.572,-1.5455,-1.4909,-1.4355,-1.3834,-1.3923,-1.3786,-1.3315,-1.3104,-1.2848,-1.2591,-1.2321,-1.2129,-1.2057,-1.1968,-1.1904,-1.1904,-1.1904,-1.1904,-1.1943,-1.2116,-1.2237,-1.8717,-1.9211,-1.9624,-2.0997,-2.0959,-2.0724,-2.1086,-2.0384,-1.9605,-1.9357,-1.886,-1.8418,0.0,0.0,-1.8496,-1.8894,-1.9962,-2.0729,-2.0691,-2.1644,-2.2133,0.0,0.0,0.0,0.0,0.0,0.0,-2.2206,0.0,-2.2924,-2.2718,-2.2514,-2.2593,-2.299,-2.2289,-2.1873,-2.1807,-2.1807,-2.1807,-2.1807,-2.1807,-2.1807,-2.1807,-2.1807,-2.1818,-2.189,-2.2801,-2.3194,-2.3287,-2.4135,-2.4497,-2.4497,-2.4497,-2.4497,-2.4497,-2.4497,-2.4497,-2.4497,-2.4497,-2.4497,-2.4497,-2.4497,-2.4497,-2.4497,-2.4497,-2.425,-2.3908,-2.3929,-2.3567,-2.3215,-2.3194,-2.2863,-2.2532,-2.2501,-2.2159,-2.1838,-2.1818,-2.1807,-2.1807,-2.1807,-2.1424,-2.1114,-2.1114,-2.0695,-2.0276,-1.9896,-1.9834,-1.9407,-1.8197,-1.7413,-1.6698,-1.6009,-1.6165,-1.5773,-1.4374,-1.4606,-1.4486,-1.3741,-1.349,-1.3323,-1.314,-1.2938,-1.2729,-1.2519,-1.2519,-1.2526,-1.2485,-1.2485,-1.2485,-1.2485,-1.2507,-1.2716,-1.9447,-2.0633,-2.178,-2.1751,-2.2015,-2.2002,-2.0912,-2.0665,-2.013,-1.8357,-1.7858,-1.7584,0.0,0.0,0.0,-1.8317,-2.0024,0.0,-2.0754,-2.197,0.0,-2.1606,0.0,-2.2581,-2.2334,-2.3075,0.0,0.0,-2.3478,-2.3604,-2.4006,-2.3767,-2.3425,-2.299,-2.3338,-2.2957,-2.1807,-2.1807,-2.1807,-2.1807,-2.1807,-2.1807,-2.1807,-2.1807,-2.1994,-2.2356,-2.2936,-2.3381,-2.3743,-2.427,-2.4497,-2.4497,-2.4497,-2.4497,-2.4497,-2.4497,-2.4497,-2.4497,-2.4497,-2.4497,-2.4497,-2.4497,-2.4497,-2.4497,-2.4497,-2.4425,-2.4302,-2.3971,-2.3795,-2.3619,-2.3277,-2.3101,-2.2925,-2.2573,-2.2408,-2.2232,-2.188,-2.1807,-2.1807,-2.1807,-2.1424,-2.1114,-2.1114,-2.0695,-2.0354,-2.0276,-2.0255,-1.9895,-1.8933,-1.8172,-1.7653,-1.7457,-1.7011,-1.6604,-1.6225,-1.6273,-1.589,-1.485,-1.474,-1.4353,-1.35,-1.3341,-1.3148,-1.2938,-1.2796,-1.2661,-1.2485,-1.2485,-1.2485,-1.2526,-1.2767,-1.2928,-2.0427,-2.1625,-2.27,-2.2663,-2.2542,-2.2155,-2.0948,-2.0213,-1.9357,-1.7745,-1.712,0.0,-1.6145,-1.6672,0.0,0.0,0.0,0.0,-2.1069,-2.2246,-2.2882,0.0,-2.2732,0.0,-2.3062,-2.3627,-2.4192,0.0,-2.4554,-2.463,-2.497,-2.4754,-2.4432,-2.4009,-2.4059,-2.3537,-2.2327,-2.2327,-2.2138,-2.1807,-2.1807,-2.1807,-2.1818,-2.2014,-2.2252,-2.2532,0.0,-2.3639,-2.3919,-2.4321,-2.4497,-2.4497,-2.4497,-2.4497,-2.4497,-2.4497,-2.4497,-2.4497,-2.4497,-2.4497,-2.4497,-2.4497,-2.4497,-2.4497,-2.4497,-2.4497,-2.4445,-2.424,-2.4167,-2.4105,-2.3846,-2.3639,-2.3422,-2.3163,-2.2791,-2.2428,-2.2159,-2.1952,-2.1807,-2.1807,-2.16,-2.1414,-2.1414,-2.1207,-2.0922,-2.0762,-2.0731,-2.0472,-1.9758,-1.931,-1.8919,-1.8605,-1.8325,-1.7896,-1.7224,-1.731,-1.683,-1.5549,-1.5394,-1.493,-1.3984,-1.3785,-1.3619,-1.3419,-1.3307,-1.3132,-1.295,-1.295,-1.295,-1.295,-1.314,-1.3221,-2.1485,-2.2328,-2.2957,-2.346,-2.2802,-2.18,-2.099,-1.9592,-1.8236,-1.7329,0.0,-1.596,-1.5688,-1.6257,-1.691,-1.732,0.0,-2.0792,-2.1393,-2.2343,-2.302,-2.3095,-2.3108,-2.3333,-2.3941,-2.4067,-2.4519,-2.5523,-2.5661,-2.5711,-2.5711,-2.5546,-2.5418,-2.5312,-2.4528,-2.3731,-2.3001,-2.3001,-2.259,-2.1807,-2.1807,-2.1807,-2.1828,-2.2283,-2.2532,-2.2635,0.0,0.0,-2.4002,-2.4342,-2.4497,-2.4497,-2.4497,-2.4497,-2.4497,-2.4497,-2.4497,-2.4497,-2.4497,-2.4497,-2.4497,-2.4497,-2.4497,-2.4497,-2.4497,-2.4497,-2.4497,-2.4497,-2.4497,-2.4497,-2.4497,-2.426,-2.395,-2.3888,-2.3267,-2.2666,-2.2604,-2.2273,-2.1973,-2.1901,-2.1901,-2.188,-2.1818,-2.1807,-2.1662,-2.1269,-2.1207,-2.1062,-2.0659,-2.0467,-2.016,-1.9502,-1.9717,-1.9313,-1.7922,-1.8054,-1.7548,-1.6,-1.5754,-1.5259,-1.4425,-1.4245,-1.4065,-1.3863,-1.3863,-1.3754,-1.3535,-1.3499,-1.3492,-1.3492,-1.3492,-1.3492,-2.2313,-2.2987,-2.346,-2.3565,-2.3088,-2.2153,-2.058,-1.9834,0.0,0.0,-1.6278,-1.6075,-1.5479,-1.6022,-1.6731,-1.7301,-1.8832,-2.0313,-2.1343,-2.2046,-2.2594,0.0,-2.3108,-2.3333,-2.3941,-2.4406,0.0,0.0,0.0,-2.6348,-2.6348,-2.6299,-2.599,-2.5312,-2.4528,-2.3731,-2.3001,-2.3001,-2.259,-2.1807,-2.1807,-2.1807,-2.1828,-2.2283,-2.2708,-2.3101,-2.3639,0.0,-2.4394,-2.4466,-2.4497,-2.4497,-2.4497,-2.4497,-2.4497,-2.4497,-2.4497,-2.4497,-2.4497,-2.4497,-2.4497,-2.4497,-2.4497,-2.4497,-2.4497,-2.4497,-2.4497,-2.4497,-2.4497,-2.4497,-2.4497,-2.4445,-2.429,-2.396,-2.3795,-2.3536,-2.3153,-2.3008,-2.2832,-2.2449,-2.2377,-2.2263,-2.188,-2.1807,-2.1776,-2.1694,-2.1683,-2.1652,-2.158,-2.0897,-2.0349,-2.0206,-2.0241,-2.0046,-1.9467,-1.9306,-1.8419,-1.6594,-1.6411,-1.5798,-1.4461,-1.4461,-1.4425,-1.4289,-1.4137,-1.3956,-1.3761,-1.3572,-1.3492,-1.3492,-1.3492,-1.3492,-2.2104,-2.2862,-2.3595,-2.3595,-2.2877,-2.1774,-2.0241,0.0,0.0,0.0,-1.5857,-1.5672,-1.5281,-1.5915,0.0,-1.6798,-1.827,-1.9786,-2.093,-2.1543,0.0,-2.3007,-2.3108,-2.3446,0.0,-2.4637,0.0,0.0,0.0,-2.6499,-2.6499,-2.6499,-2.6314,-2.5955,-2.5546,-2.4969,-2.419,-2.419,-2.3607,-2.244,-2.244,-2.2214,-2.1828,-2.2283,-2.2749,-2.3215,-2.3722,0.0,-2.4497,-2.4497,-2.4497,-2.4497,-2.4497,-2.4497,-2.4497,-2.4497,-2.4497,-2.4497,-2.4497,-2.4497,-2.4497,-2.4497,-2.4497,-2.4497,-2.4497,-2.4332,-2.425,-2.4435,-2.4332,-2.425,-2.4435,-2.4497,-2.4445,-2.4281,-2.4043,-2.3753,-2.3287,-2.3184,-2.3122,-2.2904,-2.2853,-2.278,-2.2563,-2.2522,-2.2439,-2.2201,-2.2159,-2.2076,-2.1838,-2.1414,-2.1145,-2.1145,-2.0928,-2.07,-2.0483,-2.0174,-1.9334,-1.7789,-1.7675,-1.6916,-1.5213,-1.5196,-1.4955,-1.4425,-1.4317,-1.4109,-1.3797,-1.3717,-1.3608,-1.3492,-1.3492,-1.3492,-2.1874,-2.2742,-2.3565,-2.343,-2.2547,-2.1306,-1.9828,-1.8568,0.0,0.0,-1.5595,-1.5373,-1.5261,-1.5851,-1.6384,0.0,-1.7741,-1.9157,-2.0339,-2.1094,-2.1857,0.0,-2.3032,0.0,-2.4675,-2.4788,0.0,0.0,0.0,0.0,-2.6499,-2.6499,-2.6418,-2.6245,-2.6418,-2.6025,-2.504,-2.5194,-2.4623,-2.325,-2.3075,-2.2665,-2.2084,-2.2361,-2.2697,-2.307,-2.3567,0.0,0.0,-2.4321,-2.4352,-2.4363,-2.4466,-2.4497,-2.4497,-2.4497,-2.4497,-2.4497,-2.4497,-2.4497,-2.4497,-2.4497,-2.4497,-2.4476,-2.4383,-2.4157,-2.3929,-2.4178,-2.4074,-2.3939,-2.4188,-2.429,-2.4332,-2.4239,-2.3991,-2.3629,-2.3267,-2.3184,-2.3153,-2.306,-2.3122,-2.3153,-2.306,-2.3122,-2.306,-2.2697,-2.2646,-2.2511,-2.2149,-2.2014,-2.1952,-2.1952,-2.1538,-2.1217,-2.1124,-2.0757,-2.0022,-1.884,-1.8662,-1.7861,-1.6201,-1.6079,-1.5683,-1.4947,-1.4713,-1.4425,-1.4109,-1.3863,-1.3645,-1.3492,-1.3492,-1.3492,-2.2448,-2.3092,-2.346,-2.2927,-2.2239,-2.1186,-1.9241,0.0,0.0,-1.6068,-1.5784,-1.5758,-1.5741,-1.5818,-1.6103,0.0,0.0,-1.8426,-1.9711,-2.0815,-2.1707,-2.2309,0.0,0.0,-2.4675,0.0,0.0,0.0,0.0,0.0,-2.6499,-2.6499,-2.6176,-2.5418,-2.6141,-2.5756,-2.4228,-2.4933,-2.4862,-2.3975,-2.3313,-2.2964,-2.2874,-2.2632,-2.2522,-2.2584,-2.3049,0.0,0.0,-2.3764,-2.3939,-2.3981,-2.4342,-2.4497,-2.4497,-2.4497,-2.4497,-2.4497,-2.4497,-2.4497,-2.4497,-2.4497,-2.4497,-2.4425,-2.4064,-2.3908,-2.3836,-2.3422,-2.3588,-2.3795,-2.3412,-2.3629,-2.3836,-2.3412,-2.3277,-2.3236,-2.3194,-2.3184,-2.306,-2.2646,-2.2904,-2.3049,-2.2635,-2.2915,-2.3174,-2.3132,-2.3122,-2.3111,-2.307,-2.2687,-2.2439,-2.2439,-2.2025,-2.1569,-2.1155,-2.0946,-2.0306,-1.9044,-1.8614,-1.8064,-1.7189,-1.6915,-1.6768,-1.6655,-1.5648,-1.5098,-1.5062,-1.4029,-1.3528,-1.3492,-1.3492,-1.3492,-2.1859,-2.2583,-2.3002,-2.2763,-2.2209,-2.1171,-1.9166,0.0,-1.734,-1.6068,-1.5799,-1.5801,-1.5801,-1.5795,-1.6047,0.0,-1.689,-1.7411,-1.8988,-1.9649,-2.0464,-2.1669,-2.2297,0.0,0.0,0.0,0.0,0.0,0.0,0.0,-2.6499,-2.6499,-2.6349,-2.6025,-2.6314,-2.6198,-2.5534,-2.5873,-2.5629,-2.4826,-2.4504,-2.39,-2.3012,-2.287,-2.2685,-2.2511,-2.2687,0.0,0.0,-2.3391,-2.367,-2.394,-2.4074,-2.4312,-2.4497,-2.4497,-2.4497,-2.4497,-2.4497,-2.4497,-2.4497,-2.4497,-2.4321,-2.4105,-2.3929,-2.3681,-2.3422,-2.3236,-2.3122,-2.307,-2.3163,-2.3329,-2.3412,-2.3225,-2.3184,-2.3184,-2.3184,-2.3184,-2.3132,-2.2946,-2.306,-2.3132,-2.2946,-2.307,-2.3091,-2.2811,-2.3008,-2.3091,-2.2801,-2.2853,-2.2801,-2.2532,-2.2087,-2.1725,-2.1549,-2.1463,-2.1107,-2.0296,-2.0115,-1.9568,-1.8552,-1.839,-1.8003,-1.73,-1.6259,-1.5546,-1.5204,-1.4181,-1.3608,-1.3492,-1.3492,-1.3492,-2.0899,-2.1744,-2.2358,-2.2164,-2.159,-2.0617,0.0,-1.7893,-1.7101,-1.6009,-1.5799,-1.5784,-1.5726,-1.5709,-1.5927,0.0,-1.6637,-1.7074,-1.8595,-1.9182,-1.9902,0.0,0.0,0.0,0.0,0.0,0.0,0.0,0.0,0.0,0.0,-2.6499,-2.6499,-2.6499,-2.6499,-2.6499,-2.6499,-2.6499,-2.6211,-2.5629,-2.5418,-2.4731,-2.3644,-2.3224,-2.2988,-2.2958,0.0,0.0,0.0,-2.3274,-2.3405,-2.3494,-2.3774,-2.3981,-2.4135,-2.4394,-2.4414,-2.4321,-2.4456,-2.4497,-2.4497,-2.4497,-2.4333,-2.4022,-2.3753,-2.335,-2.2956,-2.2811,-2.2542,-2.2397,-2.2863,-2.2884,-2.278,-2.278,-2.278,-2.278,-2.278,-2.278,-2.278,-2.278,-2.2894,-2.2977,-2.2977,-2.3101,-2.308,-2.2749,-2.2977,-2.307,-2.2739,-2.2987,-2.306,-2.2739,-2.2408,-2.2097,-2.1828,-2.1807,-2.1662,-2.1342,-2.1186,-2.0702,-1.9793,-1.9618,-1.9138,-1.829,-1.7297,-1.6591,-1.6223,-1.5227,-1.4686,-1.4539,-1.4539,-1.4392,-1.9723,-2.0677,-2.1545,-2.0882,-2.0213,-1.9361,-1.8012,-1.7189,-1.6547,-1.5919,-1.5799,-1.5741,-1.5551,-1.5507,-1.5736,-1.649,-1.7046,-1.7728,-1.8662,-1.977,-2.0527,0.0,0.0,0.0,0.0,0.0,0.0,0.0,0.0,0.0,0.0,-2.6499,-2.6499,-2.6499,-2.6499,-2.6499,-2.6499,-2.6499,-2.6499,-2.6499,-2.5664,-2.5276,-2.5241,-2.3692,-2.3386,0.0,0.0,0.0,0.0,-2.3504,-2.321,-2.2604,-2.3525,-2.3598,-2.3308,-2.4166,-2.426,-2.395,-2.4342,-2.4497,-2.4497,-2.4497,-2.4497,-2.4321,-2.3463,-2.2873,-2.2408,-2.1952,-2.1818,-2.1921,-2.2387,-2.2159,-2.1818,-2.1818,-2.1818,-2.1818,-2.1818,-2.1818,-2.1818,-2.1818,-2.219,-2.2501,-2.2501,-2.2884,-2.3184,-2.3184,-2.3184,-2.3184,-2.3184,-2.3184,-2.3184,-2.3184,-2.3174,-2.2801,-2.188,-2.1807,-2.1807,-2.1797,-2.1373,-2.1003,-2.0781,-2.0343,-2.0109,-2.0063,-1.8947,-1.8461,-1.8662,-1.7516,-1.6963,-1.6963,-1.6963,-1.6501,-1.8932,-1.9474,-1.9639,-1.9606,-1.9448,-1.8963,-1.7654,-1.7197,-1.6803,-1.5962,-1.5799,-1.5755,-1.5595,-1.5536,-1.6005,-1.7525,0.0,0.0,0.0,0.0,0.0,-2.0527,0.0,0.0,0.0,0.0,0.0,0.0,0.0,0.0,0.0,-2.6499,-2.6499,-2.6499,-2.6499,-2.6499,-2.6499,-2.6499,-2.6499,-2.6499,-2.6245,-2.5851,-2.5264,-2.424,0.0,0.0,0.0,0.0,0.0,-2.3154,-2.2922,-2.2532,-2.2822,-2.3039,-2.3256,-2.3867,-2.4002,-2.395,-2.4342,-2.4497,-2.4497,-2.4497,-2.4084,-2.3567,-2.3277,-2.3091,-2.2801,-2.2025,-2.1807,-2.1838,-2.1983,-2.1911,-2.1807,-2.1807,-2.1807,-2.1807,-2.1807,-2.1807,-2.1807,-2.1807,-2.1921,-2.2025,-2.2025,-2.2149,-2.2242,-2.2242,-2.2511,-2.2718,-2.2718,-2.2987,-2.307,-2.2749,-2.2718,-2.2594,-2.2304,-2.2273,-2.2149,-2.1828,-2.1662,-2.1552,-2.1477,-2.123,-2.0893,-2.0577,-1.9464,-1.8761,-1.8507,-1.7496,-1.7009,-1.7009,-1.7009,-1.6957,0.0,-1.8391,-1.8677,-1.8742,-1.8639,-1.83,-1.7392,-1.708,-1.6785,-1.6087,-1.5955,-1.587,-1.561,-1.5536,-1.5948,-1.7286,-1.7429,0.0,0.0,0.0,0.0,-2.0502,0.0,0.0,0.0,0.0,0.0,0.0,0.0,0.0,0.0,-2.6059,-2.6172,-2.6172,-2.6386,-2.6499,-2.6499,-2.6499,-2.6499,-2.6499,-2.6499,-2.6245,-2.5746,-2.4933,0.0,0.0,0.0,0.0,0.0,-2.3863,-2.3564,-2.3096,-2.2981,-2.3023,-2.3195,-2.3701,-2.3805,-2.3701,-2.429,-2.4497,-2.4497,-2.4497,-2.3929,-2.3153,-2.2977,-2.2801,-2.2542,-2.1963,-2.1807,-2.1807,-2.1807,-2.1807,-2.1807,-2.1807,-2.1807,-2.1807,-2.1807,-2.1807,-2.1807,-2.1807,-2.1807,-2.1807,-2.1807,-2.1807,-2.1807,-2.1807,-2.2056,-2.2232,-2.2232,-2.2646,-2.2811,-2.2532,-2.2656,-2.276,-2.276,-2.2439,-2.219,-2.2076,-2.1901,-2.1731,-2.1578,-2.1464,-2.1217,-2.083,-2.008,-1.9564,-1.9334,-1.8674,-1.837,-1.837,-1.8026,-1.7967,0.0,-1.7296,-1.8231,-1.8007,-1.7721,-1.741,-1.7156,-1.6844,0.0,-1.6258,-1.6203,-1.6066,-1.5654,-1.5536,-1.5683,-1.6243,0.0,0.0,0.0,-1.9238,0.0,0.0,0.0,0.0,0.0,0.0,0.0,0.0,0.0,0.0,0.0,-2.5272,-2.5561,-2.5598,-2.6147,-2.6449,-2.6499,-2.6499,-2.6499,-2.6499,-2.6499,-2.6499,-2.6452,-2.5664,0.0,0.0,0.0,0.0,0.0,-2.5312,-2.4826,-2.4093,-2.3751,-2.3372,-2.3063,-2.3693,-2.3608,-2.3318,-2.423,-2.4509,-2.4487,-2.4425,-2.3877,-2.3091,-2.2594,-2.2149,-2.1807,-2.1807,-2.1807,-2.1807,-2.1807,-2.1807,-2.1807,-2.1807,-2.1807,-2.1807,-2.1807,-2.1807,-2.1807,-2.1807,-2.1807,-2.1807,-2.1807,-2.1807,-2.1807,-2.1807,-2.1807,-2.1807,-2.1807,-2.218,-2.2449,-2.2449,-2.2832,-2.3101,-2.3143,-2.2377,-2.2087,-2.2522,-2.2069,-2.1668,-2.1255,-2.1187,-2.1099,-2.0906,-2.0731,-2.0731,-2.0906,-2.0731,-2.0605,-2.0605,-1.9775,-1.9381,-1.4602,0.0,-1.5377,-1.538,-1.5848,-1.6239,0.0,-1.6467,-1.676,-1.6299,0.0,-1.6149,-1.6261,-1.58,-1.593,0.0,0.0,0.0,0.0,0.0,0.0,0.0,0.0,0.0,0.0,0.0,0.0,0.0,0.0,0.0,0.0,-2.4933,-2.5184,-2.5586,-2.5724,-2.6047,-2.6487,-2.6499,-2.6499,-2.6499,-2.6499,-2.6499,-2.6452,-2.5664,0.0,0.0,0.0,0.0,-2.5312,-2.5312,-2.4826,-2.4022,-2.3397,-2.3099,-2.3051,-2.3545,-2.3504,-2.3338,-2.4486,-2.4724,-2.4383,-2.3732,-2.336,-2.3039,-2.2211,-2.189,-2.1807,-2.1807,-2.1807,-2.1807,-2.1807,-2.1807,-2.1807,-2.1807,-2.1807,-2.1807,-2.1807,-2.1807,-2.1807,-2.1807,-2.1807,-2.1807,-2.1807,-2.1807,-2.1807,-2.1807,-2.1807,-2.1807,-2.1807,-2.1901,-2.1963,-2.1963,-2.2066,-2.2273,-2.2625,-2.278,-2.2824,-2.2726,-2.2347,-2.1983,-2.1659,-2.1231,-2.1022,-2.1138,-2.1089,-2.1089,-2.1138,-2.0945,-2.0819,-2.0819,-2.045,-2.0284,-1.3705,-1.4488,-1.5291,-1.5171,-1.5651,-1.6152,-1.6233,0.0,0.0,0.0,0.0,0.0,0.0,0.0,0.0,0.0,-1.7809,0.0,0.0,0.0,0.0,0.0,0.0,0.0,0.0,0.0,0.0,0.0,0.0,0.0,0.0,-2.4261,-2.4569,-2.4858,-2.5109,-2.5636,-2.6487,-2.6499,-2.6499,-2.6499,-2.6499,-2.6499,-2.6499,-2.606,-2.6094,0.0,0.0,0.0,-2.5851,-2.5851,-2.5581,-2.5099,-2.436,-2.4045,-2.4066,-2.4183,-2.3984,-2.382,-2.4713,-2.4658,-2.4126,-2.3412,-2.3039,-2.2739,-2.2025,-2.1807,-2.1807,-2.1807,-2.1807,-2.1807,-2.1807,-2.1807,-2.1807,-2.1807,-2.1807,-2.1807,-2.1807,-2.1807,-2.1807,-2.1807,-2.1807,-2.1807,-2.1807,-2.1807,-2.1807,-2.1807,-2.1807,-2.1807,-2.1807,-2.1807,-2.1807,-2.1807,-2.1807,-2.1955,-2.2342,-2.2885,-2.3103,-2.2798,-2.2705,-2.2492,-2.212,-2.1709,-2.1377,-2.1215,-2.1205,-2.1205,-2.1205,-2.0984,-2.0906,-2.0906,-2.0693,-2.0605,-1.306,-1.4635,-1.6122,-1.5704,-1.5987,-1.6485,-1.6776,0.0,0.0,0.0,0.0,0.0,0.0,-1.6277,0.0,0.0,0.0,0.0,0.0,0.0,0.0,0.0,0.0,0.0,0.0,0.0,0.0,0.0,0.0,0.0,0.0,-2.3572,-2.3904,-2.4004,-2.4456,-2.5184,-2.6235,-2.6323,-2.6411,-2.6499,-2.6499,-2.6499,-2.6499,-2.6499,-2.6499,0.0,0.0,0.0,-2.6499,-2.6499,-2.6499,-2.6418,-2.5629,-2.5312,-2.5254,-2.4982,-2.4637,-2.4375,-2.4854,-2.4539,-2.3826,-2.3408,-2.2931,-2.2408,-2.1942,-2.1807,-2.1807,-2.1807,-2.1807,-2.1807,-2.1807,-2.1807,-2.1828,-2.189,-2.1911,-2.1932,-2.2004,-2.2014,-2.1994,-2.1921,-2.1911,-2.189,-2.1818,-2.1807,-2.1807,-2.1807,-2.1807,-2.1807,-2.1807,-2.1807,-2.1807,-2.1807,-2.1807,-2.1886,-2.2132,-2.2742,-2.3,-2.2696,-2.3042,-2.3012,-2.2533,-2.2301,-2.1934,-2.1354,-2.1322,-2.1282,-2.1282,-2.1061,-2.0945,-2.0945,-2.0693,-2.0605,-1.2927,-1.4254,-1.5267,-1.4414,-1.5315,-1.6353,-1.6177,0.0,0.0,0.0,0.0,0.0,0.0,0.0,0.0,0.0,0.0,0.0,0.0,0.0,0.0,0.0,0.0,0.0,0.0,0.0,0.0,0.0,0.0,0.0,0.0,-2.3195,-2.3459,-2.3979,-2.4079,-2.4431,-2.5059,-2.5511,-2.5975,-2.6499,-2.6499,-2.6499,-2.6499,-2.6499,-2.6499,0.0,0.0,-2.6499,-2.6499,-2.6499,-2.6499,-2.6418,-2.5629,-2.5312,-2.5276,-2.5254,-2.4832,-2.4375,-2.4854,-2.4539,-2.3857,-2.3674,-2.3119,-2.2408,-2.1942,-2.1807,-2.1807,-2.1807,-2.1807,-2.1807,-2.1807,-2.1807,-2.1901,-2.2294,-2.2387,-2.2501,-2.2894,-2.2977,-2.2863,-2.247,-2.2387,-2.2263,-2.188,-2.1807,-2.1807,-2.1807,-2.1807,-2.1807,-2.1807,-2.1807,-2.1807,-2.1807,-2.1807,-2.1838,-2.1873,-2.2335,-2.2476,-2.2228,-2.2992,-2.3174,-2.2604,-2.2351,-2.2155,-2.2044,-2.1822,-2.1693,-2.1693,-2.1359,-2.1167,-2.1138,-2.077,-2.0605,-1.301,-1.4171,-1.5199,-1.4766,-1.5544,-1.6469,-1.6746,0.0,0.0,0.0,0.0,0.0,0.0,0.0,0.0,0.0,0.0,0.0,0.0,0.0,0.0,0.0,0.0,0.0,0.0,0.0,0.0,0.0,0.0,0.0,0.0,0.0,-2.3233,-2.3496,-2.3496,-2.3803,-2.4368,-2.4607,-2.5159,-2.6021,-2.6021,-2.6185,-2.6499,-2.6499,-2.6499,-2.6499,0.0,-2.6499,-2.6499,-2.6499,-2.6499,-2.6452,-2.6094,-2.5955,-2.5947,-2.6082,-2.5745,-2.5261,-2.5605,-2.4861,-2.3787,-2.3715,-2.299,-2.2164,-2.2391,-2.244,-2.2542,-2.2931,-2.2456,-2.1807,-2.1807,-2.1807,-2.1921,-2.2387,-2.2501,-2.2625,-2.3091,-2.3184,-2.3122,-2.2915,-2.2873,-2.2718,-2.2263,-2.218,-2.2097,-2.1849,-2.1807,-2.1807,-2.1807,-2.1807,-2.1807,-2.1807,-2.1807,-2.1769,-2.1655,-2.2154,-2.2565,-2.2683,-2.3196,-2.3329,-2.292,-2.2827,-2.264,-2.2383,-2.2007,-2.1807,-2.1807,-2.1397,-2.1205,-2.1205,-2.0809,-2.0605,-1.301,-1.3923,-1.4861,-1.5209,-1.5972,-1.6851,-1.7569,0.0,0.0,0.0,0.0,0.0,0.0,0.0,0.0,0.0,0.0,0.0,0.0,0.0,0.0,0.0,0.0,0.0,0.0,0.0,0.0,0.0,0.0,0.0,0.0,0.0,-2.3108,-2.3108,-2.3108,-2.3321,-2.3791,-2.3803,-2.4343,-2.541,-2.5536,-2.5824,-2.6298,-2.6436,-2.6499,-2.6499,-2.6499,-2.6499,-2.6499,-2.6499,-2.6499,-2.6499,-2.6499,-2.6575,-2.6696,-2.6773,-2.6536,-2.6209,-2.6383,-2.5354,-2.3962,-2.404,-2.3301,-2.2456,-2.3054,-2.325,-2.3386,-2.3938,-2.3254,-2.2317,-2.2138,-2.2063,-2.2171,-2.2561,-2.2656,-2.2811,-2.3381,-2.3505,-2.3474,-2.337,-2.3543,-2.3467,-2.2779,-2.2843,-2.2726,-2.2074,-2.1963,-2.1932,-2.1818,-2.1807,-2.1807,-2.1807,-2.1807,-2.1731,-2.1578,-2.2061,-2.248,-2.2842,-2.3227,-2.3433,-2.336,-2.3246,-2.3018,-2.2666,-2.2201,-2.1911,-2.1807,-2.1397,-2.1205,-2.1205,-2.0809,-2.0605,-1.2737,-1.3175,-1.3582,-1.4961,-1.637,0.0,-1.8274,-1.8078,0.0,0.0,0.0,0.0,0.0,0.0,0.0,0.0,0.0,0.0,0.0,0.0,0.0,0.0,0.0,0.0,0.0,0.0,0.0,0.0,0.0,0.0,0.0,0.0,0.0,-2.3108,-2.3108,-2.312,-2.3158,-2.3158,-2.3735,-2.485,-2.536,-2.5624,-2.5674,-2.6248,-2.6499,-2.6499,-2.6499,-2.6499,-2.6499,-2.6499,-2.6499,-2.6499,-2.6499,-2.6801,-2.7222,-2.6906,-2.6789,-2.6728,-2.6762,-2.5855,-2.476,-2.5075,-2.4635,-2.3938,-2.4011,-2.4011,-2.4047,-2.4084,-2.4011,-2.3793,-2.3102,-2.2927,-2.294,-2.3114,-2.3143,-2.3381,-2.4208,-2.4404,-2.428,-2.3908,-2.4497,-2.4651,-2.3366,-2.3823,-2.3917,-2.2629,-2.2449,-2.2294,-2.1859,-2.1807,-2.1807,-2.1807,-2.1807,-2.1807,-2.1769,-2.1838,-2.1869,-2.1901,-2.2739,-2.3412,-2.3815,-2.3412,-2.3174,-2.3143,-2.2687,-2.2232,-2.1807,-2.1397,-2.1205,-2.1205,-2.0809,-2.0605,-1.2846,-1.3424,-1.4029,-1.5043,0.0,0.0,0.0,0.0,0.0,0.0,0.0,0.0,0.0,0.0,0.0,0.0,0.0,0.0,0.0,0.0,0.0,0.0,0.0,0.0,0.0,0.0,0.0,0.0,0.0,0.0,0.0,0.0,0.0,-2.3108,-2.3108,-2.3108,-2.3108,-2.3108,-2.3321,-2.3747,-2.4343,-2.4782,-2.5121,-2.5335,-2.5611,-2.5925,-2.5925,-2.616,-2.6499,-2.6499,-2.6499,-2.6499,-2.6499,-2.6612,-2.6841,-2.7047,-2.6915,-2.668,-2.7013,-2.6215,-2.5122,-2.5266,-2.4743,-2.4192,-2.4707,-2.4862,-2.4969,-2.5429,-2.5569,-2.5288,-2.4022,-2.3968,-2.4311,-2.4637,-2.4571,-2.4607,-2.5167,-2.5306,-2.5252,-2.5123,-2.5774,-2.615,-2.5387,-2.5537,-2.529,-2.3939,-2.3498,-2.3058,-2.233,-2.1983,-2.1807,-2.1807,-2.1807,-2.1807,-2.1807,-2.1807,-2.1807,-2.1807,-2.2408,-2.2967,-2.3432,-2.3277,-2.3329,-2.3619,-2.3163,-2.2842,-2.2666,-2.2389,-2.2058,-2.1628,-2.1362,-2.1017,-1.2639,-1.3126,-1.3748,0.0,0.0,0.0,0.0,0.0,0.0,0.0,0.0,0.0,0.0,0.0,0.0,0.0,0.0,0.0,0.0,0.0,0.0,0.0,0.0,0.0,0.0,0.0,0.0,0.0,0.0,0.0,0.0,0.0,0.0,0.0,-2.3097,-2.3108,-2.3108,-2.3108,-2.3108,-2.3108,-2.3509,-2.4017,-2.4537,-2.4713,-2.4988,-2.536,-2.5523,-2.5824,-2.6235,-2.6411,-2.6499,-2.6499,-2.6499,-2.66,-2.6801,-2.7178,-2.7077,-2.6813,-2.719,-2.6588,-2.5676,-2.5676,-2.5288,-2.4957,-2.5523,-2.5676,-2.5769,-2.6349,-2.6612,-2.6494,-2.5385,-2.5224,-2.5448,-2.5804,-2.5758,-2.5698,-2.6135,-2.6193,-2.6193,-2.6193,-2.6935,-2.7371,-2.6783,-2.6925,-2.6614,-2.5077,-2.457,-2.4056,-2.3122,-2.2518,-2.2063,-2.1845,-2.1807,-2.1807,-2.1807,-2.1807,-2.1807,-2.1807,-2.2097,-2.248,-2.2946,-2.2967,-2.3122,-2.3432,-2.3132,-2.2904,-2.2749,-2.2561,-2.2309,-2.1998,-2.1779,-2.1461,-1.2033,-1.2008,-1.2373,0.0,0.0,0.0,0.0,0.0,0.0,0.0,0.0,0.0,0.0,0.0,0.0,0.0,0.0,0.0,0.0,0.0,0.0,0.0,0.0,0.0,0.0,0.0,0.0,0.0,0.0,0.0,0.0,0.0,0.0,0.0,-2.3103,-2.3083,-2.3083,-2.3095,-2.3095,-2.3095,-2.3108,-2.3409,-2.4004,-2.4525,-2.4775,-2.4813,-2.536,-2.5586,-2.5636,-2.6248,-2.6487,-2.6499,-2.6499,-2.6826,-2.7268,-2.7268,-2.7268,-2.7268,-2.7268,-2.6952,-2.6499,-2.6499,-2.6499,-2.6499,-2.6499,-2.6499,-2.6499,-2.6499,-2.6901,-2.7329,-2.7293,-2.6697,-2.6185,-2.6449,-2.6535,-2.6633,-2.7047,-2.711,-2.711,-2.711,-2.7891,-2.8211,-2.7273,-2.7891,-2.7854,-2.5912,-2.5635,-2.5268,-2.4246,-2.346,-2.2703,-2.1883,-2.1807,-2.1807,-2.1807,-2.1807,-2.1807,-2.1807,-2.1807,-2.2014,-2.248,-2.2501,-2.2501,-2.2501,-2.2501,-2.2273,-2.1818,-2.1589,-2.1747,-2.2186,-2.1998,-2.1919,-1.2089,-1.2831,0.0,-1.4765,0.0,0.0,0.0,0.0,0.0,0.0,0.0,0.0,0.0,0.0,0.0,0.0,0.0,0.0,0.0,0.0,0.0,0.0,0.0,0.0,0.0,0.0,0.0,0.0,0.0,0.0,0.0,0.0,0.0,0.0,-2.2166,-2.197,-2.197,-2.2359,-2.2531,-2.2531,-2.292,-2.3195,-2.3358,-2.3534,-2.3822,-2.4255,-2.4406,-2.4695,-2.5096,-2.5636,-2.6122,-2.6499,-2.6499,-2.66,-2.6738,-2.6738,-2.6738,-2.6738,-2.6738,-2.6637,-2.6499,-2.6499,-2.6499,-2.6499,-2.6499,-2.6763,-2.7065,-2.7065,-2.7444,-2.7946,-2.8335,-2.825,-2.8101,-2.8183,-2.8035,-2.7953,-2.8056,-2.8091,-2.8091,-2.8091,-2.8791,-2.9339,-2.9052,-2.9209,-2.8885,-2.7243,-2.6738,-2.5934,-2.4319,-2.346,-2.2927,-2.2665,-2.2138,-2.1807,-2.1807,-2.1807,-2.1807,-2.1807,-2.1807,-2.2014,-2.248,-2.2501,-2.2646,-2.2977,-2.2977,-2.2915,-2.278,-2.274,-2.2528,-2.2186,-2.2146,-2.1865,-1.2431,-1.3363,0.0,-1.5861,-1.7342,-1.8853,-2.016,0.0,0.0,0.0,0.0,0.0,0.0,0.0,0.0,0.0,0.0,0.0,0.0,0.0,0.0,0.0,0.0,0.0,0.0,0.0,0.0,0.0,0.0,0.0,0.0,0.0,0.0,0.0,-2.2231,-2.1953,-2.1493,-2.2048,-2.2341,-2.2309,-2.2619,-2.2895,-2.3108,-2.3108,-2.3296,-2.3665,-2.3904,-2.4305,-2.4825,-2.5385,-2.5799,-2.6172,-2.6411,-2.6499,-2.6499,-2.6499,-2.6499,-2.6499,-2.6499,-2.6499,-2.6499,-2.6499,-2.6499,-2.6499,-2.6499,-2.6725,-2.6989,-2.6989,-2.7507,-2.8185,-2.8511,-2.8938,-2.9277,-2.9277,-2.9118,-2.9,-2.9,-2.9,-2.9,-2.9,-2.9456,-2.9792,-2.9792,-2.9792,-2.9437,-2.8292,-2.7519,-2.6457,-2.4777,-2.4179,-2.3692,-2.3075,-2.2553,-2.2138,-2.1845,-2.1807,-2.1807,-2.1807,-2.1807,-2.1932,-2.2211,-2.2221,-2.2356,-2.2635,-2.2635,-2.2635,-2.2635,-2.2635,-2.2515,-2.2304,-2.2304,-2.2121,-1.2881,0.0,0.0,-1.6972,-1.8104,0.0,-2.1303,0.0,0.0,0.0,0.0,0.0,0.0,0.0,0.0,0.0,0.0,0.0,0.0,0.0,0.0,0.0,0.0,0.0,0.0,0.0,0.0,0.0,0.0,0.0,0.0,0.0,0.0,-2.2394,-2.2826,-2.2538,-2.1441,-2.2028,-2.2299,0.0,-2.2209,-2.2498,-2.2987,-2.3058,-2.3108,-2.3133,-2.369,-2.4243,-2.475,-2.5259,-2.5473,-2.5586,-2.6185,-2.6411,-2.6424,-2.6474,-2.6524,-2.6562,-2.6512,-2.6524,-2.6562,-2.6512,-2.6499,-2.6499,-2.6499,-2.6524,-2.6575,-2.6637,-2.7369,-2.8197,-2.8247,-2.9026,-2.9792,-2.9792,-2.9792,-2.9792,-2.9792,-2.9792,-2.9792,-2.9792,-2.9792,-2.9792,-2.9792,-2.9792,-2.9578,-2.8913,-2.7959,-2.6833,-2.5549,-2.5347,-2.4767,-2.3361,-2.3139,-2.2804,-2.2063,-2.1959,-2.1921,-2.1921,-2.1845,-2.1807,-2.1807,-2.1807,-2.1807,-2.1807,-2.1807,-2.1807,-2.1807,-2.1807,-2.2025,-2.2439,-2.2439,-2.2439,-1.2281,-1.3698,0.0,0.0,-1.8879,-2.0477,-2.1434,-2.1709,0.0,0.0,0.0,0.0,0.0,0.0,0.0,0.0,0.0,0.0,0.0,0.0,0.0,0.0,0.0,0.0,0.0,0.0,0.0,0.0,0.0,0.0,0.0,0.0,0.0,-2.2325,-2.2138,-2.1672,-2.095,-2.1498,-2.1615,0.0,-2.1579,-2.1788,-2.2027,-2.2766,-2.3108,-2.3108,-2.3233,-2.3622,-2.4192,-2.4305,-2.4594,-2.5046,-2.5573,-2.5787,-2.5837,-2.6336,-2.6763,-2.7077,-2.665,-2.6776,-2.7065,-2.6637,-2.6499,-2.6499,-2.6499,-2.6801,-2.7228,-2.7632,-2.8235,-2.8825,-2.9315,-2.9616,-2.9792,-2.9792,-2.9792,-2.9792,-2.9792,-2.9792,-2.9792,-2.9792,-2.9792,-2.9792,-2.9792,-2.9792,-2.9453,-2.8436,-2.7708,-2.7045,-2.6342,-2.5699,-2.5158,-2.4838,-2.424,-2.3793,-2.361,-2.3091,-2.274,-2.274,-2.2138,-2.1807,-2.1807,-2.1807,-2.1807,-2.1807,-2.1807,-2.1807,-2.1807,-2.1807,-2.1859,-2.1952,-2.1952,-2.1952,0.0,0.0,0.0,-1.7996,0.0,0.0,-2.1543,0.0,0.0,0.0,0.0,0.0,0.0,0.0,0.0,0.0,0.0,0.0,0.0,0.0,0.0,0.0,0.0,0.0,0.0,0.0,0.0,0.0,0.0,0.0,0.0,-2.3001,-2.2694,-2.2512,-2.2543,-2.2123,-2.1245,-2.1838,-2.2029,-2.1808,-2.1694,-2.1669,-2.1729,-2.2417,-2.2857,-2.3108,-2.3108,-2.3283,-2.3572,-2.3891,-2.4167,-2.4506,-2.5285,-2.5598,-2.5661,-2.6285,-2.6675,-2.6914,-2.6901,-2.6901,-2.6914,-2.6901,-2.6713,-2.6499,-2.6499,-2.67,-2.704,-2.7557,-2.8109,-2.8662,-2.9239,-2.9578,-2.9792,-2.9792,-2.9792,-2.9792,-2.9792,-2.9792,-2.9792,-2.9792,-2.9792,-2.9792,-2.9792,-2.9792,-2.9402,-2.8273,-2.7858,-2.7381,-2.66,-2.6129,-2.5746,-2.5347,-2.4933,-2.4528,-2.412,-2.3731,-2.3522,-2.3522,-2.2793,-2.2365,-2.2365,-2.1987,-2.1807,-2.1807,-2.1807,-2.1807,-2.1807,-2.1807,-2.1807,-2.1807,-2.1807,-2.1807,-1.3199,0.0,-1.6132,-1.8754,-2.0058,0.0,-2.1481,0.0,0.0,0.0,0.0,0.0,0.0,0.0,0.0,0.0,0.0,0.0,0.0,0.0,0.0,0.0,0.0,0.0,0.0,0.0,0.0,0.0,0.0,0.0,-2.3203,-2.3059,-2.2849,-2.2489,-2.2936,-2.2724,-2.1722,-2.2235,-2.2516,-2.2522,-2.1951,-2.1668,-2.1604,-2.1933,-2.2414,-2.297,-2.3058,-2.3108,-2.3145,-2.3653,-2.3853,-2.3941,-2.4933,-2.5372,-2.5523,-2.6135,-2.6461,-2.67,-2.7165,-2.7077,-2.6839,-2.7203,-2.7002,-2.6612,-2.6524,-2.6562,-2.6751,-2.7304,-2.7821,-2.8373,-2.89,-2.9428,-2.9792,-2.9792,-2.9792,-2.9792,-2.9792,-2.9792,-2.9792,-2.9792,-2.9792,-2.9792,-2.9792,-2.9792,-2.944,-2.8411,-2.8247,-2.7846,-2.6788,-2.6637,-2.6345,-2.5606,-2.5523,-2.5229,-2.4552,-2.4373,-2.4301,-2.4301,-2.3596,-2.3139,-2.3001,-2.2365,-2.1959,-2.1807,-2.1807,-2.1807,-2.1807,-2.1807,-2.1849,-2.1921,-2.1921,-2.1921,0.0,0.0,-1.6714,0.0,-1.9677,-2.0735,0.0,0.0,0.0,0.0,0.0,0.0,0.0,0.0,0.0,0.0,0.0,0.0,0.0,0.0,0.0,0.0,0.0,0.0,0.0,0.0,0.0,0.0,0.0,0.0,-2.1929,-2.1808,-2.1712,-2.1671,-2.1848,-2.1875,-2.1698,-2.18,-2.1945,-2.2161,-2.1564,-2.1256,-2.1166,-2.1243,-2.1678,-2.2418,-2.2895,-2.3108,-2.3108,-2.3195,-2.3221,-2.3283,-2.3954,-2.4506,-2.4983,-2.5523,-2.6339,-2.718,-2.7291,-2.7544,-2.7821,-2.7419,-2.7231,-2.7115,-2.6637,-2.6826,-2.7293,-2.7846,-2.8398,-2.8913,-2.9528,-2.9729,-2.9792,-2.9792,-2.9792,-2.9792,-2.9792,-2.9792,-2.9792,-2.9792,-2.9792,-2.9792,-2.9792,-2.9792,-2.9566,-2.8875,-2.8787,-2.8423,-2.7318,-2.7168,-2.6979,-2.6399,-2.6349,-2.6314,-2.6198,-2.5558,-2.5123,-2.5123,-2.4384,-2.3658,-2.3038,-2.2889,-2.2515,-2.1807,-2.1807,-2.1807,-2.1807,-2.1807,-2.2014,-2.2408,-2.2408,-2.2408,-1.2449,-1.4704,-1.6876,0.0,-1.8985,-1.9677,0.0,0.0,0.0,0.0,0.0,0.0,0.0,0.0,0.0,0.0,0.0,0.0,0.0,0.0,0.0,0.0,0.0,0.0,0.0,0.0,0.0,0.0,0.0,-2.1635,-2.1695,-2.1635,-2.1615,-2.1615,-2.1675,-2.1694,-2.1695,-2.2083,-2.2221,-2.2105,-2.2058,-2.1591,-2.0772,-2.1277,-2.1816,-2.2438,-2.2648,-2.2896,-2.3133,-2.3459,-2.3396,-2.3195,-2.4117,-2.4418,-2.4456,-2.5285,-2.5912,-2.6477,-2.7419,-2.7708,-2.7708,-2.8084,-2.7783,-2.7266,-2.7027,-2.7128,-2.7394,-2.7946,-2.8499,-2.9026,-2.9641,-2.9792,-2.9792,-2.9792,-2.9792,-2.9792,-2.9792,-2.9792,-2.9792,-2.9792,-2.9792,-2.9792,-2.9792,-2.9792,-2.9591,-2.8976,-2.8888,-2.8599,-2.7846,-2.7469,-2.7228,-2.6977,-2.6675,-2.6499,-2.6499,-2.6176,-2.5955,-2.5955,-2.5217,-2.4647,-2.4299,-2.3471,-2.2971,-2.2889,-2.2412,-2.219,-2.219,-2.2449,-2.2687,-2.2884,-2.2884,-2.2709,0.0,0.0,-1.5892,-1.756,-1.812,0.0,0.0,0.0,0.0,0.0,0.0,0.0,0.0,0.0,0.0,0.0,0.0,0.0,0.0,0.0,0.0,0.0,0.0,0.0,0.0,0.0,0.0,0.0,0.0,-2.1186,-2.1186,-2.1186,-2.1186,-2.1186,-2.1186,-2.1261,-2.144,-2.2283,-2.2409,-2.1894,-2.2326,-2.1837,-2.0575,-2.122,-2.1786,-2.2206,-2.2261,-2.2513,-2.2945,-2.354,-2.3496,-2.3208,-2.4199,-2.4356,-2.4117,-2.5059,-2.5485,-2.5837,-2.7519,-2.7833,-2.7657,-2.8612,-2.8285,-2.7469,-2.7318,-2.7381,-2.7582,-2.7996,-2.8612,-2.9252,-2.9679,-2.9792,-2.9792,-2.9792,-2.9792,-2.9792,-2.9792,-2.9792,-2.9792,-2.9792,-2.9792,-2.9792,-2.9792,-2.9792,-2.9641,-2.9214,-2.9151,-2.895,-2.8386,-2.7959,-2.7595,-2.7318,-2.6952,-2.665,-2.6499,-2.6499,-2.6499,-2.6499,-2.5955,-2.5523,-2.5312,-2.419,-2.3664,-2.3785,-2.3328,-2.2963,-2.2677,-2.3018,-2.3246,-2.336,-2.336,-2.3103,0.0,-1.236,0.0,-1.5833,0.0,0.0,0.0,0.0,0.0,0.0,0.0,0.0,0.0,0.0,0.0,0.0,0.0,0.0,0.0,0.0,0.0,0.0,0.0,0.0,0.0,0.0,0.0,0.0,0.0,-1.9813,-1.9813,-1.9813,-1.9813,-1.9813,-1.9813,-2.0109,-2.0748,-2.2059,-2.2204,-2.1246,-2.1852,-2.1623,-2.0687,-2.0738,-2.0977,-2.1379,-2.1623,-2.1974,-2.2397,-2.292,-2.3133,-2.3158,-2.3803,-2.4017,-2.4067,-2.4612,-2.5172,-2.5837,-2.7519,-2.8084,-2.816,-2.87,-2.8536,-2.7959,-2.7444,-2.7645,-2.8072,-2.8097,-2.89,-2.9754,-2.9779,-2.9792,-2.9792,-2.9792,-2.9792,-2.9792,-2.9792,-2.9792,-2.9792,-2.9792,-2.9792,-2.9792,-2.9792,-2.9792,-2.9779,-2.9754,-2.9741,-2.9541,-2.8925,-2.8825,-2.8448,-2.7394,-2.7291,-2.7065,-2.6537,-2.6499,-2.6499,-2.6499,-2.6452,-2.6094,-2.5347,-2.5241,-2.4838,-2.4082,-2.4488,-2.4178,-2.3153,-2.3174,-2.3412,-2.3836,-2.3836,-2.3826,0.0,0.0,0.0,-1.4838,0.0,0.0,0.0,0.0,0.0,0.0,0.0,0.0,0.0,0.0,0.0,0.0,0.0,0.0,0.0,0.0,0.0,0.0,0.0,0.0,0.0,0.0,0.0,0.0,0.0,0.0,-1.9708,-1.9708,-1.9708,-1.9708,-1.9708,-2.0019,-2.0688,-2.1186,-2.1491,-2.1664,-2.2222,-2.2028,-2.1155,-2.1468,-2.1298,-2.0784,-2.0901,-2.1578,-2.2649,-2.2971,-2.3382,-2.3826,-2.3947,-2.4004,-2.4017,-2.4217,-2.4644,-2.5335,-2.7005,-2.7808,-2.826,-2.9176,-2.8863,-2.8072,-2.7871,-2.7946,-2.8109,-2.8109,-2.8925,-2.9792,-2.9792,-2.9792,-2.9792,-2.9792,-2.9792,-2.9792,-2.9792,-2.9792,-2.9792,-2.9792,-2.9792,-2.9792,-2.9792,-2.9792,-2.9792,-2.9792,-2.9792,-2.9716,-2.9515,-2.9126,-2.8599,-2.7896,-2.7494,-2.709,-2.6549,-2.6499,-2.6499,-2.6499,-2.6499,-2.6383,-2.6094,-2.5558,-2.5326,-2.5322,-2.5333,-2.5106,-2.4753,-2.4475,-2.4641,-2.5101,-2.4545,-2.4062,-1.086,0.0,0.0,0.0,0.0,0.0,0.0,0.0,0.0,0.0,0.0,0.0,0.0,0.0,0.0,0.0,0.0,0.0,0.0,0.0,0.0,0.0,0.0,0.0,0.0,0.0,0.0,0.0,0.0,0.0,-1.9708,-1.9708,-1.9708,-1.9708,-1.9708,-1.9899,-2.0363,-2.0583,-2.0873,-2.123,-2.2054,-2.1945,-2.1087,-2.1612,-2.1396,-2.0562,-2.0511,-2.1262,-2.2526,-2.287,-2.3482,-2.4196,-2.4085,-2.4023,-2.4004,-2.4004,-2.423,-2.4782,-2.644,-2.7369,-2.8021,-2.9139,-2.8863,-2.8109,-2.8109,-2.8109,-2.8109,-2.8109,-2.8925,-2.9792,-2.9792,-2.9792,-2.9792,-2.9792,-2.9792,-2.9792,-2.9792,-2.9792,-2.9792,-2.9792,-2.9792,-2.9792,-2.9792,-2.9792,-2.9792,-2.9792,-2.9792,-2.9792,-2.9792,-2.9453,-2.9001,-2.8448,-2.7896,-2.7331,-2.6813,-2.66,-2.6499,-2.6499,-2.6499,-2.6499,-2.6499,-2.599,-2.5834,-2.6164,-2.615,-2.6271,-2.6448,-2.5665,-2.5317,-2.5348,-2.4775,-2.4122,0.0,0.0,0.0,0.0,0.0,0.0,0.0,0.0,0.0,0.0,0.0,0.0,0.0,0.0,0.0,0.0,0.0,0.0,0.0,0.0,0.0,0.0,0.0,0.0,0.0,0.0,0.0,0.0,0.0,-1.9708,-1.9708,-1.9708,-1.9708,-1.9708,-1.9708,-1.9708,-1.9708,-2.0348,-2.0433,-1.9942,-2.1236,-2.1364,-2.0468,-2.1087,-2.1166,-2.0724,-2.0587,-2.103,-2.1952,-2.2555,-2.3348,-2.4196,-2.4196,-2.4129,-2.4017,-2.4004,-2.4004,-2.423,-2.5921,-2.6851,-2.7469,-2.8549,-2.8561,-2.8109,-2.8109,-2.8097,-2.8084,-2.8097,-2.8913,-2.9779,-2.9792,-2.9792,-2.9792,-2.9792,-2.9792,-2.9792,-2.9792,-2.9792,-2.9792,-2.9792,-2.9792,-2.9792,-2.9792,-2.9792,-2.9792,-2.9792,-2.9792,-2.9792,-2.9792,-2.9792,-2.9566,-2.895,-2.8436,-2.7883,-2.7331,-2.6813,-2.6499,-2.6499,-2.6499,-2.6499,-2.6499,-2.6512,-2.6512,-2.6512,-2.7077,-2.7595,-2.8085,-2.6554,-2.5368,-2.4583,-2.454,-2.4132,-1.043,0.0,0.0,0.0,0.0,0.0,0.0,0.0,0.0,0.0,0.0,0.0,0.0,0.0,0.0,0.0,0.0,0.0,0.0,0.0,0.0,0.0,0.0,0.0,0.0,0.0,0.0,0.0,-1.9708,-1.9708,-1.9708,-1.9708,-1.9708,-1.9708,-1.9708,-1.9708,-1.9708,-1.9869,-2.0158,-2.0482,-2.0838,-2.1184,-2.1473,-2.1335,-2.1425,-2.167,-2.0959,-2.1232,-2.2178,-2.2158,-2.3106,-2.4548,-2.4289,-2.445,-2.4722,-2.4205,-2.4004,-2.423,-2.5921,-2.6851,-2.7532,-2.9063,-2.89,-2.8109,-2.8109,-2.7821,-2.7595,-2.7996,-2.8624,-2.9264,-2.9679,-2.9792,-2.9792,-2.9792,-2.9792,-2.9792,-2.9792,-2.9792,-2.9792,-2.9792,-2.9792,-2.9792,-2.9792,-2.9792,-2.9792,-2.9792,-2.9792,-2.9792,-2.9792,-2.9792,-2.9566,-2.895,-2.8436,-2.7883,-2.7331,-2.6813,-2.6499,-2.6499,-2.6499,-2.6499,-2.6499,-2.6876,-2.709,-2.709,-2.7996,-2.8226,-2.7746,-2.67,-2.6228,-2.6329,-2.5073,-2.4392,-1.1025,0.0,0.0,0.0,0.0,0.0,0.0,-1.4202,0.0,0.0,0.0,0.0,0.0,0.0,0.0,0.0,0.0,0.0,0.0,0.0,0.0,0.0,0.0,0.0,0.0,0.0,0.0,-1.9744,-1.9836,-1.9854,-1.9708,-1.9708,-1.9708,-1.9708,-1.9708,-1.9708,-1.9708,-1.9708,-1.9884,-2.0288,-2.0554,-2.0828,-2.1085,-2.1355,-2.1575,-2.1685,-2.1218,-2.1356,-2.1905,-2.1799,-2.2917,-2.4658,-2.4231,-2.4675,-2.5447,-2.455,-2.4196,-2.4399,-2.5777,-2.6615,-2.7311,-2.8925,-2.8825,-2.8109,-2.8109,-2.772,-2.7392,-2.767,-2.8323,-2.8963,-2.934,-2.9616,-2.9792,-2.9792,-2.9792,-2.9792,-2.9792,-2.9792,-2.9792,-2.9792,-2.9792,-2.9792,-2.9792,-2.9792,-2.9792,-2.9792,-2.9792,-2.9792,-2.9792,-2.9792,-2.9566,-2.895,-2.8436,-2.7883,-2.7331,-2.6813,-2.6499,-2.6499,-2.6499,-2.6499,-2.6499,-2.6801,-2.7077,-2.7316,-2.8134,-2.8172,-2.738,-2.6863,-2.6418,-2.6008,-2.4988,-2.4497,-1.1969,0.0,0.0,0.0,0.0,0.0,-1.4551,-1.4515,-1.4678,0.0,0.0,0.0,0.0,0.0,0.0,0.0,0.0,0.0,0.0,0.0,0.0,0.0,0.0,0.0,0.0,-2.0646,-2.0545,-1.98,-1.9997,-2.0015,-1.9726,-1.9708,-1.9708,-1.9708,-1.9708,-1.9708,-1.9708,-1.9708,-1.9708,-1.9708,-2.0303,-2.0374,-2.0025,-2.1236,-2.1635,-2.1366,-2.1437,-2.1482,-2.1474,-2.1504,-2.2724,-2.4602,-2.4162,-2.4898,-2.6083,-2.4979,-2.4543,-2.4659,-2.5593,-2.629,-2.6971,-2.8496,-2.8586,-2.8146,-2.8133,-2.7706,-2.7241,-2.7304,-2.8034,-2.88,-2.88,-2.9214,-2.9628,-2.9679,-2.9691,-2.9716,-2.9779,-2.9792,-2.9792,-2.9792,-2.9792,-2.9792,-2.9792,-2.9792,-2.9792,-2.9792,-2.9792,-2.9792,-2.9792,-2.9741,-2.9503,-2.895,-2.8386,-2.7821,-2.7318,-2.6813,-2.6499,-2.6499,-2.6499,-2.6499,-2.6499,-2.6549,-2.6851,-2.7369,-2.7898,-2.778,-2.711,-2.6987,-2.6133,-2.4497,-2.4497,-2.4497,0.0,0.0,0.0,0.0,0.0,0.0,-1.2889,-1.31,-1.3665,0.0,0.0,0.0,0.0,0.0,0.0,0.0,0.0,0.0,0.0,0.0,0.0,0.0,0.0,0.0,0.0,-2.1167,-2.0893,-2.0172,-1.9909,-1.9764,-1.9708,-1.9708,-1.9708,-1.9708,-1.9708,-1.9708,-1.9708,-1.9708,-1.9708,-1.9708,-1.9842,-2.0113,-2.057,-2.0945,-2.1572,-2.2382,-2.2082,-2.1955,-2.1945,-2.158,-2.2525,-2.4233,-2.4464,-2.5296,-2.6246,-2.5447,-2.4877,-2.4659,-2.571,-2.6458,-2.7224,-2.8839,-2.9041,-2.8545,-2.8388,-2.7642,-2.6876,-2.7226,-2.7758,-2.8273,-2.8273,-2.8348,-2.8549,-2.895,-2.9063,-2.9227,-2.9691,-2.9792,-2.9792,-2.9792,-2.9792,-2.9792,-2.9792,-2.9792,-2.9792,-2.9792,-2.9792,-2.9792,-2.9792,-2.939,-2.9013,-2.89,-2.8034,-2.7394,-2.7329,-2.6813,-2.6499,-2.6499,-2.6499,-2.6499,-2.6499,-2.6914,-2.7381,-2.7934,-2.8257,-2.8009,-2.711,-2.64,-2.5505,-2.4497,-2.4497,-2.4497,0.0,0.0,0.0,-1.4916,0.0,0.0,0.0,-1.3261,-1.3544,-1.4571,0.0,0.0,0.0,0.0,0.0,0.0,0.0,0.0,0.0,0.0,0.0,0.0,0.0,0.0,0.0,-2.1449,-2.1261,-2.0547,-2.0013,-1.9708,-1.9708,-1.9708,-1.9708,-1.9708,-1.9708,-1.9708,-1.9708,-1.9708,-1.9708,-1.9708,-1.9708,-1.9887,-2.0243,-2.0961,-2.1637,-2.2213,-2.2402,-2.2512,-2.2466,-2.1955,-2.2834,-2.4487,-2.4426,-2.4944,-2.5673,-2.5591,-2.5198,-2.4866,-2.555,-2.6367,-2.7318,-2.8638,-2.8908,-2.8654,-2.8448,-2.7566,-2.664,-2.6826,-2.7304,-2.7695,-2.7695,-2.7896,-2.8172,-2.8448,-2.8511,-2.8599,-2.8888,-2.9164,-2.9365,-2.9365,-2.9591,-2.9792,-2.9792,-2.9792,-2.9792,-2.9792,-2.9553,-2.9365,-2.9365,-2.8863,-2.8411,-2.8134,-2.7607,-2.7203,-2.6927,-2.665,-2.6499,-2.6499,-2.6499,-2.6499,-2.6499,-2.6763,-2.7291,-2.8084,-2.8079,-2.7739,-2.711,-2.6246,-2.5337,-2.4497,-2.4497,-2.4497,0.0,0.0,0.0,0.0,0.0,-1.5024,0.0,0.0,0.0,-1.4766,0.0,0.0,0.0,0.0,0.0,0.0,0.0,0.0,0.0,0.0,0.0,0.0,0.0,0.0,0.0,-2.1242,-2.1154,-2.0812,-1.994,-1.9491,-1.9693,-1.9708,-1.9708,-1.9708,-1.9708,-1.9708,-1.9708,-1.9708,-1.9708,-1.9708,-1.9708,-1.9708,-1.9753,-2.1081,-2.1695,-2.1749,-2.2657,-2.2979,-2.2867,-2.2443,-2.31,-2.4359,-2.4261,-2.4754,-2.5535,-2.5858,-2.563,-2.5195,-2.5458,-2.6245,-2.7255,-2.8219,-2.8659,-2.871,-2.8408,-2.7611,-2.676,-2.6679,-2.7009,-2.7316,-2.7188,-2.7457,-2.7821,-2.7921,-2.7946,-2.7971,-2.8084,-2.8499,-2.8888,-2.8888,-2.9402,-2.9792,-2.9792,-2.9792,-2.9754,-2.9641,-2.9189,-2.885,-2.875,-2.8285,-2.777,-2.7331,-2.7216,-2.6977,-2.6537,-2.6499,-2.6499,-2.6499,-2.6499,-2.6499,-2.6499,-2.66,-2.7115,-2.8084,-2.7773,-2.7506,-2.7354,-2.6483,-2.5505,-2.4497,-2.4497,-2.4497,0.0,0.0,0.0,0.0,-1.7455,0.0,0.0,0.0,-1.4118,-1.3562,0.0,0.0,0.0,0.0,0.0,0.0,0.0,0.0,0.0,0.0,0.0,0.0,0.0,0.0,0.0,0.0,-1.9783,-2.0732,-1.9244,-1.8699,-1.9651,-1.9708,-1.9708,-1.9708,-1.9708,-1.9708,-1.9708,-1.9708,-1.9708,-1.9708,-1.9708,-1.9708,-1.9753,-2.1081,-2.1695,-2.1769,-2.2978,-2.329,-2.2889,-2.2822,-2.2664,-2.258,-2.4123,-2.5772,-2.724,-2.6785,-2.6209,-2.5713,-2.5751,-2.6206,-2.6961,-2.8064,-2.869,-2.884,-2.8223,-2.7848,-2.761,-2.743,-2.7436,-2.7354,-2.6746,-2.6637,-2.6801,-2.7291,-2.7369,-2.7507,-2.7996,-2.8499,-2.8888,-2.8888,-2.9402,-2.9792,-2.9792,-2.9792,-2.9616,-2.9063,-2.8938,-2.8712,-2.826,-2.772,-2.7392,-2.7329,-2.6876,-2.6562,-2.6499,-2.6499,-2.6499,-2.6499,-2.6499,-2.6499,-2.6499,-2.6964,-2.7482,-2.8097,-2.7773,-2.7831,-2.8343,-2.7395,-2.6133,-2.4497,-2.4497,-2.4497,0.0,0.0,0.0,0.0,0.0,0.0,-1.4496,0.0,-1.3861,0.0,0.0,0.0,0.0,0.0,0.0,0.0,0.0,0.0,0.0,0.0,0.0,0.0,0.0,0.0,0.0,0.0,0.0,0.0,0.0,-1.8413,-1.9079,-1.9498,-1.9708,-1.9708,-1.9708,-1.9708,-1.9708,-1.9708,-1.9708,-1.9708,-1.9708,-1.9708,-1.9753,-2.1081,-2.1695,-2.1769,-2.3041,-2.3486,-2.3312,-2.3312,-2.34,-2.3676,-2.481,-2.5613,-2.6175,-2.698,-2.6893,-2.6311,-2.5923,-2.666,-2.7952,-2.9165,-2.9591,-2.9517,-2.892,-2.8578,-2.8352,-2.8274,-2.8163,-2.8019,-2.7736,-2.7384,-2.7126,-2.7357,-2.7138,-2.6901,-2.714,-2.7582,-2.7971,-2.7971,-2.8423,-2.8812,-2.8812,-2.9076,-2.9202,-2.8925,-2.8386,-2.7896,-2.7657,-2.7178,-2.6839,-2.6839,-2.6637,-2.6499,-2.6499,-2.6499,-2.6499,-2.6499,-2.6499,-2.6499,-2.6499,-2.6713,-2.7102,-2.762,-2.7816,-2.7922,-2.7981,-2.7937,-2.7273,-2.6008,-2.5474,-2.5263,-2.1152,0.0,0.0,0.0,0.0,0.0,0.0,0.0,0.0,0.0,0.0,0.0,0.0,0.0,0.0,0.0,0.0,0.0,0.0,0.0,0.0,0.0,0.0,0.0,0.0,0.0,0.0,0.0,0.0,0.0,-1.8659,-1.9151,-1.9513,-1.9693,-1.9708,-1.9708,-1.9708,-1.9708,-1.9708,-1.9708,-1.9708,-1.9813,-2.0004,-2.1171,-2.1799,-2.2024,-2.3131,-2.3595,-2.3595,-2.3595,-2.4014,-2.4694,-2.5556,-2.5803,-2.5862,-2.7186,-2.7301,-2.6705,-2.6224,-2.7102,-2.8682,-2.9792,-3.0191,-3.0108,-2.9698,-2.9404,-2.9202,-2.9125,-2.8998,-2.8826,-2.8634,-2.8051,-2.7517,-2.7517,-2.7007,-2.6499,-2.6499,-2.6927,-2.7281,-2.7281,-2.772,-2.8109,-2.8109,-2.8436,-2.8612,-2.8461,-2.7795,-2.7266,-2.7115,-2.6738,-2.6499,-2.6499,-2.6499,-2.6499,-2.6499,-2.6499,-2.6499,-2.6499,-2.6499,-2.6499,-2.6499,-2.6499,-2.6751,-2.7268,-2.7821,-2.8064,-2.7964,-2.8563,-2.8502,-2.781,-2.6442,-2.5777,0.0,0.0,0.0,-1.8927,0.0,0.0,0.0,0.0,-1.5544,0.0,0.0,0.0,0.0,0.0,0.0,0.0,0.0,0.0,0.0,0.0,0.0,0.0,0.0,0.0,0.0,0.0,0.0,0.0,0.0,0.0,-1.8585,-1.8732,-1.9031,-1.9678,-1.9708,-1.9708,-1.9708,-1.9708,-1.9708,-1.9708,-1.9708,-2.0034,-2.0688,-2.138,-2.2059,-2.2703,-2.3325,-2.3595,-2.3595,-2.3595,-2.4014,-2.4739,-2.6054,-2.6951,-2.7518,-2.7596,-2.7221,-2.6698,-2.6683,-2.7483,-2.8598,-2.9291,-2.9922,-3.0393,-3.0285,-3.0251,-3.0221,-3.0025,-2.9872,-2.9623,-2.8949,-2.8143,-2.7517,-2.7517,-2.7007,-2.6499,-2.6499,-2.6927,-2.7281,-2.7281,-2.772,-2.8109,-2.8109,-2.8122,-2.7946,-2.7419,-2.7306,-2.7128,-2.6587,-2.6499,-2.6499,-2.6499,-2.6499,-2.6499,-2.6499,-2.6499,-2.6499,-2.6499,-2.6499,-2.6499,-2.6499,-2.6499,-2.6751,-2.7268,-2.7821,-2.8336,-2.885,-2.9465,-2.9753,-2.9663,-2.7017,-2.5777,0.0,0.0,-2.1956,-1.9909,0.0,0.0,0.0,0.0,0.0,0.0,0.0,0.0,0.0,0.0,0.0,0.0,0.0,0.0,0.0,0.0,0.0,0.0,0.0,0.0,0.0,0.0,0.0,0.0,0.0,0.0,0.0,-1.9121,-1.9468,-1.9693,-1.9708,-1.9708,-1.9708,-1.9708,-1.9708,-1.9708,-1.9708,-2.0049,-2.0718,-2.1395,-2.2074,-2.2733,-2.3325,-2.3595,-2.3595,-2.3595,-2.4014,-2.4694,-2.56,-2.6348,-2.7051,-2.7925,-2.8139,-2.8021,-2.8477,-2.8876,-2.9387,-3.0485,-3.0953,-3.113,-3.1117,-3.1043,-3.0955,-3.0881,-3.0762,-3.0598,-3.0387,-2.9685,-2.903,-2.903,-2.8409,-2.7835,-2.7835,-2.7981,-2.808,-2.808,-2.7894,-2.7696,-2.7696,-2.7341,-2.7115,-2.7256,-2.7002,-2.6713,-2.6512,-2.6499,-2.6499,-2.6499,-2.6499,-2.6499,-2.6499,-2.6499,-2.6499,-2.6499,-2.6499,-2.6499,-2.6499,-2.6499,-2.6587,-2.6763,-2.7645,-2.8197,-2.8386,-2.9327,-2.9792,-2.9753,-2.8303,-2.7261,-2.2575,-2.2446,0.0,-2.039,-1.9292,0.0,-1.732,0.0,0.0,0.0,0.0,0.0,0.0,0.0,0.0,0.0,0.0,0.0,0.0,-1.2982,0.0,0.0,0.0,0.0,0.0,0.0,-1.4589,-1.6076,0.0,0.0,0.0,0.0,-1.9453,-1.9693,-1.9708,-1.9708,-1.9708,-1.9708,-1.9708,-1.9708,-1.9929,-2.0408,-2.1081,-2.1739,-2.2418,-2.3047,-2.343,-2.3595,-2.3595,-2.3595,-2.4148,-2.4993,-2.5427,-2.6153,-2.7061,-2.7944,-2.8233,-2.8368,-2.9292,-2.9606,-2.9804,-3.1077,-3.1511,-3.1511,-3.1511,-3.1438,-3.138,-3.138,-3.1263,-3.1161,-3.1161,-3.0493,-2.9808,-2.9808,-2.9111,-2.8492,-2.8492,-2.8492,-2.8492,-2.8492,-2.7953,-2.7517,-2.7517,-2.6939,-2.6612,-2.6964,-2.6725,-2.6499,-2.6499,-2.6499,-2.6499,-2.6499,-2.6499,-2.6499,-2.6499,-2.6499,-2.6499,-2.6499,-2.6499,-2.6499,-2.6499,-2.6499,-2.6499,-2.6499,-2.7544,-2.8109,-2.8109,-2.9239,-2.9792,-2.9792,-2.9209,-2.8462]},{"header":{"parameterUnit":"m.s-1","parameterCategory":1,"la1":30.6,"la2":29.2853,"lo1":-89.7004,"lo2":-87.6739,"dy":0.0162,"dx":0.0183,"nx":112,"ny":82,"refTime":"2025-03-09T06:00:00:Z","depth":0,"parameterNumber":3,"parameterNumberName":"V-component_of_WINDS"},"data":[0.0,0.0,0.0,0.0,0.0,0.0,0.0,0.0,0.0,0.0,0.0,0.0,0.0,0.0,0.0,0.0,0.0,0.0,0.0,0.0,0.0,0.0,0.0,0.0,0.0,0.0,0.0,0.0,0.0,0.0,0.0,0.0,0.0,0.0,0.0,0.0,0.0,0.0,0.0,0.0,0.0,0.0,0.0,0.0,0.0,0.0,0.0,0.0,0.0,0.0,0.0,0.0,0.0,0.0,0.0,0.0,0.0,0.0,0.0,0.0,0.0,0.0,0.0,0.0,0.0,0.0,0.0,0.0,0.0,0.0,0.0,0.0,0.0,0.0,0.0,0.0,0.0,0.0,0.0,0.0,0.0,0.0,0.0,0.0,0.0,0.0,0.0,0.0,0.0,0.0,-1.4615,-1.5175,-1.6942,-1.8101,-1.8101,-1.784,-1.657,-1.3953,0.0,0.0,0.0,0.0,0.0,0.0,0.0,0.0,0.0,0.0,0.0,0.0,0.0,0.0,0.0,0.0,0.0,0.0,0.0,0.0,0.0,0.0,0.0,0.0,0.0,0.0,0.0,0.0,0.0,0.0,0.0,0.0,0.0,0.0,0.0,0.0,0.0,0.0,0.0,0.0,0.0,0.0,0.0,0.0,0.0,0.0,0.0,0.0,0.0,0.0,0.0,0.0,0.0,0.0,0.0,0.0,0.0,0.0,0.0,0.0,0.0,0.0,0.0,0.0,0.0,0.0,0.0,0.0,0.0,0.0,0.0,0.0,0.0,0.0,0.0,0.0,0.0,0.0,0.0,0.0,0.0,0.0,0.0,0.0,0.0,0.0,0.0,0.0,0.0,0.0,0.0,0.0,0.0,0.0,0.0,0.0,0.0,0.0,0.0,0.0,0.0,0.0,0.0,0.0,-1.4855,-1.7324,-1.7893,-1.8101,-1.8101,-1.7501,-1.6169,-1.3951,0.0,0.0,0.0,0.0,0.0,0.0,0.0,0.0,0.0,0.0,0.0,0.0,0.0,0.0,0.0,0.0,0.0,0.0,0.0,0.0,0.0,0.0,0.0,0.0,0.0,0.0,0.0,0.0,0.0,0.0,0.0,0.0,0.0,0.0,0.0,0.0,0.0,0.0,0.0,0.0,0.0,0.0,0.0,0.0,0.0,0.0,0.0,0.0,0.0,0.0,0.0,0.0,0.0,0.0,0.0,0.0,0.0,0.0,0.0,0.0,0.0,0.0,0.0,0.0,0.0,0.0,0.0,0.0,0.0,0.0,0.0,0.0,0.0,0.0,0.0,0.0,0.0,0.0,0.0,0.0,0.0,0.0,0.0,0.0,0.0,0.0,0.0,0.0,0.0,0.0,0.0,0.0,0.0,0.0,0.0,0.0,0.0,0.0,0.0,0.0,0.0,0.0,0.0,-1.4274,-1.5442,-1.8041,-1.841,-1.8479,-1.8479,-1.8066,-1.6702,-1.4125,-1.3753,0.0,0.0,0.0,0.0,0.0,0.0,0.0,0.0,0.0,0.0,0.0,0.0,0.0,0.0,0.0,0.0,0.0,0.0,0.0,0.0,0.0,0.0,0.0,0.0,0.0,0.0,0.0,0.0,0.0,0.0,0.0,0.0,0.0,0.0,0.0,0.0,0.0,0.0,0.0,0.0,0.0,0.0,0.0,0.0,0.0,0.0,0.0,0.0,0.0,0.0,0.0,0.0,0.0,0.0,0.0,0.0,0.0,0.0,0.0,0.0,0.0,0.0,0.0,0.0,0.0,0.0,0.0,0.0,0.0,0.0,0.0,0.0,0.0,0.0,0.0,0.0,0.0,0.0,0.0,0.0,0.0,0.0,0.0,0.0,0.0,0.0,0.0,0.0,0.0,0.0,0.0,0.0,0.0,0.0,0.0,0.0,0.0,0.0,0.0,0.0,0.0,0.0,-1.5796,-1.6579,-1.8387,-1.8714,-1.8797,-1.8797,-1.8312,-1.6897,-1.4278,-1.3595,0.0,0.0,0.0,0.0,0.0,0.0,0.0,0.0,0.0,0.0,0.0,0.0,0.0,0.0,0.0,0.0,0.0,0.0,0.0,0.0,0.0,0.0,0.0,0.0,0.0,0.0,0.0,0.0,0.0,0.0,0.0,0.0,0.0,0.0,0.0,0.0,0.0,0.0,0.0,0.0,0.0,0.0,0.0,0.0,0.0,0.0,0.0,0.0,0.0,0.0,0.0,0.0,0.0,0.0,0.0,0.0,0.0,0.0,0.0,0.0,0.0,0.0,0.0,0.0,0.0,0.0,0.0,0.0,0.0,0.0,0.0,0.0,0.0,0.0,0.0,0.0,0.0,0.0,0.0,0.0,0.0,0.0,0.0,0.0,0.0,0.0,0.0,0.0,0.0,0.0,0.0,0.0,0.0,0.0,0.0,0.0,0.0,0.0,0.0,0.0,0.0,0.0,-1.6748,-1.86,-1.8761,-1.8788,-1.8797,-1.8797,-1.7415,-1.5847,-1.4196,-1.2674,0.0,0.0,0.0,0.0,0.0,0.0,0.0,0.0,0.0,0.0,0.0,0.0,0.0,0.0,0.0,0.0,0.0,0.0,0.0,0.0,0.0,0.0,0.0,0.0,0.0,0.0,0.0,0.0,0.0,0.0,0.0,0.0,0.0,0.0,0.0,0.0,0.0,0.0,0.0,0.0,0.0,0.0,0.0,0.0,0.0,0.0,0.0,0.0,0.0,0.0,0.0,0.0,0.0,0.0,0.0,0.0,0.0,0.0,0.0,0.0,0.0,0.0,0.0,0.0,0.0,0.0,0.0,0.0,0.0,0.0,0.0,0.0,0.0,0.0,0.0,0.0,0.0,0.0,0.0,0.0,0.0,0.0,0.0,0.0,0.0,0.0,0.0,0.0,0.0,0.0,0.0,0.0,0.0,0.0,0.0,0.0,0.0,0.0,0.0,0.0,0.0,0.0,-1.5961,-1.7691,0.0,-1.8797,-1.8797,-1.8797,-1.8244,-1.6817,-1.4267,0.0,0.0,0.0,0.0,0.0,0.0,0.0,0.0,0.0,0.0,0.0,0.0,0.0,0.0,0.0,0.0,0.0,0.0,0.0,0.0,0.0,0.0,0.0,0.0,0.0,0.0,0.0,0.0,0.0,0.0,0.0,0.0,0.0,0.0,0.0,0.0,0.0,0.0,0.0,0.0,0.0,0.0,0.0,0.0,0.0,0.0,0.0,0.0,0.0,0.0,0.0,0.0,0.0,0.0,0.0,0.0,0.0,0.0,0.0,0.0,0.0,0.0,0.0,0.0,0.0,0.0,0.0,0.0,0.0,0.0,0.0,0.0,0.0,0.0,0.0,0.0,0.0,0.0,0.0,0.0,0.0,0.0,0.0,0.0,0.0,0.0,0.0,0.0,0.0,0.0,0.0,0.0,0.0,0.0,0.0,0.0,0.0,0.0,0.0,0.0,0.0,0.0,-1.3964,-1.589,-1.7584,0.0,-1.8797,-1.8797,-1.8797,-1.8119,-1.6657,-1.4249,0.0,0.0,0.0,0.0,0.0,0.0,0.0,0.0,0.0,0.0,0.0,0.0,0.0,0.0,0.0,0.0,0.0,0.0,0.0,0.0,0.0,0.0,0.0,0.0,0.0,0.0,0.0,0.0,0.0,0.0,0.0,0.0,0.0,0.0,0.0,0.0,0.0,0.0,0.0,0.0,0.0,0.0,0.0,0.0,0.0,0.0,0.0,0.0,0.0,0.0,0.0,0.0,0.0,0.0,0.0,0.0,0.0,0.0,0.0,0.0,0.0,0.0,0.0,0.0,0.0,0.0,0.0,0.0,0.0,0.0,0.0,0.0,0.0,0.0,0.0,0.0,0.0,0.0,0.0,0.0,0.0,0.0,0.0,0.0,0.0,0.0,0.0,0.0,0.0,0.0,0.0,0.0,0.0,0.0,0.0,0.0,0.0,0.0,0.0,0.0,0.0,0.0,-1.4107,-1.6853,-1.8797,-1.8797,-1.8797,-1.8797,-1.8797,-1.6665,-1.497,0.0,0.0,0.0,0.0,0.0,0.0,0.0,0.0,0.0,0.0,0.0,0.0,0.0,0.0,0.0,0.0,0.0,0.0,0.0,0.0,0.0,0.0,0.0,0.0,0.0,0.0,0.0,0.0,0.0,0.0,0.0,0.0,0.0,0.0,0.0,0.0,0.0,0.0,0.0,0.0,0.0,0.0,0.0,0.0,0.0,0.0,0.0,0.0,0.0,0.0,0.0,0.0,0.0,0.0,0.0,0.0,0.0,0.0,0.0,0.0,0.0,0.0,0.0,0.0,0.0,0.0,0.0,0.0,0.0,0.0,0.0,0.0,0.0,0.0,0.0,0.0,0.0,0.0,0.0,0.0,0.0,0.0,0.0,0.0,0.0,0.0,0.0,0.0,0.0,0.0,0.0,0.0,0.0,0.0,0.0,0.0,0.0,0.0,0.0,0.0,0.0,0.0,0.0,-1.4863,-1.7192,-1.8797,-1.8797,-1.8797,-1.8797,-1.8797,-1.7646,-1.612,-1.4214,0.0,0.0,0.0,0.0,0.0,0.0,0.0,0.0,0.0,0.0,0.0,0.0,0.0,0.0,0.0,0.0,0.0,0.0,0.0,0.0,0.0,0.0,0.0,0.0,0.0,0.0,0.0,0.0,0.0,0.0,0.0,0.0,0.0,0.0,0.0,0.0,0.0,0.0,0.0,0.0,0.0,0.0,0.0,0.0,0.0,0.0,0.0,0.0,0.0,0.0,0.0,0.0,0.0,0.0,0.0,0.0,0.0,0.0,0.0,0.0,0.0,0.0,0.0,0.0,0.0,0.0,0.0,0.0,0.0,0.0,0.0,0.0,0.0,0.0,0.0,0.0,0.0,0.0,0.0,0.0,0.0,0.0,0.0,0.0,0.0,0.0,0.0,0.0,0.0,0.0,0.0,0.0,0.0,0.0,0.0,0.0,0.0,0.0,0.0,0.0,0.0,0.0,-1.5209,-1.7361,-1.8797,-1.8797,-1.8797,-1.8797,-1.8797,-1.8057,-1.6602,-1.4249,0.0,0.0,0.0,0.0,0.0,0.0,0.0,0.0,0.0,0.0,0.0,0.0,0.0,0.0,0.0,0.0,0.0,0.0,0.0,0.0,0.0,0.0,0.0,0.0,0.0,0.0,0.0,0.0,0.0,0.0,0.0,0.0,0.0,0.0,0.0,0.0,0.0,0.0,0.0,0.0,0.0,0.0,0.0,0.0,0.0,0.0,0.0,0.0,0.0,0.0,0.0,0.0,0.0,0.0,0.0,0.0,0.0,0.0,0.0,0.0,0.0,0.0,0.0,0.0,0.0,0.0,0.0,0.0,0.0,0.0,0.0,0.0,0.0,0.0,0.0,0.0,0.0,0.0,0.0,0.0,0.0,0.0,0.0,0.0,0.0,0.0,0.0,0.0,0.0,0.0,0.0,0.0,0.0,0.0,0.0,0.0,0.0,0.0,0.0,0.0,0.0,0.0,-1.5291,-1.7388,-1.8797,-1.8797,-1.8797,-1.8797,-1.8797,-1.8057,-1.6637,-1.4356,0.0,0.0,0.0,0.0,0.0,0.0,0.0,0.0,0.0,0.0,0.0,0.0,0.0,0.0,0.0,0.0,0.0,0.0,0.0,0.0,0.0,0.0,0.0,0.0,0.0,0.0,0.0,0.0,0.0,0.0,0.0,0.0,0.0,0.0,0.0,0.0,0.0,0.0,0.0,0.0,0.0,0.0,0.0,0.0,0.0,0.0,0.0,0.0,0.0,0.0,0.0,0.0,0.0,0.0,0.0,0.0,0.0,0.0,0.0,0.0,-1.4747,0.0,0.0,0.0,0.0,0.0,0.0,0.0,0.0,0.0,0.0,0.0,0.0,0.0,0.0,0.0,0.0,0.0,0.0,0.0,0.0,0.0,0.0,0.0,0.0,0.0,0.0,0.0,0.0,0.0,0.0,0.0,0.0,0.0,0.0,0.0,0.0,0.0,0.0,0.0,0.0,0.0,-1.5987,-1.7709,-1.8797,-1.8797,-1.8797,-1.8797,-1.8797,-1.8057,-1.6869,-1.5148,-1.369,0.0,0.0,0.0,0.0,0.0,0.0,0.0,0.0,0.0,0.0,0.0,0.0,0.0,0.0,0.0,0.0,0.0,0.0,0.0,0.0,0.0,0.0,0.0,0.0,0.0,0.0,0.0,0.0,0.0,0.0,0.0,0.0,0.0,0.0,0.0,0.0,0.0,0.0,0.0,0.0,0.0,0.0,0.0,0.0,0.0,0.0,0.0,0.0,0.0,0.0,0.0,0.0,0.0,0.0,0.0,0.0,0.0,0.0,0.0,0.0,-1.6648,0.0,0.0,0.0,0.0,0.0,0.0,0.0,0.0,0.0,0.0,0.0,0.0,0.0,0.0,0.0,0.0,0.0,0.0,0.0,0.0,0.0,0.0,0.0,0.0,0.0,0.0,0.0,0.0,0.0,0.0,0.0,0.0,0.0,0.0,0.0,0.0,0.0,0.0,0.0,0.0,-1.7263,-1.8619,-1.9663,-2.0394,-2.0144,-1.976,-1.9413,-1.8985,-1.7923,-1.5951,-1.4713,0.0,0.0,0.0,0.0,0.0,0.0,0.0,0.0,0.0,0.0,0.0,0.0,0.0,0.0,0.0,0.0,0.0,0.0,0.0,0.0,0.0,0.0,0.0,0.0,0.0,0.0,0.0,0.0,0.0,0.0,0.0,0.0,0.0,0.0,0.0,0.0,0.0,0.0,0.0,0.0,0.0,0.0,0.0,0.0,0.0,0.0,0.0,0.0,0.0,0.0,0.0,0.0,0.0,-2.0105,-2.1092,-2.2322,-2.2039,-2.2397,-2.3076,-2.0136,-1.9406,-2.0178,0.0,0.0,0.0,0.0,0.0,0.0,0.0,0.0,0.0,0.0,0.0,0.0,0.0,0.0,0.0,0.0,0.0,0.0,0.0,0.0,0.0,0.0,0.0,0.0,0.0,-2.1108,-2.0075,0.0,0.0,0.0,0.0,0.0,0.0,0.0,0.0,0.0,0.0,0.0,0.0,-1.8619,-1.9823,-2.0886,-2.2153,-2.1697,-2.1001,-2.0251,-2.0073,-1.9092,-1.6951,-1.5987,-1.4845,0.0,0.0,0.0,0.0,0.0,0.0,0.0,0.0,0.0,0.0,0.0,0.0,0.0,0.0,0.0,0.0,0.0,0.0,0.0,0.0,0.0,0.0,0.0,0.0,0.0,0.0,0.0,0.0,0.0,0.0,0.0,0.0,-1.0634,-1.1478,0.0,0.0,0.0,0.0,0.0,0.0,0.0,0.0,0.0,0.0,0.0,0.0,0.0,-1.9788,-2.0413,-2.2026,-2.305,-2.3438,-2.3894,-2.4236,-2.4485,-2.4382,-2.4289,-2.4196,-2.3961,0.0,-2.2831,-2.0853,0.0,0.0,0.0,0.0,0.0,0.0,0.0,0.0,0.0,0.0,0.0,0.0,0.0,0.0,0.0,0.0,0.0,0.0,0.0,0.0,0.0,0.0,-2.3648,-2.3228,-2.3127,-2.2765,0.0,-1.8839,-1.6518,-1.5904,-1.472,0.0,0.0,0.0,0.0,0.0,0.0,0.0,-1.952,-2.109,-2.2064,-2.2278,-2.2207,-2.1832,-2.1019,-2.0376,-1.9573,-1.8547,-1.7075,-1.5862,-1.5024,-1.344,0.0,0.0,0.0,0.0,0.0,0.0,0.0,0.0,0.0,0.0,0.0,0.0,0.0,0.0,0.0,0.0,0.0,0.0,0.0,0.0,0.0,0.0,0.0,0.0,0.0,0.0,0.0,0.0,0.0,-1.0799,-1.2406,-1.3142,-1.3242,-1.3269,0.0,0.0,0.0,0.0,0.0,0.0,0.0,0.0,0.0,-1.9145,-2.094,-2.1998,-2.219,-2.3473,-2.4381,-2.5001,-2.5132,-2.5445,-2.5902,-2.5695,-2.5629,-2.5694,-2.5806,-2.5756,-2.5418,-2.3162,-2.2189,-2.1951,0.0,0.0,0.0,0.0,-2.0889,-2.1337,-2.2373,-2.2251,0.0,0.0,0.0,0.0,0.0,0.0,0.0,0.0,0.0,0.0,0.0,0.0,0.0,-2.5671,-2.5526,-2.5213,-2.5309,-2.3287,-2.0825,0.0,-1.7513,-1.6211,-1.4535,0.0,0.0,0.0,0.0,-1.8101,-2.094,-2.1886,-2.2653,-2.3552,-2.3642,-2.3142,-2.1875,-2.1893,-2.124,-1.9591,-1.8387,-1.7397,-1.662,-1.5077,-1.3746,0.0,0.0,0.0,0.0,0.0,0.0,0.0,0.0,0.0,0.0,0.0,0.0,0.0,0.0,0.0,0.0,0.0,0.0,0.0,0.0,0.0,0.0,0.0,0.0,0.0,0.0,0.0,0.0,-1.2605,-1.3946,-1.4675,-1.5079,-1.5228,0.0,0.0,0.0,0.0,0.0,0.0,-1.9707,-2.0415,-2.1052,-2.1752,-2.302,-2.3695,-2.3735,-2.4494,-2.5192,-2.5878,-2.5731,-2.6034,-2.6708,-2.6547,-2.6629,-2.6859,-2.706,-2.7283,-2.7333,-2.5094,-2.411,-2.3896,-2.3016,-2.2726,-2.2846,-2.3139,-2.3366,-2.3758,-2.5224,-2.5363,-2.4871,-2.4684,0.0,-2.2521,-2.023,0.0,0.0,0.0,0.0,-2.2807,-2.5073,-2.5401,-2.5587,-2.7302,-2.732,-2.7046,-2.743,-2.6387,-2.4588,0.0,-2.0449,-1.898,-1.7121,0.0,0.0,0.0,0.0,-1.9494,-2.225,-2.2796,-2.3356,-2.4569,-2.4694,-2.4153,-2.2754,-2.2975,-2.2464,-2.0728,-1.9672,-1.8842,-1.8244,-1.6725,-1.5578,-1.4827,0.0,0.0,0.0,0.0,0.0,0.0,0.0,0.0,0.0,0.0,0.0,0.0,0.0,0.0,0.0,0.0,0.0,0.0,0.0,0.0,0.0,0.0,0.0,0.0,0.0,0.0,0.0,0.0,0.0,-1.6204,-1.7474,0.0,0.0,0.0,0.0,-1.9651,-1.9527,-2.0153,-2.1939,-2.2478,-2.3089,-2.3834,-2.4613,-2.5325,-2.602,-2.6071,-2.6281,-2.664,-2.6331,-2.6349,-2.6725,-2.7082,-2.7251,-2.7302,-2.8016,-2.8315,-2.8187,-2.6303,-2.5203,-2.4648,-2.3577,-2.3364,-2.3767,-2.4849,-2.5731,-2.6572,-2.7777,-2.8182,-2.8049,-2.7354,-2.5798,-2.4184,-2.4017,-2.3183,0.0,0.0,-2.3886,-2.4073,-2.6095,-2.6521,-2.663,-2.749,-2.7901,-2.7932,-2.7197,-2.6952,-2.6631,0.0,-2.3424,-2.1481,-2.0914,0.0,-1.9752,-1.9752,-2.043,-2.1536,-2.322,-2.4123,-2.4605,-2.4694,-2.4694,-2.4379,-2.3603,-2.28,-2.2336,-2.2292,-2.0809,-1.9914,-1.9872,-1.8395,-1.7237,-1.6494,-1.4893,0.0,0.0,0.0,0.0,0.0,0.0,0.0,0.0,0.0,0.0,0.0,0.0,0.0,0.0,0.0,0.0,0.0,0.0,0.0,0.0,0.0,0.0,0.0,0.0,0.0,0.0,0.0,0.0,-1.8961,-1.9608,0.0,-2.0238,-2.0271,-2.0711,-2.1795,-2.179,-2.2408,-2.398,-2.4215,-2.4663,-2.5391,-2.5656,-2.5921,-2.6202,-2.6667,-2.6955,-2.7083,-2.7454,-2.767,-2.7801,-2.7935,-2.8011,-2.8011,-2.8293,-2.8392,-2.8362,-2.7679,-2.7287,-2.7091,-2.6698,-2.6616,-2.677,-2.7182,-2.7513,-2.7829,-2.8248,-2.8392,-2.8359,-2.8078,-2.7205,-2.6365,-2.7061,-2.6657,-2.621,-2.733,-2.769,-2.7863,-2.8372,-2.8619,-2.8765,-2.8789,-2.9084,-2.92,-2.8669,-2.8386,-2.8141,-2.7783,-2.5749,-2.3853,-2.321,-2.2882,-2.2529,-2.2007,-2.2342,-2.3041,-2.4129,-2.4058,-2.3933,-2.3933,-2.4391,-2.4373,-2.3611,-2.3724,-2.3426,-2.2453,-2.1384,-2.056,-2.0081,-1.904,-1.8122,-1.7389,-1.629,-1.4585,0.0,0.0,0.0,0.0,0.0,0.0,0.0,0.0,0.0,0.0,0.0,0.0,0.0,0.0,0.0,0.0,0.0,0.0,0.0,0.0,0.0,0.0,0.0,0.0,0.0,0.0,-1.9048,-2.0519,-2.1365,-2.1912,-2.216,-2.2409,-2.2841,-2.3586,-2.3636,-2.4183,-2.5408,-2.5457,-2.5822,-2.6551,-2.6568,-2.6684,-2.6949,-2.7431,-2.7663,-2.768,-2.816,-2.8392,-2.8409,-2.8641,-2.8738,-2.8757,-2.8986,-2.9102,-2.9102,-2.9102,-2.9102,-2.9052,-2.8591,-2.8392,-2.8426,-2.8658,-2.8738,-2.8754,-2.9019,-2.8936,-2.8738,-2.8738,-2.826,-2.7802,-2.8533,-2.8424,-2.8226,-2.8934,-2.9299,-2.9437,-2.9334,-2.9557,-2.9791,-2.9641,-2.9888,-3.0098,-2.9822,-2.9597,-2.943,-2.9384,-2.7397,-2.5581,-2.5209,-2.4922,-2.4569,-2.4028,-2.4135,-2.4379,-2.4659,-2.4219,-2.3808,-2.3523,-2.3969,-2.4088,-2.3582,-2.3998,-2.3879,-2.2873,-2.1795,-2.0992,-2.0532,-1.9489,-1.8705,-1.8241,-1.7183,-1.5738,-1.3895,0.0,0.0,0.0,0.0,0.0,0.0,0.0,0.0,0.0,0.0,0.0,0.0,0.0,0.0,0.0,0.0,0.0,0.0,0.0,0.0,0.0,0.0,0.0,-1.6636,-1.8978,-2.0785,-2.0834,-2.2725,-2.3768,-2.3073,-2.3653,-2.4365,-2.5094,-2.5143,-2.5458,-2.6152,-2.6219,-2.6568,-2.7265,-2.7315,-2.768,-2.8392,-2.8426,-2.8426,-2.8426,-2.8459,-2.8459,-2.8492,-2.9135,-2.9446,-2.9496,-3.0208,-3.0555,-3.0572,-3.0572,-3.0572,-3.0423,-2.9022,-2.8459,-2.8542,-2.9201,-2.943,-2.9529,-3.0241,-3.0026,-2.943,-2.9446,-2.9036,-2.8508,-2.8544,-2.8544,-2.8511,-2.855,-2.8533,-2.8596,-2.8921,-2.928,-2.9643,-2.9941,-3.0276,-3.0523,-3.049,-3.052,-3.0517,-3.0484,-2.8399,-2.6715,-2.7001,-2.6394,-2.5847,-2.5821,-2.5829,0.0,-2.4843,-2.4736,-2.4427,-2.3612,-2.3541,-2.3546,-2.3585,-2.3539,-2.3528,-2.356,-2.2082,-2.1225,-2.1303,-1.9849,-1.9072,-1.915,-1.7527,-1.6323,-1.5542,0.0,0.0,0.0,0.0,0.0,0.0,0.0,0.0,0.0,0.0,0.0,0.0,0.0,0.0,0.0,0.0,0.0,0.0,0.0,0.0,0.0,0.0,-1.9147,-1.9459,-2.1116,-2.2692,-2.3768,-2.4431,-2.4928,-2.5259,-2.5491,-2.5672,-2.5871,-2.5887,-2.6005,-2.6185,-2.67,-2.71,-2.7282,-2.7812,-2.8194,-2.8392,-2.887,-2.9135,-2.9135,-2.9682,-2.991,-2.993,-3.0108,-3.0489,-3.1002,-3.1217,-3.1581,-3.21,-3.21,-3.21,-3.1951,-3.0493,-2.991,-2.9947,-3.0125,-3.0191,-3.0224,-3.0423,-3.0373,-3.029,-3.082,-3.087,-3.0866,-3.1683,-3.1584,-3.1283,-3.1865,-3.1633,-3.1182,-3.0984,-3.1002,-3.0983,-3.0495,-3.0668,-3.0857,-3.0556,-3.0733,-3.0857,-3.0557,-2.9888,-2.9119,-2.8179,-2.7563,-2.7023,-2.6526,-2.6574,0.0,-2.6069,-2.5714,-2.5212,-2.4462,-2.4373,-2.4141,-2.3582,-2.3517,-2.3289,-2.2826,-2.1798,-2.1273,-2.1438,-2.0426,-1.9903,-1.9974,-1.7817,-1.6584,0.0,0.0,0.0,0.0,0.0,0.0,0.0,0.0,0.0,0.0,0.0,0.0,0.0,0.0,0.0,0.0,0.0,0.0,0.0,0.0,0.0,0.0,-1.9946,-2.1352,-2.2409,-2.3272,-2.4149,-2.5011,-2.5375,-2.5722,-2.6152,-2.6202,-2.6202,-2.6202,-2.6501,-2.6651,-2.6651,-2.7365,-2.7895,-2.8177,-2.8588,-2.8969,-2.9268,-2.9682,-2.986,-2.986,-3.0605,-3.0952,-3.0969,-3.1267,-3.1669,0.0,-3.2067,-3.2299,-3.2702,-3.2702,-3.2702,0.0,0.0,0.0,0.0,0.0,-3.1421,-3.1421,-3.1421,-3.1421,-3.1504,-3.1934,-3.2067,-3.2177,-3.2837,-3.2756,-3.2505,-3.2983,-3.2796,-3.2451,-3.2393,-3.2151,-3.1835,-3.154,-3.1421,-3.1319,-3.1261,-3.1424,-3.1582,-3.1514,0.0,0.0,-2.9735,-2.8945,-2.8162,-2.7434,-2.743,-2.7304,-2.6772,-2.6481,-2.6015,-2.5247,-2.4775,-2.4378,-2.4028,-2.359,0.0,0.0,0.0,-2.1664,-2.1504,-2.1005,0.0,0.0,0.0,0.0,0.0,0.0,0.0,0.0,-1.6668,-1.6312,0.0,0.0,0.0,0.0,0.0,0.0,0.0,0.0,0.0,0.0,0.0,0.0,0.0,0.0,0.0,0.0,-2.1883,-2.3488,-2.501,-2.5209,-2.5209,-2.5209,-2.5788,-2.6202,-2.6202,-2.6286,-2.6318,-2.6318,-2.7017,-2.7415,-2.7415,0.0,0.0,0.0,0.0,-2.9827,-3.0489,-3.0572,-3.0621,-3.0621,-3.1366,-3.1714,-3.1747,-3.2398,-3.2752,-3.2834,-3.2834,-3.2884,-3.2967,-3.2967,-3.2967,-3.2934,-3.2768,-3.2702,-3.2702,-3.2702,-3.2702,0.0,0.0,0.0,0.0,-3.2801,-3.2834,-3.2851,-3.2934,-3.2901,-3.2834,-3.2879,-3.2835,-3.2857,-3.3212,-3.2807,-3.2381,-3.2601,-3.2147,-3.1762,-3.2038,-3.2127,-3.2283,-3.2621,-3.2152,-3.159,-3.1242,-3.0194,-2.9126,-2.8344,-2.8208,-2.7932,-2.7188,-2.7108,-2.6835,-2.6015,0.0,0.0,-2.4813,-2.3885,-2.3353,-2.3505,-2.2894,-2.2244,-2.1639,-2.1631,-2.164,-2.164,-2.155,-2.1514,-2.1514,-2.1595,-2.164,-2.1558,-1.8606,-1.8008,0.0,0.0,0.0,0.0,0.0,0.0,0.0,0.0,0.0,0.0,0.0,0.0,0.0,0.0,0.0,-2.1866,-2.29,-2.3927,-2.5736,-2.6005,-2.6005,-2.6005,-2.6103,-2.6202,-2.6202,-2.6733,-2.7083,-2.7083,-2.7763,-2.8177,-2.8177,-2.8837,0.0,-2.9397,-2.9976,-3.0357,-3.0506,-3.1085,-3.1383,-3.1399,0.0,0.0,-3.2481,-3.2636,-3.3011,-3.3597,-3.3597,-3.3905,-3.4468,-3.4468,-3.4468,-3.4352,-3.3143,-3.2702,-3.2702,-3.2702,-3.2702,-3.2702,-3.2702,-3.2702,-3.2801,-3.3375,-3.3597,-3.369,-3.4286,-3.4054,0.0,-3.399,-3.364,-3.3212,-3.3275,-3.3178,-3.2879,-3.2018,-3.1721,-3.1475,-3.0959,-3.1103,-3.1357,-3.1433,-3.1593,-3.1585,-3.1179,-3.0161,-2.916,-2.8465,-2.8256,-2.8059,-2.7606,-2.7808,-2.7674,-2.6853,-2.6582,-2.6231,-2.5645,-2.4908,-2.423,-2.3694,-2.304,-2.2578,-2.2387,-2.2435,-2.2463,-2.2463,-2.183,-2.1514,-2.1504,-2.2156,-2.2463,-2.2445,-2.1169,-2.0735,0.0,0.0,0.0,0.0,0.0,0.0,0.0,0.0,0.0,0.0,0.0,-1.5645,-1.6948,0.0,-2.0509,-2.3003,-2.3704,-2.4478,-2.5983,-2.6202,-2.6202,-2.6202,-2.6202,-2.6334,-2.67,-2.7083,-2.7448,-2.7812,-2.8489,-2.8903,-2.8903,-2.9562,-2.9943,-2.9943,-3.0671,-3.1052,-3.1052,-3.1785,-3.215,-3.2166,-3.2895,-3.3265,-3.3243,-3.3624,-3.3988,-3.4336,-3.4336,-3.4551,-3.4899,-3.4899,-3.4899,-3.4816,-3.4087,-3.3789,-3.3789,-3.3789,-3.3789,-3.3789,-3.3789,-3.3789,-3.3856,-3.422,-3.4336,-3.4419,-3.4783,-3.4634,-3.4383,-3.4597,-3.4381,-3.4097,-3.4097,-3.3829,-3.3417,-3.284,-3.2128,-3.1563,-3.1375,-3.1214,-3.1162,-3.1357,-3.1565,-3.1629,-3.1428,-3.0589,-2.9722,-2.9015,-2.8847,-2.8585,-2.8018,-2.8099,-2.8053,-2.7638,-2.7121,-2.6686,-2.6412,-2.5718,-2.5171,-2.4877,-2.4539,-2.4198,-2.3818,-2.3839,-2.3668,-2.327,-2.3252,-2.3252,-2.3252,-2.4056,-2.4454,-2.4436,-2.4038,-2.365,0.0,0.0,0.0,0.0,0.0,0.0,0.0,0.0,-1.378,-1.4588,-1.6099,-1.767,-1.8938,-2.0448,-2.2015,-2.3629,-2.4268,-2.4903,-2.5834,-2.6025,-2.6061,-2.6061,-2.6265,-2.6651,-2.7232,-2.7547,-2.7945,-2.8558,-2.9234,-2.9612,-2.9612,-3.0174,-3.0506,-3.0506,-3.1217,-3.1598,-3.1598,-3.2464,-3.2895,-3.2934,-3.3657,-3.4005,-3.4021,-3.4618,-3.4899,-3.4899,-3.4899,-3.4899,-3.4899,-3.4899,-3.4899,-3.4899,-3.4899,-3.4899,-3.4899,-3.4899,-3.4899,-3.4899,-3.4899,-3.4899,-3.4899,-3.4899,-3.4899,-3.4899,-3.4899,-3.4899,-3.4899,-3.4899,-3.4899,-3.4899,-3.4899,-3.4452,-3.3972,-3.3822,-3.2895,-3.2087,-3.2261,-3.1705,-3.1303,-3.1617,-3.1555,-3.1509,-3.1677,-3.1105,-3.0404,-2.9821,-2.9606,-2.9247,-2.852,-2.8427,-2.8374,-2.8231,-2.7429,-2.6937,-2.6996,-2.6433,-2.6042,-2.6033,-2.6015,-2.5787,-2.5251,-2.5226,-2.4936,-2.4284,-2.49,-2.5226,-2.5226,-2.5878,-2.6204,-2.6204,-2.6355,-2.6005,-1.1761,-1.1401,-1.154,-1.3027,-1.3498,-1.4036,0.0,0.0,-1.6622,-1.7878,-1.8792,-1.9677,-2.0745,-2.1788,-2.2818,-2.3657,-2.44,-2.4902,-2.504,-2.5349,-2.5594,-2.5594,-2.6515,-2.7199,-2.7282,-2.8423,-2.9198,-2.9264,-2.9959,-3.0373,-3.0373,-3.0456,-3.0506,-3.0506,-3.1217,-3.1598,-3.1598,-3.2978,-3.3696,-3.3673,-3.4419,-3.4767,-3.4767,-3.4866,-3.4899,-3.4899,-3.4899,-3.4899,-3.4899,-3.4899,-3.4899,-3.4899,-3.4899,-3.4899,-3.4899,-3.4899,-3.4899,-3.4899,-3.4899,-3.4899,-3.4899,-3.4899,-3.4899,-3.4899,-3.4899,-3.4899,-3.4899,-3.4899,-3.4899,-3.4899,-3.4899,-3.4833,-3.4601,-3.3955,-3.3673,-3.3398,-3.2779,-3.2066,-3.1551,-3.1594,-3.1083,-3.0861,-3.1565,-3.1327,-3.1006,-3.0918,-3.0349,-2.9773,-2.9326,-2.928,-2.898,-2.8285,-2.8079,-2.7767,-2.7146,-2.7015,-2.6708,-2.6135,-2.6081,-2.608,-2.6065,-2.6077,-2.6011,-2.5932,-2.6023,-2.6077,-2.6077,-2.6168,-2.6204,-2.6222,-2.6934,-2.6826,-1.3789,-1.3421,-1.3389,0.0,-1.5386,-1.5861,-1.7488,-1.7863,-1.8252,-1.9582,-2.0408,-2.1109,-2.1911,-2.2701,-2.3417,0.0,-2.4346,-2.4619,-2.4863,-2.5044,-2.5141,-2.5141,-2.6169,-2.7169,-2.786,-2.8586,-2.928,-2.9988,-3.0077,-3.0199,-3.0506,-3.0903,-3.1135,-3.1135,-3.226,-3.2878,-3.2878,-3.3922,-3.4435,-3.4435,-3.475,-3.4899,-3.4899,-3.4899,-3.4899,-3.4899,-3.4899,-3.5131,-3.5545,-3.5545,-3.5794,-3.6174,-3.6174,-3.6174,-3.6075,-3.5214,-3.4899,-3.4899,-3.4899,-3.4899,-3.4899,-3.4899,-3.4899,-3.4899,-3.4899,-3.4899,-3.4899,-3.4899,-3.4899,-3.4899,-3.4899,-3.4899,-3.4816,-3.4502,-3.4104,-3.3707,-3.3415,-3.2762,-3.2116,-3.1681,-3.135,-3.1112,-3.1029,-3.0861,-3.0824,-3.1064,-3.0628,-3.0156,-2.979,-2.9748,-2.9541,-2.8966,-2.8481,-2.8084,-2.7772,-2.7736,-2.7647,-2.7392,-2.7412,-2.7264,-2.685,-2.6886,-2.6681,-2.6222,-2.6663,-2.6898,-2.6898,-2.7369,-2.7604,-2.7604,-2.7948,-2.793,-1.5111,0.0,0.0,-1.666,-1.7223,-1.7685,-1.8932,-1.9337,-1.9818,-2.1002,-2.1635,-2.2179,-2.2838,-2.3295,-2.3702,-2.4057,-2.4372,-2.4565,-2.4538,-2.4815,-2.4943,-2.4771,-2.564,-2.672,-2.7902,-2.8424,-2.916,-3.023,-2.9984,-3.0087,-3.0766,-3.1317,-3.1697,-3.1896,-3.3143,-3.3789,-3.3789,-3.4535,-3.4899,-3.4899,-3.4899,-3.4899,-3.4899,-3.4899,-3.4899,-3.4916,-3.5114,-3.5512,-3.6025,-3.6224,-3.6622,-3.7102,-3.7102,-3.7102,-3.6986,-3.5909,-3.5512,-3.5512,-3.5512,-3.5512,-3.5512,-3.5512,-3.5512,-3.5512,-3.5512,-3.5363,-3.5197,-3.5197,-3.5048,-3.4899,-3.4899,-3.4899,-3.4899,-3.4899,-3.4485,-3.4087,-3.4087,-3.3531,-3.2845,-3.231,-3.1879,-3.1475,-3.1037,-3.0705,-3.0634,-3.1044,-3.0747,-3.045,-3.0324,-3.0205,-3.0044,-2.9733,-2.8998,-2.8534,-2.8534,-2.8338,-2.8237,-2.83,-2.834,-2.8154,-2.7644,-2.7694,-2.7447,-2.6862,-2.7423,-2.7731,-2.7731,-2.8328,-2.86,-2.86,-2.86,-2.8726,0.0,0.0,-1.5746,-1.7763,-1.8796,-1.9502,-2.0275,-2.0951,-2.1644,-2.2473,-2.2658,-2.2853,-2.346,-2.3595,-2.3595,-2.3616,-2.4541,-2.4891,-2.3793,-2.46,-2.5041,-2.44,-2.4966,-2.586,0.0,-2.8051,-2.9016,-2.9767,-2.981,-3.0315,-3.151,-3.1598,-3.1912,-3.2652,-3.3392,-3.3789,-3.3789,-3.4535,-3.4899,-3.4899,-3.4899,-3.4899,-3.4899,-3.4899,-3.4899,-3.4932,-3.5661,-3.5976,-3.6059,-3.6771,-3.7085,-3.7102,-3.7102,-3.7102,-3.7102,-3.7052,-3.7036,-3.7036,-3.7036,-3.7036,-3.7036,-3.7036,-3.7036,-3.7036,-3.7036,-3.6539,-3.5976,-3.5976,-3.5446,-3.4899,-3.4899,-3.4899,-3.4899,-3.4899,-3.4883,-3.4866,-3.4866,-3.4286,-3.3756,-3.3723,-3.2597,-3.171,-3.2079,-3.1224,-3.0634,-3.1044,-3.0764,-3.0642,-3.1026,-3.0727,-3.0478,-3.046,-2.9797,-2.9369,-2.9369,-2.8641,-2.8237,-2.83,-2.83,-2.8349,-2.8456,-2.8474,-2.8495,-2.8527,-2.8545,-2.8563,-2.8563,-2.86,-2.86,-2.86,-2.86,-2.9029,-1.4664,0.0,-1.6324,-1.8054,-1.896,-1.9803,-2.1342,-2.1949,-2.2254,-2.2503,-2.2646,-2.2763,-2.2972,-2.3002,-2.3116,-2.3535,-2.431,-2.4543,-2.3721,-2.4702,-2.5077,-2.3982,-2.5077,0.0,0.0,0.0,0.0,-2.9255,-2.9795,-3.0392,-3.1104,-3.2374,-3.316,-3.3408,-3.4137,-3.4518,-3.4518,-3.4767,-3.4899,-3.4899,-3.4899,-3.4899,-3.4899,-3.4899,-3.4899,-3.4932,-3.5678,-3.629,-3.6787,-3.7533,-3.8112,-3.8569,-3.8569,-3.8569,-3.8569,-3.8569,-3.8569,-3.8411,-3.745,-3.7102,-3.7102,-3.7102,-3.7102,-3.7102,-3.7102,-3.6936,-3.6638,-3.6141,-3.5827,-3.5512,-3.5032,-3.4899,-3.4899,-3.4899,-3.4899,-3.4899,-3.4899,-3.47,-3.4386,-3.3889,-3.3392,-3.279,-3.1941,-3.149,-3.1094,-3.0762,-3.0821,-3.0943,-3.1075,-3.0976,-3.09,-3.09,-3.0447,-3.0136,-3.0136,-2.9872,-2.953,-2.9058,-2.906,-2.8882,-2.8384,-2.844,-2.8505,-2.8518,-2.8574,-2.86,-2.86,-2.86,-2.86,-2.8618,-2.9156,-2.9549,-1.527,-1.6036,-1.7001,-1.879,-1.9649,-2.043,-2.1961,-2.2351,-2.2395,-2.2422,-2.2328,-2.2226,-2.2282,-2.2282,-2.2491,-2.3161,-2.4007,-2.4455,-2.4007,-2.5121,-2.5555,-2.4448,-2.5296,-2.5985,0.0,0.0,0.0,-2.8732,-2.9476,-3.0203,-3.094,-3.2581,-3.3625,-3.3912,-3.4539,-3.4899,-3.4899,-3.4899,-3.4899,-3.4899,-3.4899,-3.4899,-3.4899,-3.4899,-3.4899,-3.4965,-3.5959,-3.6671,-3.7185,-3.8179,-3.8858,-3.9299,-3.9299,-3.9299,-3.9299,-3.9299,-3.9299,-3.9166,-3.8195,-3.788,-3.788,-3.788,-3.788,-3.788,-3.788,-3.7698,-3.74,-3.6936,-3.6605,-3.629,-3.581,-3.5495,-3.5297,-3.5297,-3.5081,-3.4899,-3.4899,-3.4899,-3.475,-3.4286,-3.3972,-3.3491,-3.2564,-3.2161,-3.173,-3.1002,-3.1099,-3.1244,-3.1117,-3.1228,-3.1358,-3.1512,-3.0909,-3.061,-3.0891,-3.0551,-3.0163,-2.9818,-2.9869,-2.9725,-2.9219,-2.9292,-2.9372,-2.938,-2.9437,-2.9463,-2.9463,-2.9463,-2.9463,-2.9468,-2.9989,-3.0382,-1.6632,-1.7222,-1.7786,-1.9838,-2.0777,-2.1366,-2.2075,-2.2197,-2.2111,-2.2121,-2.1648,-2.1281,0.0,0.0,-2.1704,-2.2517,-2.3789,-2.4649,-2.4605,-2.5794,-2.6378,0.0,0.0,0.0,0.0,0.0,0.0,-2.8231,0.0,-2.9875,-3.1054,-3.2303,-3.3339,-3.4084,-3.457,-3.4835,-3.4899,-3.4899,-3.4899,-3.4899,-3.4899,-3.4899,-3.4899,-3.4899,-3.4916,-3.5032,-3.6489,-3.7119,-3.7268,-3.8718,-3.9299,-3.9299,-3.9299,-3.9299,-3.9299,-3.9299,-3.9299,-3.9299,-3.9299,-3.9299,-3.9299,-3.9299,-3.9299,-3.9299,-3.9299,-3.8808,-3.8261,-3.8202,-3.7715,-3.7152,-3.7119,-3.6589,-3.6059,-3.6009,-3.5462,-3.4949,-3.4916,-3.4899,-3.4899,-3.4899,-3.4286,-3.3789,-3.3789,-3.3199,-3.2448,-3.1763,-3.1664,-3.1515,-3.1125,-3.1414,-3.1822,-3.2197,-3.1219,-3.0872,-3.1633,-3.0707,-3.0201,-3.0505,-3.0659,-3.0732,-3.0769,-3.0854,-3.092,-3.0985,-3.0985,-3.1003,-3.0998,-3.0998,-3.0998,-3.0998,-3.1053,-3.1473,-1.6536,-1.7584,-1.8767,-1.9714,-2.0351,-2.0879,-2.1373,-2.126,-2.08,-1.9815,-1.9531,-1.9358,0.0,0.0,0.0,-2.1829,-2.3864,0.0,-2.4679,-2.6183,0.0,-2.5749,0.0,-2.6971,-2.6617,-2.75,0.0,0.0,-2.9516,-3.0485,-3.1285,-3.2488,-3.3454,-3.4084,-3.3799,-3.4036,-3.4899,-3.4899,-3.4899,-3.4899,-3.4899,-3.4899,-3.4899,-3.4899,-3.5197,-3.5777,-3.6704,-3.7417,-3.7996,-3.8934,-3.9299,-3.9299,-3.9299,-3.9299,-3.9299,-3.9299,-3.9299,-3.9299,-3.9299,-3.9299,-3.9299,-3.9299,-3.9299,-3.9299,-3.9299,-3.9183,-3.8891,-3.8361,-3.8079,-3.7798,-3.7251,-3.697,-3.6688,-3.6125,-3.586,-3.5578,-3.5015,-3.4899,-3.4899,-3.4899,-3.4286,-3.3789,-3.3789,-3.3199,-3.2652,-3.2448,-3.2415,-3.1994,-3.0821,-3.1004,-3.1281,-3.1413,-3.1412,-3.1475,-3.1672,-3.1427,-3.1185,-3.0959,-3.099,-3.0869,-3.0591,-3.0682,-3.0787,-3.0854,-3.0892,-3.0948,-3.0998,-3.0998,-3.0998,-3.1003,-3.16,-3.1999,-1.7102,-1.8105,-1.9132,-1.9657,-2.0031,-2.0257,-2.0229,-1.9864,-1.923,-1.8215,-1.7923,0.0,-1.7658,-1.8969,0.0,0.0,0.0,0.0,-2.5053,-2.6512,-2.733,0.0,-2.7151,0.0,-2.7485,-2.8158,-2.8831,0.0,-3.0053,-3.062,-3.0973,-3.2187,-3.3018,-3.3351,-3.3266,-3.3614,-3.4546,-3.4546,-3.4667,-3.4899,-3.4899,-3.4899,-3.4916,-3.523,-3.5611,-3.6059,0.0,-3.7831,-3.8278,-3.9017,-3.9299,-3.9299,-3.9299,-3.9299,-3.9299,-3.9299,-3.9299,-3.9299,-3.9299,-3.9299,-3.9299,-3.9299,-3.9299,-3.9299,-3.9299,-3.9299,-3.9216,-3.8791,-3.8676,-3.8576,-3.8162,-3.7831,-3.7483,-3.7069,-3.6473,-3.5893,-3.5462,-3.5131,-3.4899,-3.4899,-3.4568,-3.427,-3.427,-3.3938,-3.3564,-3.3226,-3.3176,-3.2762,-3.162,-3.1666,-3.1879,-3.2063,-3.1819,-3.1793,-3.214,-3.1716,-3.1487,-3.1618,-3.165,-3.1656,-3.1594,-3.1703,-3.1796,-3.1902,-3.1928,-3.2,-3.2053,-3.2053,-3.2053,-3.2053,-3.2524,-3.2723,-1.8028,-1.8694,-1.9221,-1.9685,-1.9735,-1.9543,-1.8983,-1.831,-1.7611,-1.6918,0.0,-1.6491,-1.675,-1.8135,-1.9538,-2.055,0.0,-2.4724,-2.5495,-2.6686,-2.7495,-2.7585,-2.76,-2.7869,-2.8532,-2.8682,-2.922,-3.0417,-3.0582,-3.0642,-3.0642,-3.1688,-3.2315,-3.2398,-3.2922,-3.3501,-3.4101,-3.4101,-3.4374,-3.4899,-3.4899,-3.4899,-3.4932,-3.5661,-3.6059,-3.6224,0.0,0.0,-3.8411,-3.905,-3.9299,-3.9299,-3.9299,-3.9299,-3.9299,-3.9299,-3.9299,-3.9299,-3.9299,-3.9299,-3.9299,-3.9299,-3.9299,-3.9299,-3.9299,-3.9299,-3.9299,-3.9299,-3.9299,-3.9299,-3.9299,-3.8825,-3.8328,-3.8228,-3.7235,-3.6274,-3.6174,-3.5644,-3.5164,-3.5048,-3.5048,-3.5015,-3.4916,-3.4899,-3.4667,-3.4038,-3.3938,-3.3707,-3.3061,-3.2834,-3.2818,-3.3191,-3.2333,-3.1984,-3.2584,-3.1749,-3.1496,-3.2179,-3.23,-3.2537,-3.2979,-3.3057,-3.3135,-3.3262,-3.3262,-3.3307,-3.3396,-3.3411,-3.3393,-3.3393,-3.3393,-3.3393,-1.8682,-1.9246,-1.9685,-1.9773,-1.946,-1.8962,-1.8328,-1.7432,0.0,0.0,-1.5048,-1.5122,-1.5649,-1.7106,-1.8786,-2.0437,-2.2443,-2.4208,-2.5435,-2.6273,-2.6986,0.0,-2.76,-2.7869,-2.8532,-2.9086,0.0,0.0,0.0,-3.1331,-3.1331,-3.1551,-3.1881,-3.2398,-3.2922,-3.3501,-3.4101,-3.4101,-3.4374,-3.4899,-3.4899,-3.4899,-3.4932,-3.5661,-3.634,-3.697,-3.7831,0.0,-3.9133,-3.9249,-3.9299,-3.9299,-3.9299,-3.9299,-3.9299,-3.9299,-3.9299,-3.9299,-3.9299,-3.9299,-3.9299,-3.9299,-3.9299,-3.9299,-3.9299,-3.9299,-3.9299,-3.9299,-3.9299,-3.9299,-3.9299,-3.9216,-3.8967,-3.8344,-3.7987,-3.7665,-3.7052,-3.682,-3.6539,-3.5926,-3.581,-3.5628,-3.5015,-3.4899,-3.4849,-3.4717,-3.47,-3.4651,-3.4535,-3.3442,-3.2724,-3.2813,-3.263,-3.2315,-3.1845,-3.1738,-3.1742,-3.1877,-3.195,-3.2301,-3.2963,-3.2963,-3.2979,-3.306,-3.3104,-3.318,-3.3325,-3.3382,-3.3393,-3.3393,-3.3393,-3.3393,-1.8506,-1.9183,-1.9798,-1.9798,-1.9196,-1.8352,-1.7441,0.0,0.0,0.0,-1.4029,-1.4235,-1.4597,-1.648,0.0,-1.9196,-2.1486,-2.358,-2.4889,-2.5674,0.0,-2.748,-2.76,-2.8004,0.0,-2.9427,0.0,0.0,0.0,-3.1511,-3.1511,-3.1511,-3.164,-3.191,-3.2188,-3.2614,-3.3219,-3.3219,-3.3636,-3.4472,-3.4472,-3.4618,-3.4932,-3.5661,-3.6406,-3.7152,-3.7871,0.0,-3.9299,-3.9299,-3.9299,-3.9299,-3.9299,-3.9299,-3.9299,-3.9299,-3.9299,-3.9299,-3.9299,-3.9299,-3.9299,-3.9299,-3.9299,-3.9299,-3.9299,-3.9033,-3.8808,-3.9199,-3.9033,-3.8808,-3.9199,-3.9299,-3.9216,-3.8858,-3.8477,-3.8013,-3.7268,-3.7102,-3.7003,-3.6655,-3.6572,-3.6456,-3.6108,-3.6042,-3.5909,-3.5528,-3.5462,-3.533,-3.4949,-3.427,-3.3839,-3.3839,-3.3491,-3.3127,-3.2779,-3.2442,-3.2177,-3.201,-3.2051,-3.2237,-3.2623,-3.2588,-3.2721,-3.2979,-3.3026,-3.3137,-3.331,-3.3322,-3.3367,-3.3393,-3.3393,-3.3393,-1.8355,-1.9083,-1.9773,-1.966,-1.892,-1.7877,-1.66,-1.558,0.0,0.0,-1.3408,-1.3691,-1.4076,-1.5886,-1.757,0.0,-2.0498,-2.2679,-2.4186,-2.5083,-2.6048,0.0,-2.751,0.0,-2.9472,-2.9606,0.0,0.0,0.0,0.0,-3.1511,-3.1511,-3.1553,-3.1697,-3.1553,-3.1853,-3.2559,-3.2465,-3.29,-3.3908,-3.405,-3.4325,-3.4748,-3.5612,-3.6324,-3.692,-3.7623,0.0,0.0,-3.9017,-3.9067,-3.9083,-3.9249,-3.9299,-3.9299,-3.9299,-3.9299,-3.9299,-3.9299,-3.9299,-3.9299,-3.9299,-3.9299,-3.9265,-3.9116,-3.8659,-3.8295,-3.8692,-3.8526,-3.8311,-3.8709,-3.8967,-3.9033,-3.8884,-3.8394,-3.7814,-3.7235,-3.7102,-3.7052,-3.6903,-3.7003,-3.7052,-3.6903,-3.7003,-3.6903,-3.6324,-3.6241,-3.6025,-3.5446,-3.523,-3.5131,-3.5131,-3.4468,-3.3955,-3.3806,-3.3299,-3.2834,-3.2469,-3.2324,-3.2305,-3.2406,-3.2249,-3.2335,-3.2703,-3.2852,-3.2979,-3.3137,-3.3262,-3.3352,-3.3393,-3.3393,-3.3393,-1.8795,-1.9334,-1.9685,-1.9196,-1.8619,-1.7777,-1.6145,0.0,0.0,-1.3423,-1.3215,-1.3578,-1.4679,-1.511,-1.6103,0.0,0.0,-2.1197,-2.3387,-2.4807,-2.5869,-2.6587,0.0,0.0,-2.9472,0.0,0.0,0.0,0.0,0.0,-3.1511,-3.1511,-3.1754,-3.2315,-3.1783,-3.202,-3.3119,-3.2641,-3.2695,-3.3303,-3.3841,-3.4126,-3.4233,-3.5441,-3.6042,-3.6141,-3.6887,0.0,0.0,-3.803,-3.8311,-3.8377,-3.905,-3.9299,-3.9299,-3.9299,-3.9299,-3.9299,-3.9299,-3.9299,-3.9299,-3.9299,-3.9299,-3.9183,-3.851,-3.8261,-3.8053,-3.7483,-3.7748,-3.8079,-3.7466,-3.7814,-3.8146,-3.7466,-3.7251,-3.7185,-3.7119,-3.7102,-3.6903,-3.6241,-3.6655,-3.6887,-3.6224,-3.6671,-3.7085,-3.7019,-3.7003,-3.6986,-3.692,-3.6307,-3.5909,-3.5909,-3.5247,-3.4518,-3.3856,-3.3848,-3.3712,-3.332,-3.2734,-3.2505,-3.2844,-3.215,-3.1786,-3.1823,-3.2352,-3.2655,-3.2672,-3.315,-3.3378,-3.3393,-3.3393,-3.3393,-1.822,-1.8907,-1.9259,-1.9058,-1.8594,-1.7765,-1.6082,0.0,-1.4582,-1.3423,-1.3198,-1.3347,-1.3826,-1.4505,-1.5463,0.0,-1.8192,-1.9723,-2.1795,-2.3108,-2.4388,-2.5824,-2.6572,0.0,0.0,0.0,0.0,0.0,0.0,0.0,-3.1511,-3.1511,-3.1611,-3.1853,-3.164,-3.171,-3.2173,-3.1951,-3.2148,-3.2722,-3.2964,-3.3429,-3.4117,-3.4634,-3.5268,-3.6025,-3.6307,0.0,0.0,-3.7433,-3.7788,-3.8219,-3.8526,-3.8907,-3.9299,-3.9299,-3.9299,-3.9299,-3.9299,-3.9299,-3.9299,-3.9299,-3.9017,-3.8576,-3.8295,-3.7897,-3.7483,-3.7185,-3.7003,-3.692,-3.7069,-3.7334,-3.7466,-3.7168,-3.7102,-3.7102,-3.7102,-3.7102,-3.7019,-3.6721,-3.6903,-3.7019,-3.6721,-3.692,-3.6953,-3.6506,-3.682,-3.6953,-3.6489,-3.6572,-3.6489,-3.6059,-3.5346,-3.4767,-3.4485,-3.4515,-3.4276,-3.3695,-3.3394,-3.322,-3.3128,-3.2838,-3.2562,-3.2366,-3.2879,-3.2963,-3.2606,-3.3106,-3.3367,-3.3393,-3.3393,-3.3393,-1.742,-1.8205,-1.8719,-1.8556,-1.8116,-1.73,0.0,-1.5047,-1.4381,-1.3403,-1.3198,-1.3215,-1.3284,-1.399,-1.4852,0.0,-1.7004,-1.8633,-2.0788,-2.2066,-2.3405,0.0,0.0,0.0,0.0,0.0,0.0,0.0,0.0,0.0,0.0,-3.1511,-3.1511,-3.1511,-3.1511,-3.1511,-3.1511,-3.1511,-3.1726,-3.2148,-3.2315,-3.2819,-3.361,-3.3949,-3.4486,-3.5184,0.0,0.0,0.0,-3.6445,-3.6916,-3.7599,-3.8046,-3.8377,-3.8718,-3.9133,-3.9166,-3.9017,-3.9232,-3.9299,-3.9299,-3.9299,-3.8941,-3.8444,-3.8013,-3.7367,-3.6738,-3.6506,-3.6075,-3.5843,-3.6589,-3.6622,-3.6456,-3.6456,-3.6456,-3.6456,-3.6456,-3.6456,-3.6456,-3.6456,-3.6638,-3.6771,-3.6771,-3.697,-3.6936,-3.6406,-3.6771,-3.692,-3.639,-3.6787,-3.6903,-3.639,-3.586,-3.5363,-3.4932,-3.4899,-3.4667,-3.4154,-3.3905,-3.37,-3.3518,-3.3304,-3.3064,-3.2827,-3.3316,-3.3368,-3.2897,-3.3413,-3.3675,-3.3739,-3.3739,-3.3802,-1.6513,-1.735,-1.8078,-1.7561,-1.6961,-1.6245,-1.5148,-1.4488,-1.3946,-1.3328,-1.3198,-1.3267,-1.3459,-1.351,-1.4076,-1.582,-1.6678,-1.804,-2.0727,-2.2199,-2.3407,0.0,0.0,0.0,0.0,0.0,0.0,0.0,0.0,0.0,0.0,-3.1511,-3.1511,-3.1511,-3.1511,-3.1511,-3.1511,-3.1511,-3.1511,-3.1511,-3.212,-3.2425,-3.2453,-3.3601,-3.379,0.0,0.0,0.0,0.0,-3.4845,-3.5486,-3.6174,-3.7649,-3.7765,-3.7301,-3.8768,-3.8825,-3.8328,-3.905,-3.9299,-3.9299,-3.9299,-3.9299,-3.9017,-3.7549,-3.6605,-3.586,-3.5131,-3.4916,-3.5081,-3.5827,-3.5462,-3.4916,-3.4916,-3.4916,-3.4916,-3.4916,-3.4916,-3.4916,-3.4916,-3.5512,-3.6009,-3.6009,-3.6622,-3.7102,-3.7102,-3.7102,-3.7102,-3.7102,-3.7102,-3.7102,-3.7102,-3.7085,-3.6489,-3.5015,-3.4899,-3.4899,-3.4883,-3.4203,-3.3858,-3.3995,-3.3278,-3.2895,-3.29,-3.3488,-3.3736,-3.3581,-3.4192,-3.4492,-3.4492,-3.4492,-3.4693,-1.5229,-1.6017,-1.637,-1.5948,-1.5678,-1.5253,-1.42,-1.3802,-1.3607,-1.3276,-1.3198,-1.325,-1.3408,-1.3476,-1.4098,-1.5884,0.0,0.0,0.0,0.0,0.0,-2.3407,0.0,0.0,0.0,0.0,0.0,0.0,0.0,0.0,0.0,-3.1511,-3.1511,-3.1511,-3.1511,-3.1511,-3.1511,-3.1511,-3.1511,-3.1511,-3.1697,-3.1994,-3.241,-3.3135,0.0,0.0,0.0,0.0,0.0,-3.4327,-3.5044,-3.6059,-3.6522,-3.687,-3.7218,-3.8195,-3.8411,-3.8328,-3.905,-3.9299,-3.9299,-3.9299,-3.8636,-3.7715,-3.7251,-3.6953,-3.6489,-3.5247,-3.4899,-3.4949,-3.5181,-3.5065,-3.4899,-3.4899,-3.4899,-3.4899,-3.4899,-3.4899,-3.4899,-3.4899,-3.5081,-3.5247,-3.5247,-3.5446,-3.5595,-3.5595,-3.6025,-3.6357,-3.6357,-3.6787,-3.692,-3.6406,-3.6357,-3.6158,-3.5694,-3.5644,-3.5446,-3.4932,-3.4667,-3.4575,-3.4622,-3.4476,-3.4178,-3.3662,-3.4228,-3.4285,-3.3733,-3.4246,-3.4491,-3.4491,-3.4491,-3.4864,0.0,-1.4466,-1.4923,-1.4809,-1.4529,-1.4138,-1.3619,-1.3225,-1.2967,-1.2969,-1.2978,-1.3082,-1.3391,-1.3476,-1.3955,-1.5361,-1.6076,0.0,0.0,0.0,0.0,-2.3429,0.0,0.0,0.0,0.0,0.0,0.0,0.0,0.0,0.0,-3.0987,-3.1122,-3.1122,-3.1376,-3.1511,-3.1511,-3.1511,-3.1511,-3.1511,-3.1511,-3.1697,-3.2079,-3.2641,0.0,0.0,0.0,0.0,0.0,-3.3455,-3.4047,-3.4977,-3.5472,-3.5793,-3.6147,-3.7654,-3.8004,-3.793,-3.8967,-3.9299,-3.9299,-3.9299,-3.8295,-3.7052,-3.6771,-3.6489,-3.6075,-3.5148,-3.4899,-3.4899,-3.4899,-3.4899,-3.4899,-3.4899,-3.4899,-3.4899,-3.4899,-3.4899,-3.4899,-3.4899,-3.4899,-3.4899,-3.4899,-3.4899,-3.4899,-3.4899,-3.5297,-3.5578,-3.5578,-3.6241,-3.6506,-3.6059,-3.6257,-3.6423,-3.6423,-3.5909,-3.5512,-3.533,-3.5048,-3.4947,-3.5041,-3.5111,-3.4964,-3.4582,-3.4955,-3.4934,-3.4436,-3.4754,-3.4915,-3.4915,-3.5094,-3.5453,0.0,-1.2711,-1.3583,-1.3942,-1.3384,-1.2853,-1.3254,-1.2664,0.0,-1.2532,-1.2603,-1.2808,-1.3459,-1.3535,-1.3784,-1.4593,0.0,0.0,0.0,-2.014,0.0,0.0,0.0,0.0,0.0,0.0,0.0,0.0,0.0,0.0,0.0,-3.0118,-3.0462,-3.0507,-3.1092,-3.1451,-3.1511,-3.1511,-3.1511,-3.1511,-3.1511,-3.1511,-3.1524,-3.212,0.0,0.0,0.0,0.0,0.0,-3.2398,-3.2722,-3.3314,-3.4558,-3.4651,-3.4435,-3.7011,-3.7597,-3.7317,-3.8682,-3.9222,-3.9282,-3.9183,-3.8212,-3.6953,-3.6158,-3.5446,-3.4899,-3.4899,-3.4899,-3.4899,-3.4899,-3.4899,-3.4899,-3.4899,-3.4899,-3.4899,-3.4899,-3.4899,-3.4899,-3.4899,-3.4899,-3.4899,-3.4899,-3.4899,-3.4899,-3.4899,-3.4899,-3.4899,-3.4899,-3.5495,-3.5926,-3.5926,-3.6539,-3.697,-3.7036,-3.581,-3.5346,-3.6042,-3.5404,-3.5101,-3.5375,-3.5348,-3.5377,-3.5492,-3.5549,-3.5549,-3.5492,-3.5549,-3.56,-3.56,-3.6045,-3.6259,-0.9574,0.0,-1.143,-1.1459,-1.1382,-1.1371,0.0,-1.1692,-1.1818,-1.2478,0.0,-1.3048,-1.4011,-1.3857,-1.4094,0.0,0.0,0.0,0.0,0.0,0.0,0.0,0.0,0.0,0.0,0.0,0.0,0.0,0.0,0.0,0.0,-2.9714,-3.0013,-3.0492,-3.0657,-3.0972,-3.1496,-3.1511,-3.1511,-3.1511,-3.1511,-3.1511,-3.1524,-3.212,0.0,0.0,0.0,0.0,-3.2398,-3.2398,-3.2722,-3.3293,-3.4043,-3.4246,-3.4255,-3.5405,-3.6366,-3.7167,-3.7615,-3.8438,-3.9116,-3.798,-3.7384,-3.687,-3.5545,-3.5032,-3.4899,-3.4899,-3.4899,-3.4899,-3.4899,-3.4899,-3.4899,-3.4899,-3.4899,-3.4899,-3.4899,-3.4899,-3.4899,-3.4899,-3.4899,-3.4899,-3.4899,-3.4899,-3.4899,-3.4899,-3.4899,-3.4899,-3.4899,-3.5048,-3.5148,-3.5148,-3.5313,-3.5644,-3.6208,-3.6456,-3.6705,-3.6995,-3.6288,-3.5961,-3.6135,-3.5685,-3.5423,-3.5354,-3.536,-3.536,-3.5354,-3.5469,-3.552,-3.552,-3.5689,-3.5761,-0.8585,-0.9499,-1.0509,-1.0648,-1.0606,-1.0665,-1.1209,0.0,0.0,0.0,0.0,0.0,0.0,0.0,0.0,0.0,-1.6036,0.0,0.0,0.0,0.0,0.0,0.0,0.0,0.0,0.0,0.0,0.0,0.0,0.0,0.0,-2.8978,-2.928,-2.9624,-2.9924,-3.0552,-3.1496,-3.1511,-3.1511,-3.1511,-3.1511,-3.1511,-3.1511,-3.1824,-3.1796,0.0,0.0,0.0,-3.1994,-3.1994,-3.216,-3.2489,-3.3071,-3.3324,-3.343,-3.4377,-3.5558,-3.6767,-3.7161,-3.7969,-3.8609,-3.7466,-3.687,-3.639,-3.5247,-3.4899,-3.4899,-3.4899,-3.4899,-3.4899,-3.4899,-3.4899,-3.4899,-3.4899,-3.4899,-3.4899,-3.4899,-3.4899,-3.4899,-3.4899,-3.4899,-3.4899,-3.4899,-3.4899,-3.4899,-3.4899,-3.4899,-3.4899,-3.4899,-3.4899,-3.4899,-3.4899,-3.4899,-3.5221,-3.6016,-3.6713,-3.7153,-3.7295,-3.687,-3.6703,-3.6906,-3.6219,-3.5666,-3.5308,-3.5291,-3.5291,-3.5291,-3.5446,-3.5492,-3.5492,-3.5571,-3.56,-0.818,-0.9123,-1.0172,-1.0493,-1.0382,-1.0401,-1.1209,0.0,0.0,0.0,0.0,0.0,0.0,-1.3933,0.0,0.0,0.0,0.0,0.0,0.0,0.0,0.0,0.0,0.0,0.0,0.0,0.0,0.0,0.0,0.0,0.0,-2.8154,-2.8487,-2.8607,-2.9146,-3.0013,-3.1197,-3.1301,-3.1406,-3.1511,-3.1511,-3.1511,-3.1511,-3.1511,-3.1511,0.0,0.0,0.0,-3.1511,-3.1511,-3.1511,-3.1553,-3.2148,-3.2398,-3.2542,-3.3607,-3.4941,-3.6307,-3.7021,-3.7697,-3.8037,-3.71,-3.6431,-3.586,-3.5114,-3.4899,-3.4899,-3.4899,-3.4899,-3.4899,-3.4899,-3.4899,-3.4932,-3.5032,-3.5065,-3.5098,-3.5214,-3.523,-3.5197,-3.5081,-3.5065,-3.5032,-3.4916,-3.4899,-3.4899,-3.4899,-3.4899,-3.4899,-3.4899,-3.4899,-3.4899,-3.4899,-3.4899,-3.5195,-3.5939,-3.6572,-3.6987,-3.7128,-3.7236,-3.7369,-3.7501,-3.666,-3.5969,-3.5452,-3.5312,-3.5245,-3.5245,-3.54,-3.5469,-3.5469,-3.5571,-3.56,-0.8097,-0.8885,-0.9586,-0.954,-0.9875,-1.0318,-1.0733,0.0,0.0,0.0,0.0,0.0,0.0,0.0,0.0,0.0,0.0,0.0,0.0,0.0,0.0,0.0,0.0,0.0,0.0,0.0,0.0,0.0,0.0,0.0,0.0,-2.7705,-2.8019,-2.8577,-2.8697,-2.9116,-2.9864,-3.0402,-3.0956,-3.1511,-3.1511,-3.1511,-3.1511,-3.1511,-3.1511,0.0,0.0,-3.1511,-3.1511,-3.1511,-3.1511,-3.1553,-3.2148,-3.2398,-3.2425,-3.2616,-3.4178,-3.6307,-3.7021,-3.7697,-3.7902,-3.6023,-3.5685,-3.586,-3.5114,-3.4899,-3.4899,-3.4899,-3.4899,-3.4899,-3.4899,-3.4899,-3.5048,-3.5678,-3.5827,-3.6009,-3.6638,-3.6771,-3.6589,-3.5959,-3.5827,-3.5628,-3.5015,-3.4899,-3.4899,-3.4899,-3.4899,-3.4899,-3.4899,-3.4899,-3.4899,-3.4899,-3.4899,-3.4949,-3.5089,-3.5744,-3.6232,-3.6361,-3.7519,-3.8003,-3.7527,-3.6652,-3.6154,-3.6061,-3.535,-3.497,-3.497,-3.5198,-3.5314,-3.5354,-3.5526,-3.56,-0.8149,-0.8834,-0.9474,-0.9429,-0.9807,-1.0316,-1.072,0.0,0.0,0.0,0.0,0.0,0.0,0.0,0.0,0.0,0.0,0.0,0.0,0.0,0.0,0.0,0.0,0.0,0.0,0.0,0.0,0.0,0.0,0.0,0.0,0.0,-2.775,-2.8064,-2.8064,-2.8368,-2.9041,-2.9325,-2.9983,-3.0943,-3.0943,-3.1137,-3.1511,-3.1511,-3.1511,-3.1511,0.0,-3.1511,-3.1511,-3.1511,-3.1511,-3.1524,-3.1796,-3.191,-3.2042,-3.3084,-3.4011,-3.4928,-3.6314,-3.6686,-3.6368,-3.5409,-3.5233,-3.5298,-3.4644,-3.4472,-3.4382,-3.4077,-3.4415,-3.4899,-3.4899,-3.4899,-3.5081,-3.5827,-3.6009,-3.6208,-3.6953,-3.7102,-3.7003,-3.6671,-3.6605,-3.6357,-3.5628,-3.5495,-3.5363,-3.4965,-3.4899,-3.4899,-3.4899,-3.4899,-3.4899,-3.4899,-3.4899,-3.4923,-3.4994,-3.5627,-3.6199,-3.6655,-3.7761,-3.8069,-3.7311,-3.6887,-3.6497,-3.6082,-3.5304,-3.4899,-3.4899,-3.5175,-3.5291,-3.5291,-3.5503,-3.56,-0.8149,-0.8679,-0.9241,-0.9458,-0.9932,-1.0479,-1.0952,0.0,0.0,0.0,0.0,0.0,0.0,0.0,0.0,0.0,0.0,0.0,0.0,0.0,0.0,0.0,0.0,0.0,0.0,0.0,0.0,0.0,0.0,0.0,0.0,0.0,-2.76,-2.76,-2.76,-2.7854,-2.8353,-2.8368,-2.9011,-3.0283,-3.0432,-3.0776,-3.1271,-3.1436,-3.1511,-3.1511,-3.1511,-3.1511,-3.1511,-3.1511,-3.1511,-3.1511,-3.1511,-3.16,-3.1957,-3.3733,-3.4118,-3.3926,-3.5412,-3.5463,-3.4864,-3.4573,-3.4464,-3.4415,-3.4018,-3.3908,-3.379,-3.3329,-3.3834,-3.4529,-3.4667,-3.4715,-3.497,-3.6017,-3.6257,-3.6506,-3.7417,-3.7615,-3.7566,-3.74,-3.7223,-3.6924,-3.6365,-3.6117,-3.5844,-3.5239,-3.5148,-3.5098,-3.4916,-3.4899,-3.4899,-3.4899,-3.4899,-3.4947,-3.5041,-3.5477,-3.5976,-3.6555,-3.7535,-3.7867,-3.7384,-3.7201,-3.6837,-3.6274,-3.5528,-3.5065,-3.4899,-3.5175,-3.5291,-3.5291,-3.5503,-3.56,-0.7959,-0.8253,-0.8487,-0.9303,-1.018,0.0,-1.1446,-1.1966,0.0,0.0,0.0,0.0,0.0,0.0,0.0,0.0,0.0,0.0,0.0,0.0,0.0,0.0,0.0,0.0,0.0,0.0,0.0,0.0,0.0,0.0,0.0,0.0,0.0,-2.76,-2.76,-2.7615,-2.766,-2.766,-2.8349,-2.9681,-3.0223,-3.0537,-3.0597,-3.1212,-3.1511,-3.1511,-3.1511,-3.1511,-3.1511,-3.1511,-3.1511,-3.1511,-3.1511,-3.1869,-3.2586,-3.3902,-3.4366,-3.4364,-3.4486,-3.4466,-3.4157,-3.2975,-3.2915,-3.3329,-3.3277,-3.3277,-3.3251,-3.3224,-3.3277,-3.3433,-3.4009,-3.4151,-3.4658,-3.6546,-3.7036,-3.7417,-3.8834,-3.9149,-3.895,-3.8261,-3.7631,-3.7156,-3.7034,-3.6509,-3.6049,-3.5952,-3.5926,-3.5678,-3.4982,-3.4899,-3.4899,-3.4899,-3.4899,-3.4899,-3.4923,-3.4949,-3.4998,-3.5048,-3.639,-3.7466,-3.8112,-3.7466,-3.7085,-3.7036,-3.6307,-3.5578,-3.4899,-3.5175,-3.5291,-3.5291,-3.5503,-3.56,-0.7969,-0.8408,-0.8766,-0.9355,0.0,0.0,0.0,0.0,0.0,0.0,0.0,0.0,0.0,0.0,0.0,0.0,0.0,0.0,0.0,0.0,0.0,0.0,0.0,0.0,0.0,0.0,0.0,0.0,0.0,0.0,0.0,0.0,0.0,-2.76,-2.76,-2.76,-2.76,-2.76,-2.7854,-2.8364,-2.9011,-2.9535,-2.9939,-3.0193,-3.0522,-3.0896,-3.0896,-3.1107,-3.1511,-3.1511,-3.1511,-3.1511,-3.1511,-3.1645,-3.1988,-3.2884,-3.2942,-3.2654,-3.3063,-3.3179,-3.3037,-3.2557,-3.2761,-3.3145,-3.2788,-3.2695,-3.2614,-3.2256,-3.2145,-3.2367,-3.3293,-3.3836,-3.4479,-3.568,-3.6599,-3.7443,-3.8477,-3.8689,-3.8608,-3.8319,-3.7766,-3.7173,-3.6681,-3.6386,-3.6201,-3.6082,-3.5671,-3.5422,-3.5563,-3.5181,-3.4899,-3.4899,-3.4899,-3.4899,-3.4899,-3.4899,-3.4899,-3.4899,-3.586,-3.6754,-3.75,-3.7251,-3.7334,-3.7798,-3.7069,-3.6555,-3.6274,-3.6446,-3.635,-3.5994,-3.6085,-3.5948,-0.7821,-0.8222,-0.859,0.0,0.0,0.0,0.0,0.0,0.0,0.0,0.0,0.0,0.0,0.0,0.0,0.0,0.0,0.0,0.0,0.0,0.0,0.0,0.0,0.0,0.0,0.0,0.0,0.0,0.0,0.0,0.0,0.0,0.0,0.0,-2.7405,-2.76,-2.76,-2.76,-2.76,-2.76,-2.8079,-2.8622,-2.9307,-2.9517,-2.9846,-3.0223,-3.0417,-3.0776,-3.1197,-3.1406,-3.1511,-3.1511,-3.1511,-3.163,-3.1869,-3.2318,-3.2198,-3.1884,-3.2333,-3.2326,-3.2135,-3.2135,-3.2367,-3.2598,-3.2231,-3.2135,-3.2035,-3.1611,-3.1645,-3.1998,-3.2786,-3.3474,-3.4234,-3.5354,-3.6278,-3.713,-3.785,-3.8023,-3.8023,-3.8023,-3.7501,-3.699,-3.6695,-3.647,-3.6214,-3.5897,-3.5417,-3.5084,-3.51,-3.4841,-3.4715,-3.4875,-3.4899,-3.4899,-3.4899,-3.4899,-3.4899,-3.4899,-3.5363,-3.5976,-3.6721,-3.6754,-3.7003,-3.75,-3.7019,-3.6655,-3.6406,-3.6547,-3.6495,-3.6341,-3.6427,-3.6253,-0.7428,-0.7504,-0.7731,0.0,0.0,0.0,0.0,0.0,0.0,0.0,0.0,0.0,0.0,0.0,0.0,0.0,0.0,0.0,0.0,0.0,0.0,0.0,0.0,0.0,0.0,0.0,0.0,0.0,0.0,0.0,0.0,0.0,0.0,0.0,-2.699,-2.757,-2.757,-2.7585,-2.7585,-2.7585,-2.76,-2.7959,-2.8607,-2.9292,-2.9592,-2.9636,-3.0223,-3.0492,-3.0552,-3.1212,-3.1496,-3.1511,-3.1511,-3.1899,-3.2497,-3.2497,-3.2497,-3.2497,-3.2497,-3.2049,-3.1511,-3.1511,-3.1511,-3.1511,-3.1511,-3.1511,-3.1511,-3.1511,-3.1989,-3.2497,-3.2527,-3.2968,-3.3895,-3.5826,-3.6272,-3.649,-3.7227,-3.7399,-3.7399,-3.7399,-3.6845,-3.66,-3.728,-3.6845,-3.6136,-3.542,-3.5284,-3.4778,-3.3372,-3.3739,-3.43,-3.4851,-3.4899,-3.4899,-3.4899,-3.4899,-3.4899,-3.4899,-3.4899,-3.523,-3.5976,-3.6009,-3.6009,-3.6009,-3.6009,-3.5644,-3.4916,-3.5058,-3.5488,-3.6204,-3.6341,-3.6389,-0.7336,-0.7844,0.0,-0.9137,0.0,0.0,0.0,0.0,0.0,0.0,0.0,0.0,0.0,0.0,0.0,0.0,0.0,0.0,0.0,0.0,0.0,0.0,0.0,0.0,0.0,0.0,0.0,0.0,0.0,0.0,0.0,0.0,0.0,0.0,-2.5838,-2.6183,-2.6183,-2.6647,-2.6911,-2.6911,-2.7375,-2.7705,-2.7899,-2.8109,-2.8453,-2.8906,-2.9086,-2.943,-2.9909,-3.0552,-3.1062,-3.1511,-3.1511,-3.163,-3.1795,-3.1795,-3.1795,-3.1795,-3.1795,-3.1675,-3.1511,-3.1511,-3.1511,-3.1511,-3.1511,-3.1824,-3.2183,-3.2183,-3.2706,-3.3305,-3.3769,-3.4043,-3.4318,-3.4881,-3.5723,-3.6429,-3.6646,-3.6692,-3.6692,-3.6692,-3.6196,-3.5829,-3.6037,-3.591,-3.567,-3.5423,-3.4924,-3.426,-3.3319,-3.3739,-3.4151,-3.4325,-3.4667,-3.4899,-3.4899,-3.4899,-3.4899,-3.4899,-3.4899,-3.523,-3.5976,-3.6009,-3.6241,-3.6771,-3.6771,-3.6671,-3.6456,-3.6481,-3.6406,-3.6204,-3.6228,-3.6033,-0.7562,-0.8209,0.0,-0.9815,-1.0836,-1.1809,-1.2628,0.0,0.0,0.0,0.0,0.0,0.0,0.0,0.0,0.0,0.0,0.0,0.0,0.0,0.0,0.0,0.0,0.0,0.0,0.0,0.0,0.0,0.0,0.0,0.0,0.0,0.0,0.0,-2.4636,-2.5143,-2.5615,-2.5758,-2.61,-2.6587,-2.7016,-2.7345,-2.76,-2.76,-2.7824,-2.8203,-2.8487,-2.8966,-2.9651,-3.0253,-3.0746,-3.1122,-3.1406,-3.1511,-3.1511,-3.1511,-3.1511,-3.1511,-3.1511,-3.1511,-3.1511,-3.1511,-3.1511,-3.1511,-3.1511,-3.178,-3.2093,-3.2093,-3.2781,-3.3589,-3.3978,-3.4487,-3.4891,-3.4891,-3.548,-3.6053,-3.6053,-3.6053,-3.6053,-3.6053,-3.5733,-3.5504,-3.5504,-3.5504,-3.5394,-3.5094,-3.4212,-3.341,-3.2955,-3.3203,-3.3601,-3.405,-3.4399,-3.4667,-3.4875,-3.4899,-3.4899,-3.4899,-3.4899,-3.5098,-3.5545,-3.5562,-3.5777,-3.6224,-3.6224,-3.6224,-3.6224,-3.6224,-3.6207,-3.6131,-3.6131,-3.5922,-0.7913,0.0,0.0,-1.058,-1.1313,0.0,-1.3344,0.0,0.0,0.0,0.0,0.0,0.0,0.0,0.0,0.0,0.0,0.0,0.0,0.0,0.0,0.0,0.0,0.0,0.0,0.0,0.0,0.0,0.0,0.0,0.0,0.0,0.0,-2.2738,-2.3381,-2.4222,-2.5327,-2.4844,-2.5204,0.0,-2.6467,-2.6811,-2.7395,-2.754,-2.76,-2.763,-2.8233,-2.8891,-2.9562,-3.0103,-3.0357,-3.0492,-3.1137,-3.1406,-3.1421,-3.1481,-3.154,-3.1585,-3.1525,-3.154,-3.1585,-3.1525,-3.1511,-3.1511,-3.1511,-3.154,-3.16,-3.1675,-3.2617,-3.3604,-3.3664,-3.4592,-3.5504,-3.5504,-3.5504,-3.5504,-3.5504,-3.5504,-3.5504,-3.5504,-3.5504,-3.5504,-3.5504,-3.5504,-3.525,-3.4533,-3.332,-3.2478,-3.2336,-3.237,-3.2792,-3.3832,-3.3984,-3.4209,-3.4715,-3.4804,-3.4828,-3.4828,-3.4875,-3.4899,-3.4899,-3.4899,-3.4899,-3.4899,-3.4899,-3.4899,-3.4899,-3.4899,-3.5247,-3.5909,-3.5909,-3.5909,-0.7471,-0.8374,0.0,0.0,-1.1768,-1.2858,-1.3721,-1.3797,0.0,0.0,0.0,0.0,0.0,0.0,0.0,0.0,0.0,0.0,0.0,0.0,0.0,0.0,0.0,0.0,0.0,0.0,0.0,0.0,0.0,0.0,0.0,0.0,0.0,-2.1559,-2.1945,-2.2541,-2.3319,-2.3719,-2.4218,0.0,-2.5491,-2.5851,-2.5905,-2.7071,-2.76,-2.76,-2.775,-2.8214,-2.8831,-2.8966,-2.931,-2.9849,-3.0477,-3.0731,-3.0791,-3.1316,-3.1824,-3.2198,-3.169,-3.1839,-3.2183,-3.1675,-3.1511,-3.1511,-3.1511,-3.1869,-3.2378,-3.2931,-3.3649,-3.4429,-3.4936,-3.5295,-3.5504,-3.5504,-3.5504,-3.5504,-3.5504,-3.5504,-3.5504,-3.5504,-3.5504,-3.5504,-3.5504,-3.5504,-3.51,-3.3888,-3.3021,-3.2302,-3.1743,-3.2092,-3.2492,-3.2738,-3.3135,-3.3433,-3.3563,-3.3993,-3.4275,-3.4275,-3.4667,-3.4899,-3.4899,-3.4899,-3.4899,-3.4899,-3.4899,-3.4899,-3.4899,-3.4899,-3.4982,-3.5131,-3.5131,-3.5131,0.0,0.0,0.0,-1.119,0.0,0.0,-1.3658,0.0,0.0,0.0,0.0,0.0,0.0,0.0,0.0,0.0,0.0,0.0,0.0,0.0,0.0,0.0,0.0,0.0,0.0,0.0,0.0,0.0,0.0,0.0,0.0,-2.0485,-2.0795,-2.0993,-2.093,-2.1318,-2.2193,-2.2271,-2.2712,-2.354,-2.4252,-2.4873,-2.5441,-2.6598,-2.73,-2.76,-2.76,-2.7809,-2.8154,-2.8472,-2.8801,-2.9205,-3.0133,-3.0507,-3.0582,-3.1256,-3.172,-3.2004,-3.1989,-3.1989,-3.2004,-3.1989,-3.1765,-3.1511,-3.1511,-3.175,-3.2153,-3.2841,-3.3499,-3.4158,-3.4846,-3.525,-3.5504,-3.5504,-3.5504,-3.5504,-3.5504,-3.5504,-3.5504,-3.5504,-3.5504,-3.5504,-3.5504,-3.5504,-3.504,-3.3694,-3.32,-3.2632,-3.163,-3.1768,-3.2079,-3.237,-3.2641,-3.2922,-3.3198,-3.3501,-3.3672,-3.3672,-3.4193,-3.4521,-3.4521,-3.4763,-3.4899,-3.4899,-3.4899,-3.4899,-3.4899,-3.4899,-3.4899,-3.4899,-3.4899,-3.4899,-0.8029,0.0,-1.0007,-1.1747,-1.2534,0.0,-1.339,0.0,0.0,0.0,0.0,0.0,0.0,0.0,0.0,0.0,0.0,0.0,0.0,0.0,0.0,0.0,0.0,0.0,0.0,0.0,0.0,0.0,0.0,0.0,-1.9687,-1.9825,-2.0038,-2.0383,-1.9938,-2.0238,-2.1393,-2.0917,-2.1274,-2.2473,-2.3031,-2.396,-2.5239,-2.5908,-2.6652,-2.7435,-2.754,-2.76,-2.7645,-2.8188,-2.8427,-2.8532,-2.9714,-3.0238,-3.0417,-3.1077,-3.1466,-3.175,-3.2303,-3.2198,-3.1914,-3.2348,-3.2108,-3.1645,-3.154,-3.1585,-3.1809,-3.2467,-3.3155,-3.3814,-3.4518,-3.507,-3.5504,-3.5504,-3.5504,-3.5504,-3.5504,-3.5504,-3.5504,-3.5504,-3.5504,-3.5504,-3.5504,-3.5504,-3.5085,-3.3858,-3.3664,-3.3185,-3.1854,-3.1675,-3.1817,-3.2191,-3.2231,-3.2437,-3.2879,-3.3013,-3.3066,-3.3066,-3.362,-3.3984,-3.4101,-3.4521,-3.4804,-3.4899,-3.4899,-3.4899,-3.4899,-3.4899,-3.4965,-3.5081,-3.5081,-3.5081,0.0,0.0,-1.0217,0.0,-1.2296,-1.2925,0.0,0.0,0.0,0.0,0.0,0.0,0.0,0.0,0.0,0.0,0.0,0.0,0.0,0.0,0.0,0.0,0.0,0.0,0.0,0.0,0.0,0.0,0.0,0.0,-1.8441,-1.8584,-1.8667,-1.8714,-1.8537,-1.9015,-2.0233,-2.0152,-2.0598,-2.1588,-2.2184,-2.3146,-2.4456,-2.4545,-2.5381,-2.6776,-2.7345,-2.76,-2.76,-2.7705,-2.7735,-2.7809,-2.8547,-2.9205,-2.9774,-3.0417,-3.139,-3.2392,-3.2452,-3.2826,-3.3155,-3.2677,-3.2452,-3.2243,-3.1675,-3.1899,-3.2527,-3.3185,-3.3844,-3.4533,-3.519,-3.5429,-3.5504,-3.5504,-3.5504,-3.5504,-3.5504,-3.5504,-3.5504,-3.5504,-3.5504,-3.5504,-3.5504,-3.5504,-3.5235,-3.4488,-3.4384,-3.3873,-3.2557,-3.2377,-3.2153,-3.1671,-3.1611,-3.164,-3.171,-3.2203,-3.252,-3.252,-3.3029,-3.3553,-3.4075,-3.4176,-3.4423,-3.4899,-3.4899,-3.4899,-3.4899,-3.4899,-3.523,-3.586,-3.586,-3.586,-0.7187,-0.8748,-1.0215,0.0,-1.1892,-1.2296,0.0,0.0,0.0,0.0,0.0,0.0,0.0,0.0,0.0,0.0,0.0,0.0,0.0,0.0,0.0,0.0,0.0,0.0,0.0,0.0,0.0,0.0,0.0,-1.8275,-1.8204,-1.8275,-1.8298,-1.8298,-1.8228,-1.8447,-1.8984,-1.9281,-2.0096,-2.1393,-2.1441,-2.2212,-2.3634,-2.3786,-2.4822,-2.6504,-2.6812,-2.7166,-2.763,-2.8019,-2.7944,-2.7705,-2.8742,-2.9101,-2.9146,-3.0133,-3.0881,-3.1554,-3.2677,-3.3021,-3.3021,-3.3469,-3.311,-3.2422,-3.2138,-3.2258,-3.2647,-3.3305,-3.3963,-3.4668,-3.5325,-3.5504,-3.5504,-3.5504,-3.5504,-3.5504,-3.5504,-3.5504,-3.5504,-3.5504,-3.5504,-3.5504,-3.5504,-3.5504,-3.5265,-3.4608,-3.4503,-3.4159,-3.3185,-3.2736,-3.2378,-3.2079,-3.172,-3.1511,-3.1511,-3.1754,-3.191,-3.191,-3.2422,-3.2857,-3.314,-3.3755,-3.4379,-3.4995,-3.5349,-3.5512,-3.5512,-3.5926,-3.6307,-3.6622,-3.6622,-3.6431,0.0,0.0,-0.9502,-1.0893,-1.1323,0.0,0.0,0.0,0.0,0.0,0.0,0.0,0.0,0.0,0.0,0.0,0.0,0.0,0.0,0.0,0.0,0.0,0.0,0.0,0.0,0.0,0.0,0.0,0.0,-1.7777,-1.7777,-1.7777,-1.7777,-1.7777,-1.7777,-1.784,-1.799,-1.8657,-1.9739,-2.1189,-2.1048,-2.1694,-2.3052,-2.3259,-2.4249,-2.5829,-2.6065,-2.6594,-2.7405,-2.8053,-2.8064,-2.772,-2.8903,-2.9026,-2.8742,-2.9864,-3.0372,-3.0791,-3.2796,-3.317,-3.2961,-3.4098,-3.3709,-3.2736,-3.2557,-3.2632,-3.2871,-3.3365,-3.4098,-3.4861,-3.537,-3.5504,-3.5504,-3.5504,-3.5504,-3.5504,-3.5504,-3.5504,-3.5504,-3.5504,-3.5504,-3.5504,-3.5504,-3.5504,-3.5325,-3.4816,-3.4741,-3.4502,-3.3829,-3.332,-3.2886,-3.2557,-3.2049,-3.169,-3.1511,-3.1511,-3.1511,-3.1511,-3.191,-3.2231,-3.2398,-3.3219,-3.3954,-3.4607,-3.5245,-3.5786,-3.629,-3.6837,-3.7201,-3.7384,-3.7384,-3.7153,0.0,-0.7263,0.0,-0.975,0.0,0.0,0.0,0.0,0.0,0.0,0.0,0.0,0.0,0.0,0.0,0.0,0.0,0.0,0.0,0.0,0.0,0.0,0.0,0.0,0.0,0.0,0.0,0.0,0.0,-1.6588,-1.6588,-1.6588,-1.6588,-1.6588,-1.6588,-1.6873,-1.7448,-1.8469,-1.9558,-2.0652,-2.1148,-2.1908,-2.2925,-2.2931,-2.34,-2.4271,-2.5094,-2.5899,-2.6692,-2.7375,-2.763,-2.766,-2.8368,-2.8622,-2.8682,-2.9397,-2.9998,-3.0791,-3.2796,-3.3469,-3.3559,-3.4279,-3.4008,-3.332,-3.2706,-3.2946,-3.3455,-3.3484,-3.4442,-3.5459,-3.5489,-3.5504,-3.5504,-3.5504,-3.5504,-3.5504,-3.5504,-3.5504,-3.5504,-3.5504,-3.5504,-3.5504,-3.5504,-3.5504,-3.5489,-3.5459,-3.5444,-3.5205,-3.4548,-3.4429,-3.3903,-3.2647,-3.2452,-3.2183,-3.1555,-3.1511,-3.1511,-3.1511,-3.1524,-3.1796,-3.237,-3.2453,-3.2738,-3.3298,-3.4016,-3.5261,-3.7052,-3.7085,-3.7466,-3.8146,-3.8146,-3.8129,0.0,0.0,0.0,-0.8675,0.0,0.0,0.0,0.0,0.0,0.0,0.0,0.0,0.0,0.0,0.0,0.0,0.0,0.0,0.0,0.0,0.0,0.0,0.0,0.0,0.0,0.0,0.0,0.0,0.0,0.0,-1.65,-1.65,-1.65,-1.65,-1.65,-1.6798,-1.7398,-1.7777,-1.8682,-2.0069,-1.9921,-2.0767,-2.244,-2.2086,-2.2493,-2.3493,-2.3781,-2.4823,-2.6401,-2.7255,-2.7803,-2.8144,-2.8476,-2.8607,-2.8622,-2.8861,-2.937,-3.0193,-3.2183,-3.314,-3.3679,-3.4771,-3.4397,-3.3455,-3.3215,-3.3305,-3.3499,-3.3499,-3.4472,-3.5504,-3.5504,-3.5504,-3.5504,-3.5504,-3.5504,-3.5504,-3.5504,-3.5504,-3.5504,-3.5504,-3.5504,-3.5504,-3.5504,-3.5504,-3.5504,-3.5504,-3.5504,-3.5415,-3.5175,-3.4788,-3.4159,-3.3245,-3.2766,-3.2213,-3.157,-3.1511,-3.1511,-3.1511,-3.1511,-3.1582,-3.1796,-3.2203,-3.2709,-3.3376,-3.4392,-3.5279,-3.5932,-3.6804,-3.7584,-3.8286,-3.8714,-3.8695,-0.5989,0.0,0.0,0.0,0.0,0.0,0.0,0.0,0.0,0.0,0.0,0.0,0.0,0.0,0.0,0.0,0.0,0.0,0.0,0.0,0.0,0.0,0.0,0.0,0.0,0.0,0.0,0.0,0.0,0.0,-1.65,-1.65,-1.65,-1.65,-1.65,-1.6697,-1.7087,-1.731,-1.8025,-1.9242,-1.9256,-2.0197,-2.1884,-2.1754,-2.2156,-2.3037,-2.3082,-2.4139,-2.5914,-2.6778,-2.7616,-2.8393,-2.8513,-2.8566,-2.8607,-2.8607,-2.8876,-2.9535,-3.1509,-3.2617,-3.3395,-3.4726,-3.4397,-3.3499,-3.3499,-3.3499,-3.3499,-3.3499,-3.4472,-3.5504,-3.5504,-3.5504,-3.5504,-3.5504,-3.5504,-3.5504,-3.5504,-3.5504,-3.5504,-3.5504,-3.5504,-3.5504,-3.5504,-3.5504,-3.5504,-3.5504,-3.5504,-3.5504,-3.5504,-3.51,-3.4562,-3.3903,-3.3245,-3.2572,-3.1884,-3.163,-3.1511,-3.1511,-3.1511,-3.1511,-3.1511,-3.1881,-3.2333,-3.282,-3.3849,-3.447,-3.4703,-3.6654,-3.798,-3.8662,-3.9077,-3.898,0.0,0.0,0.0,0.0,0.0,0.0,0.0,0.0,0.0,0.0,0.0,0.0,0.0,0.0,0.0,0.0,0.0,0.0,0.0,0.0,0.0,0.0,0.0,0.0,0.0,0.0,0.0,0.0,0.0,-1.65,-1.65,-1.65,-1.65,-1.65,-1.65,-1.65,-1.65,-1.7074,-1.7607,-1.8074,-1.9205,-2.0274,-2.1288,-2.1884,-2.2402,-2.2865,-2.3015,-2.3875,-2.5197,-2.5889,-2.7037,-2.8393,-2.8393,-2.8502,-2.8622,-2.8607,-2.8607,-2.8876,-3.0823,-3.1929,-3.2736,-3.4099,-3.4038,-3.3499,-3.3499,-3.3484,-3.3469,-3.3484,-3.4457,-3.5489,-3.5504,-3.5504,-3.5504,-3.5504,-3.5504,-3.5504,-3.5504,-3.5504,-3.5504,-3.5504,-3.5504,-3.5504,-3.5504,-3.5504,-3.5504,-3.5504,-3.5504,-3.5504,-3.5504,-3.5504,-3.5235,-3.4578,-3.3888,-3.323,-3.2572,-3.1884,-3.1511,-3.1511,-3.1511,-3.1511,-3.1511,-3.1525,-3.1525,-3.1525,-3.2198,-3.2886,-3.3545,-3.6717,-3.8601,-3.9245,-3.9272,-3.8997,-0.5343,0.0,0.0,0.0,0.0,0.0,0.0,0.0,0.0,0.0,0.0,0.0,0.0,0.0,0.0,0.0,0.0,0.0,0.0,0.0,0.0,0.0,0.0,0.0,0.0,0.0,0.0,0.0,-1.65,-1.65,-1.65,-1.65,-1.65,-1.65,-1.65,-1.65,-1.65,-1.6672,-1.7027,-1.761,-1.7915,-1.8825,-2.0244,-2.0784,-2.1332,-2.186,-2.2623,-2.3221,-2.3783,-2.499,-2.6522,-2.8115,-2.8314,-2.869,-2.9074,-2.8719,-2.8607,-2.8876,-3.0823,-3.1929,-3.2811,-3.4637,-3.4442,-3.3499,-3.3499,-3.3155,-3.2886,-3.3365,-3.4113,-3.4876,-3.537,-3.5504,-3.5504,-3.5504,-3.5504,-3.5504,-3.5504,-3.5504,-3.5504,-3.5504,-3.5504,-3.5504,-3.5504,-3.5504,-3.5504,-3.5504,-3.5504,-3.5504,-3.5504,-3.5504,-3.5235,-3.4578,-3.3888,-3.323,-3.2572,-3.1884,-3.1511,-3.1511,-3.1511,-3.1511,-3.1511,-3.1959,-3.2213,-3.2213,-3.3365,-3.4241,-3.4881,-3.6248,-3.7285,-3.7953,-3.8887,-3.9226,-0.5724,0.0,0.0,0.0,0.0,0.0,0.0,-0.8597,0.0,0.0,0.0,0.0,0.0,0.0,0.0,0.0,0.0,0.0,0.0,0.0,0.0,0.0,0.0,0.0,0.0,0.0,0.0,-1.6457,-1.6315,-1.6293,-1.65,-1.65,-1.65,-1.65,-1.65,-1.65,-1.65,-1.65,-1.6685,-1.7024,-1.7285,-1.7986,-1.9111,-1.9914,-2.0563,-2.1124,-2.2165,-2.2653,-2.2832,-2.4105,-2.596,-2.7993,-2.7874,-2.8574,-2.9533,-2.8681,-2.8393,-2.8631,-3.0382,-3.1439,-3.2333,-3.4396,-3.4352,-3.3499,-3.3499,-3.3036,-3.2572,-3.2976,-3.3754,-3.4593,-3.4966,-3.5295,-3.5504,-3.5504,-3.5504,-3.5504,-3.5504,-3.5504,-3.5504,-3.5504,-3.5504,-3.5504,-3.5504,-3.5504,-3.5504,-3.5504,-3.5504,-3.5504,-3.5504,-3.5504,-3.5235,-3.4578,-3.3888,-3.323,-3.2572,-3.1884,-3.1511,-3.1511,-3.1511,-3.1511,-3.1511,-3.1869,-3.2198,-3.2482,-3.3529,-3.4789,-3.6252,-3.6636,-3.7294,-3.8197,-3.8942,-3.9299,-0.6567,0.0,0.0,0.0,0.0,0.0,-0.8851,-0.8873,-0.9017,0.0,0.0,0.0,0.0,0.0,0.0,0.0,0.0,0.0,0.0,0.0,0.0,0.0,0.0,0.0,0.0,-1.5277,-1.5412,-1.6358,-1.6086,-1.6064,-1.6479,-1.65,-1.65,-1.65,-1.65,-1.65,-1.65,-1.65,-1.65,-1.65,-1.7036,-1.7556,-1.807,-1.9205,-1.9956,-2.0499,-2.1625,-2.21,-2.2189,-2.3263,-2.5348,-2.7808,-2.731,-2.8328,-2.9939,-2.8672,-2.8172,-2.8304,-2.9768,-3.0714,-3.1649,-3.3735,-3.3992,-3.3469,-3.3454,-3.2946,-3.2392,-3.2467,-3.341,-3.4399,-3.4399,-3.4816,-3.531,-3.537,-3.5385,-3.5415,-3.5489,-3.5504,-3.5504,-3.5504,-3.5504,-3.5504,-3.5504,-3.5504,-3.5504,-3.5504,-3.5504,-3.5504,-3.5504,-3.5444,-3.516,-3.4578,-3.3829,-3.3155,-3.2557,-3.1884,-3.1511,-3.1511,-3.1511,-3.1511,-3.1511,-3.157,-3.1929,-3.2617,-3.3396,-3.5003,-3.7399,-3.7488,-3.8112,-3.9299,-3.9299,-3.9299,0.0,0.0,0.0,0.0,0.0,0.0,-0.7479,-0.7852,-0.8353,0.0,0.0,0.0,0.0,0.0,0.0,0.0,0.0,0.0,0.0,0.0,0.0,0.0,0.0,0.0,0.0,-1.4581,-1.4937,-1.5866,-1.6194,-1.6402,-1.65,-1.65,-1.65,-1.65,-1.65,-1.65,-1.65,-1.65,-1.65,-1.65,-1.6613,-1.6989,-1.7568,-1.8653,-1.9212,-1.9414,-2.0909,-2.1575,-2.1612,-2.225,-2.4314,-2.7091,-2.7591,-2.8655,-2.9796,-2.9145,-2.8554,-2.8304,-2.9642,-3.057,-3.1456,-3.3469,-3.363,-3.3129,-3.3238,-3.2436,-3.1678,-3.2303,-3.308,-3.3694,-3.3694,-3.3784,-3.4023,-3.4578,-3.4713,-3.4831,-3.5385,-3.5504,-3.5504,-3.5504,-3.5504,-3.5504,-3.5504,-3.5504,-3.5504,-3.5504,-3.5504,-3.5504,-3.5504,-3.5026,-3.4653,-3.4518,-3.341,-3.2647,-3.2497,-3.1884,-3.1511,-3.1511,-3.1511,-3.1511,-3.1511,-3.2004,-3.2632,-3.329,-3.4972,-3.6337,-3.7399,-3.7879,-3.8535,-3.9299,-3.9299,-3.9299,0.0,0.0,0.0,-0.7723,0.0,0.0,0.0,-0.785,-0.8138,-0.8929,0.0,0.0,0.0,0.0,0.0,0.0,0.0,0.0,0.0,0.0,0.0,0.0,0.0,0.0,0.0,-1.4163,-1.4408,-1.5378,-1.6098,-1.65,-1.65,-1.65,-1.65,-1.65,-1.65,-1.65,-1.65,-1.65,-1.65,-1.65,-1.65,-1.6651,-1.6986,-1.8101,-1.8603,-1.868,-2.0304,-2.0993,-2.1042,-2.1575,-2.3236,-2.5579,-2.6891,-2.7948,-2.8764,-2.8862,-2.8481,-2.8044,-2.9134,-3.0132,-3.1219,-3.2945,-3.3254,-3.3035,-3.3161,-3.2347,-3.1468,-3.1899,-3.2467,-3.3006,-3.3006,-3.3245,-3.3574,-3.3903,-3.3978,-3.4083,-3.4427,-3.4756,-3.4996,-3.4996,-3.5265,-3.5504,-3.5504,-3.5504,-3.5504,-3.5504,-3.522,-3.4996,-3.4996,-3.4397,-3.3858,-3.3529,-3.2901,-3.2348,-3.2019,-3.169,-3.1511,-3.1511,-3.1511,-3.1511,-3.1511,-3.1824,-3.2452,-3.3469,-3.5064,-3.6396,-3.7399,-3.801,-3.8645,-3.9299,-3.9299,-3.9299,0.0,0.0,0.0,0.0,0.0,-0.8587,0.0,0.0,0.0,-0.8872,0.0,0.0,0.0,0.0,0.0,0.0,0.0,0.0,0.0,0.0,0.0,0.0,0.0,0.0,0.0,-1.3729,-1.3936,-1.5017,-1.5719,-1.6211,-1.6488,-1.65,-1.65,-1.65,-1.65,-1.65,-1.65,-1.65,-1.65,-1.65,-1.65,-1.65,-1.6538,-1.7689,-1.8204,-1.829,-1.9782,-2.051,-2.0635,-2.1066,-2.2162,-2.3781,-2.5847,-2.7014,-2.7623,-2.8281,-2.8093,-2.7616,-2.8274,-2.9405,-3.0807,-3.2248,-3.2823,-3.2882,-3.2679,-3.1974,-3.1263,-3.1307,-3.1693,-3.2124,-3.2258,-3.2721,-3.3155,-3.3275,-3.3305,-3.3335,-3.3469,-3.4039,-3.4503,-3.4503,-3.504,-3.5504,-3.5504,-3.5504,-3.5459,-3.5325,-3.4863,-3.4459,-3.4339,-3.3709,-3.3095,-3.2572,-3.2363,-3.2079,-3.1555,-3.1511,-3.1511,-3.1511,-3.1511,-3.1511,-3.1511,-3.163,-3.2243,-3.3469,-3.4759,-3.6009,-3.7221,-3.7822,-3.8535,-3.9299,-3.9299,-3.9299,0.0,0.0,0.0,0.0,-0.8894,0.0,0.0,0.0,-0.8358,-0.8108,0.0,0.0,0.0,0.0,0.0,0.0,0.0,0.0,0.0,0.0,0.0,0.0,0.0,0.0,0.0,0.0,-1.3629,-1.4994,-1.48,-1.5176,-1.6416,-1.65,-1.65,-1.65,-1.65,-1.65,-1.65,-1.65,-1.65,-1.65,-1.65,-1.65,-1.6538,-1.7689,-1.8204,-1.8267,-1.9409,-2.0156,-2.061,-2.0684,-2.1088,-2.1997,-2.4926,-2.6456,-2.7063,-2.7677,-2.7499,-2.6919,-2.7018,-2.8226,-2.9943,-3.1237,-3.2145,-3.2455,-3.0935,-3.0457,-3.0463,-3.0598,-3.0672,-3.085,-3.1455,-3.1675,-3.1869,-3.2452,-3.2617,-3.2781,-3.3365,-3.4039,-3.4503,-3.4503,-3.504,-3.5504,-3.5504,-3.5504,-3.5295,-3.4713,-3.4563,-3.4294,-3.3679,-3.3036,-3.2572,-3.2497,-3.1959,-3.1585,-3.1511,-3.1511,-3.1511,-3.1511,-3.1511,-3.1511,-3.1511,-3.2064,-3.2751,-3.3484,-3.4759,-3.5783,-3.6523,-3.7191,-3.8112,-3.9299,-3.9299,-3.9299,0.0,0.0,0.0,0.0,0.0,0.0,-0.8369,0.0,-0.8063,0.0,0.0,0.0,0.0,0.0,0.0,0.0,0.0,0.0,0.0,0.0,0.0,0.0,0.0,0.0,0.0,0.0,0.0,0.0,0.0,-1.4877,-1.5974,-1.6325,-1.65,-1.65,-1.65,-1.65,-1.65,-1.65,-1.65,-1.65,-1.65,-1.65,-1.6538,-1.7689,-1.8204,-1.8267,-1.9334,-1.9927,-2.0131,-2.0131,-2.0476,-2.1225,-2.3595,-2.4789,-2.5388,-2.6687,-2.6775,-2.6197,-2.5867,-2.6952,-2.8694,-2.9939,-3.0642,-3.0767,-2.9687,-2.9529,-2.9747,-2.9794,-2.9872,-2.9981,-3.0269,-3.0614,-3.0999,-3.1263,-3.1634,-3.1989,-3.2273,-3.2871,-3.3335,-3.3335,-3.3873,-3.4337,-3.4337,-3.4651,-3.4801,-3.4548,-3.3829,-3.3245,-3.2961,-3.2318,-3.1914,-3.1914,-3.1675,-3.1511,-3.1511,-3.1511,-3.1511,-3.1511,-3.1511,-3.1511,-3.1511,-3.1765,-3.2228,-3.2916,-3.3819,-3.479,-3.5814,-3.6491,-3.728,-3.8197,-3.8579,-3.8717,-1.1306,0.0,0.0,0.0,0.0,0.0,0.0,0.0,0.0,0.0,0.0,0.0,0.0,0.0,0.0,0.0,0.0,0.0,0.0,0.0,0.0,0.0,0.0,0.0,0.0,0.0,0.0,0.0,0.0,0.0,-1.5622,-1.607,-1.6337,-1.6488,-1.65,-1.65,-1.65,-1.65,-1.65,-1.65,-1.65,-1.6588,-1.6785,-1.7765,-1.8292,-1.848,-1.9409,-1.9798,-1.9798,-1.9798,-2.015,-2.0858,-2.2461,-2.3386,-2.3959,-2.563,-2.5851,-2.5287,-2.4886,-2.6058,-2.788,-2.8896,-2.9411,-2.9523,-2.8741,-2.8707,-2.8885,-2.8935,-2.9062,-2.9205,-2.9393,-2.995,-3.0494,-3.0494,-3.0999,-3.1511,-3.1511,-3.2019,-3.2512,-3.2512,-3.3036,-3.3499,-3.3499,-3.3888,-3.4174,-3.3994,-3.3125,-3.2422,-3.2243,-3.1795,-3.1511,-3.1511,-3.1511,-3.1511,-3.1511,-3.1511,-3.1511,-3.1511,-3.1511,-3.1511,-3.1511,-3.1511,-3.1809,-3.2497,-3.3155,-3.4045,-3.5156,-3.5828,-3.6399,-3.6906,-3.7851,-3.8306,0.0,0.0,0.0,-0.9958,0.0,0.0,0.0,0.0,-0.8975,0.0,0.0,0.0,0.0,0.0,0.0,0.0,0.0,0.0,0.0,0.0,0.0,0.0,0.0,0.0,0.0,0.0,0.0,0.0,0.0,0.0,-1.556,-1.5718,-1.5969,-1.6475,-1.65,-1.65,-1.65,-1.65,-1.65,-1.65,-1.65,-1.681,-1.7398,-1.794,-1.8469,-1.9008,-1.9572,-1.9798,-1.9798,-1.9798,-2.015,-2.0805,-2.1911,-2.2665,-2.3296,-2.4576,-2.4672,-2.4144,-2.4131,-2.5685,-2.7799,-2.8347,-2.8959,-2.9286,-2.8179,-2.7842,-2.7875,-2.7999,-2.8163,-2.8481,-2.9139,-2.9917,-3.0494,-3.0494,-3.0999,-3.1511,-3.1511,-3.2019,-3.2512,-3.2512,-3.3036,-3.3499,-3.3499,-3.3514,-3.3305,-3.2677,-3.2542,-3.2258,-3.1615,-3.1511,-3.1511,-3.1511,-3.1511,-3.1511,-3.1511,-3.1511,-3.1511,-3.1511,-3.1511,-3.1511,-3.1511,-3.1511,-3.1809,-3.2497,-3.3155,-3.3845,-3.4535,-3.5192,-3.5537,-3.5587,-3.7442,-3.8306,0.0,0.0,-1.2359,-1.1178,0.0,0.0,0.0,0.0,0.0,0.0,0.0,0.0,0.0,0.0,0.0,0.0,0.0,0.0,0.0,0.0,0.0,0.0,0.0,0.0,0.0,0.0,0.0,0.0,0.0,0.0,0.0,-1.6045,-1.63,-1.6488,-1.65,-1.65,-1.65,-1.65,-1.65,-1.65,-1.65,-1.6823,-1.7423,-1.7953,-1.8481,-1.9033,-1.9572,-1.9798,-1.9798,-1.9798,-2.015,-2.0767,-2.1481,-2.2108,-2.2698,-2.3903,-2.4193,-2.4091,-2.4429,-2.5102,-2.5942,-2.6852,-2.7325,-2.742,-2.705,-2.6985,-2.7087,-2.7142,-2.7276,-2.749,-2.7723,-2.8417,-2.903,-2.903,-2.9611,-3.0178,-3.0178,-3.0336,-3.051,-3.051,-3.1048,-3.1512,-3.1512,-3.1871,-3.2243,-3.2482,-3.2108,-3.1765,-3.1525,-3.1511,-3.1511,-3.1511,-3.1511,-3.1511,-3.1511,-3.1511,-3.1511,-3.1511,-3.1511,-3.1511,-3.1511,-3.1511,-3.1615,-3.1824,-3.2946,-3.3604,-3.3829,-3.4951,-3.5504,-3.5537,-3.6554,-3.7265,-1.2289,-1.2603,0.0,-1.1832,-1.1194,0.0,-1.0,0.0,0.0,0.0,0.0,0.0,0.0,0.0,0.0,0.0,0.0,0.0,0.0,-0.7476,0.0,0.0,0.0,0.0,0.0,0.0,-0.9771,-1.1733,0.0,0.0,0.0,0.0,-1.6287,-1.6488,-1.65,-1.65,-1.65,-1.65,-1.65,-1.65,-1.6722,-1.7124,-1.7689,-1.8242,-1.877,-1.9296,-1.966,-1.9798,-1.9798,-1.9798,-2.0263,-2.1018,-2.1383,-2.1945,-2.2656,-2.3396,-2.369,-2.3803,-2.4525,-2.4788,-2.5008,-2.6135,-2.6499,-2.6499,-2.6499,-2.6555,-2.6624,-2.6624,-2.676,-2.6909,-2.6909,-2.7577,-2.8287,-2.8287,-2.8921,-2.9504,-2.9504,-2.9504,-2.9504,-2.9504,-3.0042,-3.0494,-3.0494,-3.1058,-3.1645,-3.2064,-3.178,-3.1511,-3.1511,-3.1511,-3.1511,-3.1511,-3.1511,-3.1511,-3.1511,-3.1511,-3.1511,-3.1511,-3.1511,-3.1511,-3.1511,-3.1511,-3.1511,-3.1511,-3.2826,-3.3499,-3.3499,-3.4846,-3.5504,-3.5504,-3.591,-3.643]}]]